[[{"header":{"parameterUnit":"m.s-1","parameterCategory":1,"la1":30.6,"la2":29.2853,"lo1":-89.7004,"lo2":-87.6739,"dy":0.0162,"dx":0.0183,"nx":112,"ny":82,"refTime":"2024-07-14T00:00:00:Z","depth":0,"parameterNumber":2,"parameterNumberName":"U-component_of_WINDS"},"data":[0.0,0.0,0.0,0.0,0.0,0.0,0.0,0.0,0.0,0.0,0.0,0.0,0.0,0.0,0.0,0.0,0.0,0.0,0.0,0.0,0.0,0.0,0.0,0.0,0.0,0.0,0.0,0.0,0.0,0.0,0.0,0.0,0.0,0.0,0.0,0.0,0.0,0.0,0.0,0.0,0.0,0.0,0.0,0.0,0.0,0.0,0.0,0.0,0.0,0.0,0.0,0.0,0.0,0.0,0.0,0.0,0.0,0.0,0.0,0.0,0.0,0.0,0.0,0.0,0.0,0.0,0.0,0.0,0.0,0.0,0.0,0.0,0.0,0.0,0.0,0.0,0.0,0.0,0.0,0.0,0.0,0.0,0.0,0.0,0.0,0.0,0.0,0.0,0.0,0.0,0.0,-4.0942,-4.2268,-4.303,-4.2919,-4.2792,-4.125,-3.7811,0.0,0.0,0.0,0.0,0.0,0.0,0.0,0.0,0.0,0.0,0.0,0.0,0.0,0.0,0.0,0.0,0.0,0.0,0.0,0.0,0.0,0.0,0.0,0.0,0.0,0.0,0.0,0.0,0.0,0.0,0.0,0.0,0.0,0.0,0.0,0.0,0.0,0.0,0.0,0.0,0.0,0.0,0.0,0.0,0.0,0.0,0.0,0.0,0.0,0.0,0.0,0.0,0.0,0.0,0.0,0.0,0.0,0.0,0.0,0.0,0.0,0.0,0.0,0.0,0.0,0.0,0.0,0.0,0.0,0.0,0.0,0.0,0.0,0.0,0.0,0.0,0.0,0.0,0.0,0.0,0.0,0.0,0.0,0.0,0.0,0.0,0.0,0.0,0.0,0.0,0.0,0.0,0.0,0.0,0.0,0.0,0.0,0.0,0.0,0.0,0.0,0.0,0.0,0.0,-3.9578,-4.2432,-4.2848,-4.2919,-4.2901,-4.2266,-4.0654,-3.7775,0.0,0.0,0.0,0.0,0.0,0.0,0.0,0.0,0.0,0.0,0.0,0.0,0.0,0.0,0.0,0.0,0.0,0.0,0.0,0.0,0.0,0.0,0.0,0.0,0.0,0.0,0.0,0.0,0.0,0.0,0.0,0.0,0.0,0.0,0.0,0.0,0.0,0.0,0.0,0.0,0.0,0.0,0.0,0.0,0.0,0.0,0.0,0.0,0.0,0.0,0.0,0.0,0.0,0.0,0.0,0.0,0.0,0.0,0.0,0.0,0.0,0.0,0.0,0.0,0.0,0.0,0.0,0.0,0.0,0.0,0.0,0.0,0.0,0.0,0.0,0.0,0.0,0.0,0.0,0.0,0.0,0.0,0.0,0.0,0.0,0.0,0.0,0.0,0.0,0.0,0.0,0.0,0.0,0.0,0.0,0.0,0.0,0.0,0.0,0.0,0.0,0.0,0.0,-3.9056,-4.0399,-4.274,-4.2938,-4.2719,-4.2303,-4.1904,-4.0256,-3.6895,-3.5581,0.0,0.0,0.0,0.0,0.0,0.0,0.0,0.0,0.0,0.0,0.0,0.0,0.0,0.0,0.0,0.0,0.0,0.0,0.0,0.0,0.0,0.0,0.0,0.0,0.0,0.0,0.0,0.0,0.0,0.0,0.0,0.0,0.0,0.0,0.0,0.0,0.0,0.0,0.0,0.0,0.0,0.0,0.0,0.0,0.0,0.0,0.0,0.0,0.0,0.0,0.0,0.0,0.0,0.0,0.0,0.0,0.0,0.0,0.0,0.0,0.0,0.0,0.0,0.0,0.0,0.0,0.0,0.0,0.0,0.0,0.0,0.0,0.0,0.0,0.0,0.0,0.0,0.0,0.0,0.0,0.0,0.0,0.0,0.0,0.0,0.0,0.0,0.0,0.0,0.0,0.0,0.0,0.0,0.0,0.0,0.0,0.0,0.0,0.0,0.0,0.0,0.0,-4.0438,-4.1343,-4.2756,-4.2901,-4.2574,-4.1759,-4.1361,-3.9643,-3.6122,-3.4111,0.0,0.0,0.0,0.0,0.0,0.0,0.0,0.0,0.0,0.0,0.0,0.0,0.0,0.0,0.0,0.0,0.0,0.0,0.0,0.0,0.0,0.0,0.0,0.0,0.0,0.0,0.0,0.0,0.0,0.0,0.0,0.0,0.0,0.0,0.0,0.0,0.0,0.0,0.0,0.0,0.0,0.0,0.0,0.0,0.0,0.0,0.0,0.0,0.0,0.0,0.0,0.0,0.0,0.0,0.0,0.0,0.0,0.0,0.0,0.0,0.0,0.0,0.0,0.0,0.0,0.0,0.0,0.0,0.0,0.0,0.0,0.0,0.0,0.0,0.0,0.0,0.0,0.0,0.0,0.0,0.0,0.0,0.0,0.0,0.0,0.0,0.0,0.0,0.0,0.0,0.0,0.0,0.0,0.0,0.0,0.0,0.0,0.0,0.0,0.0,0.0,0.0,-4.0274,-4.194,-4.281,-4.2901,-4.2574,-4.1759,-4.0401,-3.851,-3.6052,-3.3106,0.0,0.0,0.0,0.0,0.0,0.0,0.0,0.0,0.0,0.0,0.0,0.0,0.0,0.0,0.0,0.0,0.0,0.0,0.0,0.0,0.0,0.0,0.0,0.0,0.0,0.0,0.0,0.0,0.0,0.0,0.0,0.0,0.0,0.0,0.0,0.0,0.0,0.0,0.0,0.0,0.0,0.0,0.0,0.0,0.0,0.0,0.0,0.0,0.0,0.0,0.0,0.0,0.0,0.0,0.0,0.0,0.0,0.0,0.0,0.0,0.0,0.0,0.0,0.0,0.0,0.0,0.0,0.0,0.0,0.0,0.0,0.0,0.0,0.0,0.0,0.0,0.0,0.0,0.0,0.0,0.0,0.0,0.0,0.0,0.0,0.0,0.0,0.0,0.0,0.0,0.0,0.0,0.0,0.0,0.0,0.0,0.0,0.0,0.0,0.0,0.0,0.0,-3.8645,-4.0003,0.0,-4.1397,-4.098,-3.9929,-3.93,-3.7753,-3.4915,0.0,0.0,0.0,0.0,0.0,0.0,0.0,0.0,0.0,0.0,0.0,0.0,0.0,0.0,0.0,0.0,0.0,0.0,0.0,0.0,0.0,0.0,0.0,0.0,0.0,0.0,0.0,0.0,0.0,0.0,0.0,0.0,0.0,0.0,0.0,0.0,0.0,0.0,0.0,0.0,0.0,0.0,0.0,0.0,0.0,0.0,0.0,0.0,0.0,0.0,0.0,0.0,0.0,0.0,0.0,0.0,0.0,0.0,0.0,0.0,0.0,0.0,0.0,0.0,0.0,0.0,0.0,0.0,0.0,0.0,0.0,0.0,0.0,0.0,0.0,0.0,0.0,0.0,0.0,0.0,0.0,0.0,0.0,0.0,0.0,0.0,0.0,0.0,0.0,0.0,0.0,0.0,0.0,0.0,0.0,0.0,0.0,0.0,0.0,0.0,0.0,0.0,-3.627,-3.7774,-3.9027,0.0,-4.0311,-3.9821,-3.8621,-3.8068,-3.6598,-3.3827,0.0,0.0,0.0,0.0,0.0,0.0,0.0,0.0,0.0,0.0,0.0,0.0,0.0,0.0,0.0,0.0,0.0,0.0,0.0,0.0,0.0,0.0,0.0,0.0,0.0,0.0,0.0,0.0,0.0,0.0,0.0,0.0,0.0,0.0,0.0,0.0,0.0,0.0,0.0,0.0,0.0,0.0,0.0,0.0,0.0,0.0,0.0,0.0,0.0,0.0,0.0,0.0,0.0,0.0,0.0,0.0,0.0,0.0,0.0,0.0,0.0,0.0,0.0,0.0,0.0,0.0,0.0,0.0,0.0,0.0,0.0,0.0,0.0,0.0,0.0,0.0,0.0,0.0,0.0,0.0,0.0,0.0,0.0,0.0,0.0,0.0,0.0,0.0,0.0,0.0,0.0,0.0,0.0,0.0,0.0,0.0,0.0,0.0,0.0,0.0,0.0,0.0,-3.5569,-3.7884,-3.9499,-3.9829,-3.9862,-3.9386,-3.8172,-3.6673,-3.4958,0.0,0.0,0.0,0.0,0.0,0.0,0.0,0.0,0.0,0.0,0.0,0.0,0.0,0.0,0.0,0.0,0.0,0.0,0.0,0.0,0.0,0.0,0.0,0.0,0.0,0.0,0.0,0.0,0.0,0.0,0.0,0.0,0.0,0.0,0.0,0.0,0.0,0.0,0.0,0.0,0.0,0.0,0.0,0.0,0.0,0.0,0.0,0.0,0.0,0.0,0.0,0.0,0.0,0.0,0.0,0.0,0.0,0.0,0.0,0.0,0.0,0.0,0.0,0.0,0.0,0.0,0.0,0.0,0.0,0.0,0.0,0.0,0.0,0.0,0.0,0.0,0.0,0.0,0.0,0.0,0.0,0.0,0.0,0.0,0.0,0.0,0.0,0.0,0.0,0.0,0.0,0.0,0.0,0.0,0.0,0.0,0.0,0.0,0.0,0.0,0.0,0.0,0.0,-3.4648,-3.6278,-3.7471,-3.8148,-3.7956,-3.7536,-3.6898,-3.594,-3.4547,-3.2599,0.0,0.0,0.0,0.0,0.0,0.0,0.0,0.0,0.0,0.0,0.0,0.0,0.0,0.0,0.0,0.0,0.0,0.0,0.0,0.0,0.0,0.0,0.0,0.0,0.0,0.0,0.0,0.0,0.0,0.0,0.0,0.0,0.0,0.0,0.0,0.0,0.0,0.0,0.0,0.0,0.0,0.0,0.0,0.0,0.0,0.0,0.0,0.0,0.0,0.0,0.0,0.0,0.0,0.0,0.0,0.0,0.0,0.0,0.0,0.0,0.0,0.0,0.0,0.0,0.0,0.0,0.0,0.0,0.0,0.0,0.0,0.0,0.0,0.0,0.0,0.0,0.0,0.0,0.0,0.0,0.0,0.0,0.0,0.0,0.0,0.0,0.0,0.0,0.0,0.0,0.0,0.0,0.0,0.0,0.0,0.0,0.0,0.0,0.0,0.0,0.0,0.0,-3.3031,-3.4671,-3.5793,-3.6069,-3.5892,-3.5575,-3.5176,-3.4473,-3.3294,-3.1515,0.0,0.0,0.0,0.0,0.0,0.0,0.0,0.0,0.0,0.0,0.0,0.0,0.0,0.0,0.0,0.0,0.0,0.0,0.0,0.0,0.0,0.0,0.0,0.0,0.0,0.0,0.0,0.0,0.0,0.0,0.0,0.0,0.0,0.0,0.0,0.0,0.0,0.0,0.0,0.0,0.0,0.0,0.0,0.0,0.0,0.0,0.0,0.0,0.0,0.0,0.0,0.0,0.0,0.0,0.0,0.0,0.0,0.0,0.0,0.0,0.0,0.0,0.0,0.0,0.0,0.0,0.0,0.0,0.0,0.0,0.0,0.0,0.0,0.0,0.0,0.0,0.0,0.0,0.0,0.0,0.0,0.0,0.0,0.0,0.0,0.0,0.0,0.0,0.0,0.0,0.0,0.0,0.0,0.0,0.0,0.0,0.0,0.0,0.0,0.0,0.0,0.0,-3.1191,-3.3143,-3.44,-3.4034,-3.3973,-3.3791,-3.3427,-3.2713,-3.1701,-3.0294,0.0,0.0,0.0,0.0,0.0,0.0,0.0,0.0,0.0,0.0,0.0,0.0,0.0,0.0,0.0,0.0,0.0,0.0,0.0,0.0,0.0,0.0,0.0,0.0,0.0,0.0,0.0,0.0,0.0,0.0,0.0,0.0,0.0,0.0,0.0,0.0,0.0,0.0,0.0,0.0,0.0,0.0,0.0,0.0,0.0,0.0,0.0,0.0,0.0,0.0,0.0,0.0,0.0,0.0,0.0,0.0,0.0,0.0,0.0,0.0,-3.563,0.0,0.0,0.0,0.0,0.0,0.0,0.0,0.0,0.0,0.0,0.0,0.0,0.0,0.0,0.0,0.0,0.0,0.0,0.0,0.0,0.0,0.0,0.0,0.0,0.0,0.0,0.0,0.0,0.0,0.0,0.0,0.0,0.0,0.0,0.0,0.0,0.0,0.0,0.0,0.0,0.0,-3.1018,-3.2422,-3.3467,-3.3943,-3.3727,-3.3494,-3.3406,-3.2713,-3.1921,-3.1021,0.0,0.0,0.0,0.0,0.0,0.0,0.0,0.0,0.0,0.0,0.0,0.0,0.0,0.0,0.0,0.0,0.0,0.0,0.0,0.0,0.0,0.0,0.0,0.0,0.0,0.0,0.0,0.0,0.0,0.0,0.0,0.0,0.0,0.0,0.0,0.0,0.0,0.0,0.0,0.0,0.0,0.0,0.0,0.0,0.0,0.0,0.0,0.0,0.0,0.0,0.0,0.0,0.0,0.0,0.0,0.0,0.0,0.0,0.0,0.0,0.0,-3.6332,0.0,0.0,0.0,0.0,0.0,0.0,0.0,0.0,0.0,0.0,0.0,0.0,0.0,0.0,0.0,0.0,0.0,0.0,0.0,0.0,0.0,0.0,0.0,0.0,0.0,0.0,0.0,0.0,0.0,0.0,0.0,0.0,0.0,0.0,0.0,0.0,0.0,0.0,0.0,0.0,-3.0007,-3.1292,-3.222,-3.2615,-3.2465,-3.2341,-3.2341,-3.1985,-3.1464,-3.0717,-2.9262,0.0,0.0,0.0,0.0,0.0,0.0,0.0,0.0,0.0,0.0,0.0,0.0,0.0,0.0,0.0,0.0,0.0,0.0,0.0,0.0,0.0,0.0,0.0,0.0,0.0,0.0,0.0,0.0,0.0,0.0,0.0,0.0,0.0,0.0,0.0,0.0,0.0,0.0,0.0,0.0,0.0,0.0,0.0,0.0,0.0,0.0,0.0,0.0,0.0,0.0,0.0,0.0,0.0,0.0,-3.9989,-3.9297,-4.0816,-4.1495,-4.138,-3.9431,-3.8419,-3.7972,0.0,0.0,0.0,0.0,0.0,0.0,0.0,0.0,0.0,0.0,0.0,0.0,0.0,0.0,0.0,0.0,0.0,0.0,0.0,0.0,0.0,0.0,0.0,0.0,0.0,-3.4535,-3.4539,0.0,0.0,0.0,0.0,0.0,0.0,0.0,0.0,0.0,0.0,0.0,0.0,-2.8807,-3.0091,-3.1004,-3.1004,-3.1123,-3.119,-3.119,-3.119,-3.0886,-3.014,-2.877,-2.7401,0.0,0.0,0.0,0.0,0.0,0.0,0.0,0.0,0.0,0.0,0.0,0.0,0.0,0.0,0.0,0.0,0.0,0.0,0.0,0.0,0.0,0.0,0.0,0.0,0.0,0.0,0.0,0.0,0.0,0.0,0.0,0.0,-3.1468,-3.1618,0.0,0.0,0.0,0.0,0.0,0.0,0.0,0.0,0.0,0.0,0.0,0.0,0.0,0.0,-3.8007,-3.9438,-3.9815,-3.9127,-3.9989,-4.0341,-4.0236,-4.1112,-4.1495,-4.1514,-4.1934,0.0,-3.9728,-3.6824,0.0,0.0,0.0,0.0,0.0,0.0,0.0,0.0,0.0,0.0,0.0,0.0,0.0,0.0,0.0,0.0,0.0,0.0,0.0,0.0,0.0,0.0,-3.3908,-3.3721,-3.3575,-3.3124,0.0,-3.1433,-3.1042,-3.0033,0.0,0.0,0.0,0.0,0.0,0.0,0.0,0.0,-2.7959,-2.9294,-3.0243,-3.0243,-3.0818,-3.119,-3.119,-3.119,-3.0886,-3.014,-2.9313,-2.8433,-2.7553,-2.6269,0.0,0.0,0.0,0.0,0.0,0.0,0.0,0.0,0.0,0.0,0.0,0.0,0.0,0.0,0.0,0.0,0.0,0.0,0.0,0.0,0.0,0.0,0.0,0.0,0.0,0.0,0.0,0.0,0.0,-3.0959,-3.2817,-3.2744,-3.3902,-3.4286,0.0,0.0,0.0,0.0,0.0,0.0,0.0,0.0,0.0,-3.9538,-4.0315,-4.0758,-4.0873,-4.1104,-4.1022,-4.0647,-4.0989,-4.1089,-4.1063,-4.1858,-4.2221,-4.2221,-4.2125,-4.1827,-4.1244,-3.8856,-3.6763,-3.4892,0.0,0.0,0.0,0.0,0.0,-3.2601,-3.2706,0.0,0.0,0.0,0.0,0.0,0.0,0.0,0.0,0.0,0.0,0.0,0.0,0.0,0.0,-3.4098,-3.423,-3.4083,-3.2987,-3.244,-3.1777,0.0,-3.0144,-2.957,-2.8045,0.0,0.0,0.0,0.0,0.0,-2.7807,-2.9142,-3.0108,-3.0108,-3.0768,-3.119,-3.119,-3.119,-3.0886,-3.014,-2.9397,-2.8636,-2.7841,-2.6793,-2.5862,0.0,0.0,0.0,0.0,0.0,0.0,0.0,0.0,0.0,0.0,0.0,0.0,0.0,0.0,0.0,0.0,0.0,0.0,0.0,0.0,0.0,0.0,0.0,0.0,0.0,0.0,0.0,0.0,-3.2316,-3.4045,-3.399,-3.55,-3.5908,0.0,0.0,0.0,0.0,0.0,0.0,-3.8969,-4.0373,-4.145,-4.2104,-4.2547,-4.2874,-4.3104,-4.2442,-4.1986,-4.1716,-4.1451,-4.131,-4.1246,-4.2078,-4.2469,-4.2431,-4.2011,-4.189,-4.1859,-4.0193,-3.8253,-3.6215,-3.4939,-3.3954,-3.3188,-3.2968,-3.2913,-3.2986,-3.3587,-3.3807,-3.3697,-3.3096,0.0,-3.2491,-3.188,0.0,0.0,0.0,0.0,-3.2868,-3.2868,0.0,-3.4371,-3.4058,-3.425,-3.4249,-3.3248,-3.2744,-3.2135,0.0,-3.1106,-3.0739,-2.8741,0.0,0.0,0.0,0.0,-2.7519,-2.7519,-2.8686,-2.9497,-2.9497,-3.0192,-3.07,-3.0903,-3.0751,-3.0395,-2.9854,-2.911,-2.8332,-2.7553,-2.6996,-2.6437,-2.5896,0.0,0.0,0.0,0.0,0.0,0.0,0.0,0.0,0.0,0.0,0.0,0.0,0.0,0.0,0.0,0.0,0.0,0.0,0.0,0.0,0.0,0.0,0.0,0.0,0.0,0.0,0.0,0.0,0.0,-3.5854,-3.7292,0.0,0.0,0.0,0.0,-3.7909,-3.9441,-4.0739,-4.1558,-4.247,-4.2989,-4.3028,-4.4566,-4.4671,-4.3124,-4.2994,-4.2544,-4.178,-4.0837,-4.0401,-4.0475,-4.1236,-4.1571,-4.1609,-4.2393,-4.2138,-4.1075,-3.9962,-3.9275,-3.872,-3.6891,-3.5642,-3.4802,-3.4027,-3.3733,-3.3752,-3.3788,-3.3807,-3.3788,-3.3752,-3.322,-3.2583,-3.2546,-3.2528,0.0,0.0,-3.3075,-3.3643,-3.3643,-3.3469,-3.3244,-3.3091,-3.2608,-3.2107,-3.1838,-3.1517,-3.1363,0.0,-3.0849,-3.0144,-3.0023,0.0,-2.7773,-2.7705,-2.7165,-2.6759,-2.6759,-2.7418,-2.7925,-2.7925,-2.8636,-2.9381,-3.0108,-2.9499,-2.9094,-2.9061,-2.8298,-2.7519,-2.6776,-2.6708,-2.6674,-2.664,-2.5269,0.0,0.0,0.0,0.0,0.0,0.0,0.0,0.0,0.0,0.0,0.0,0.0,0.0,0.0,0.0,0.0,0.0,0.0,0.0,0.0,0.0,0.0,0.0,0.0,0.0,0.0,0.0,0.0,-3.8375,-3.9946,0.0,0.0,-4.0353,-4.0752,-4.0622,-4.1628,-4.2575,-4.3363,-4.3701,-4.4124,-4.4682,-4.5287,-4.5306,-4.471,-4.4135,-4.3406,-4.2563,-4.1641,-4.0898,-4.0344,-4.0606,-4.0731,-4.075,-4.1055,-4.1156,-4.1082,-4.0688,-3.9658,-3.8238,-3.7389,-3.6229,-3.4912,-3.41,-3.3807,-3.3807,-3.3807,-3.3807,-3.3807,-3.3807,-3.3605,-3.3366,-3.3366,-3.3366,-3.3366,-3.3366,-3.356,-3.3766,-3.3766,-3.3437,-3.3065,-3.2765,-3.2231,-3.1731,-3.1447,-3.1291,-3.1249,-3.1368,-3.1068,-3.0666,-3.0192,-2.9245,-2.8399,-2.7874,-2.7182,-2.6691,-2.6691,-2.7791,-2.8569,-2.8569,-2.9245,-2.982,-3.0072,-2.9414,-2.879,-2.8264,-2.7959,-2.7469,-2.6725,-2.6691,-2.6691,-2.6691,-2.6183,-2.5304,0.0,0.0,0.0,0.0,0.0,0.0,0.0,0.0,0.0,0.0,0.0,0.0,0.0,0.0,0.0,0.0,0.0,0.0,0.0,0.0,0.0,0.0,0.0,0.0,0.0,0.0,-3.9338,-4.0133,-4.1518,-4.2036,-4.1113,-4.1788,-4.2218,-4.2071,-4.2775,-4.3528,-4.433,-4.4331,-4.4701,-4.5575,-4.5594,-4.5594,-4.5594,-4.4442,-4.3571,-4.2988,-4.1805,-4.0898,-4.0307,-4.031,-4.0454,-4.0711,-4.0711,-4.0911,-4.125,-4.1438,-4.0125,-3.8013,-3.7748,-3.6752,-3.5298,-3.4211,-3.3807,-3.3807,-3.3807,-3.3807,-3.3807,-3.3807,-3.3807,-3.3807,-3.3807,-3.3807,-3.3807,-3.3807,-3.3793,-3.3753,-3.3625,-3.3262,-3.283,-3.2401,-3.1723,-3.1129,-3.0876,-3.0632,-3.0465,-3.0465,-3.0852,-3.097,-3.0243,-2.9482,-2.8739,-2.7925,-2.7182,-2.6691,-2.6691,-2.7588,-2.8333,-2.8569,-2.8805,-2.9161,-2.9685,-2.8789,-2.8095,-2.7824,-2.757,-2.7215,-2.6708,-2.6454,-2.6437,-2.6691,-2.6454,-2.5612,-2.4112,0.0,0.0,0.0,0.0,0.0,0.0,0.0,0.0,0.0,0.0,0.0,0.0,0.0,0.0,0.0,0.0,0.0,0.0,0.0,0.0,0.0,0.0,0.0,-3.7259,-3.8895,-4.0314,-4.1129,-4.1967,-4.2142,-4.1304,-4.1844,-4.2253,-4.2231,-4.2818,-4.3562,-4.4445,-4.4349,-4.4662,-4.5575,-4.5594,-4.5594,-4.5556,-4.3878,-4.3026,-4.2968,-4.1222,-4.0384,-4.0384,-4.0386,-4.0807,-4.1533,-4.1514,-4.1495,-4.1542,-4.2039,-4.0714,-3.8319,-3.8013,-3.723,-3.6064,-3.4412,-3.3807,-3.3807,-3.3807,-3.3807,-3.3807,-3.3807,-3.3807,-3.3807,-3.3807,-3.3807,-3.3807,-3.3807,-3.3753,-3.3629,-3.3294,-3.2876,-3.2436,-3.1985,-3.0999,-3.0136,-3.0093,-2.9499,-2.8993,-2.8993,-3.0161,-3.0903,-3.0192,-2.9448,-2.8687,-2.7925,-2.7182,0.0,-2.6691,-2.6708,-2.7012,-2.7722,-2.7165,-2.7351,-2.884,-2.7571,-2.6996,-2.7722,-2.7097,-2.6691,-2.6691,-2.6015,-2.5981,-2.6691,-2.5998,-2.4913,-2.3461,0.0,0.0,0.0,0.0,0.0,0.0,0.0,0.0,0.0,0.0,0.0,0.0,0.0,0.0,0.0,0.0,0.0,0.0,0.0,0.0,0.0,0.0,-3.8199,-3.9056,-4.1196,-4.2965,-4.3821,-4.4133,-4.4192,-4.3957,-4.3537,-4.3241,-4.3153,-4.2689,-4.3017,-4.4413,-4.3829,-4.4105,-4.5556,-4.5594,-4.5306,-4.4662,-4.4177,-4.3632,-4.2998,-4.2401,-4.2106,-4.2106,-4.2106,-4.224,-4.2412,-4.1762,-4.1495,-4.1476,-4.1026,-4.0187,-3.9095,-3.8236,-3.6865,-3.5224,-3.4192,-3.3807,-3.3807,-3.3807,-3.3807,-3.3807,-3.3807,-3.3807,-3.3807,-3.3807,-3.3807,-3.3807,-3.3807,-3.3793,-3.368,-3.3306,-3.2478,-3.1604,-3.1133,-3.0156,-2.9316,-2.9314,-2.9145,-2.8993,-2.8993,-2.9331,-2.9551,-2.9348,-2.8653,-2.8043,-2.7841,0.0,0.0,-2.6691,-2.7182,-2.757,-2.779,-2.7621,-2.7672,-2.8077,-2.7249,-2.6793,0.0,-2.681,-2.6691,-2.6691,-2.6505,-2.6488,-2.6691,-2.6488,-2.5897,0.0,0.0,0.0,0.0,0.0,0.0,0.0,0.0,0.0,0.0,0.0,0.0,0.0,0.0,0.0,0.0,0.0,0.0,0.0,0.0,0.0,0.0,-3.8574,-4.1033,-4.191,-4.2995,-4.4157,-4.5402,-4.4582,-4.4055,-4.4426,-4.3665,-4.3129,-4.3058,-4.2847,-4.3258,-4.4485,-4.4011,-4.4264,-4.5556,-4.5594,-4.5364,-4.4855,-4.4483,-4.4025,-4.35,-4.3043,-4.2824,-4.2805,-4.2804,-4.2985,0.0,-4.2412,-4.203,-4.1972,-4.1151,-4.0081,0.0,0.0,0.0,0.0,0.0,-3.3807,-3.3807,-3.3807,-3.3807,-3.3807,-3.3807,-3.3807,-3.3807,-3.3807,-3.3807,-3.3807,-3.3807,-3.3807,-3.3588,-3.2739,-3.1972,-3.1164,-3.0266,-2.9227,-2.8501,-2.8501,-2.8247,-2.8045,-2.8045,0.0,0.0,-2.8045,-2.7909,-2.7705,-2.7384,-2.6962,-2.6691,0.0,-2.708,-2.7452,-2.7773,-2.7519,-2.7452,-2.7773,-2.7131,0.0,0.0,0.0,-2.6556,-2.6251,-2.6539,0.0,0.0,0.0,0.0,0.0,0.0,0.0,0.0,-2.613,-2.6849,0.0,0.0,0.0,0.0,0.0,0.0,0.0,0.0,0.0,0.0,0.0,0.0,0.0,0.0,0.0,0.0,-4.1093,-4.4002,-4.4881,-4.4251,-4.436,-4.6088,-4.4075,-4.2884,-4.3762,-4.306,-4.2552,-4.2552,-4.3192,-4.3907,-4.4594,0.0,0.0,0.0,0.0,-4.5556,-4.546,-4.4701,-4.4264,-4.4192,-4.3406,-4.3044,-4.308,-4.2985,-4.3329,-4.3949,-4.3061,-4.2641,-4.2584,-4.1724,-4.0102,-3.8061,-3.7132,-3.6459,-3.5844,-3.4357,-3.3807,0.0,0.0,0.0,0.0,-3.3807,-3.3807,-3.3807,-3.3807,-3.3807,-3.377,-3.3697,-3.366,-3.3323,-3.1843,-3.1298,-3.0763,-2.9333,-2.8301,-2.7672,-2.7672,-2.7165,-2.6691,-2.6691,-2.6691,-2.6691,-2.6691,-2.7232,-2.7452,-2.6793,-2.6691,0.0,-2.6691,-2.6691,-2.6945,-2.7604,0.0,0.0,-2.7621,-2.708,-2.6691,-2.6691,-2.6691,-2.6404,-2.5761,-2.6353,-2.6202,-2.5143,-2.5773,-2.6061,-2.5994,-2.6404,-2.6764,-2.7085,-2.665,-2.6757,0.0,0.0,0.0,0.0,0.0,0.0,0.0,0.0,0.0,0.0,0.0,0.0,0.0,0.0,0.0,-4.0059,-4.2285,-4.4004,-4.4881,-4.4253,-4.4346,-4.6096,-4.4606,-4.3782,-4.466,-4.3957,-4.345,-4.345,-4.3546,-4.3929,-4.4729,-4.4597,0.0,-4.5725,-4.5671,-4.5267,-4.4566,-4.4378,-4.4267,-4.4192,0.0,0.0,-4.4781,-4.4093,-4.3854,-4.3911,-4.2412,-4.1743,-4.1686,-4.0864,-3.9247,-3.7129,-3.5892,-3.4944,-3.4247,-3.3917,-3.3807,-3.3807,-3.3807,-3.3807,-3.3807,-3.3807,-3.3807,-3.3807,-3.3807,-3.3807,0.0,-3.3005,-3.2821,-3.2487,-3.0957,-3.0056,-2.9334,-2.8425,-2.7555,-2.6911,-2.6911,-2.6793,-2.6691,-2.6691,-2.6691,-2.6691,-2.6691,-2.6826,-2.686,-2.6708,-2.6691,-2.6691,-2.6691,-2.6691,-2.6742,-2.6894,-2.6776,-2.6759,-2.6894,-2.6776,-2.6691,-2.6691,-2.6691,-2.664,-2.6488,-2.6623,-2.6437,-2.5889,-2.6021,-2.6268,-2.6628,-2.6611,-2.6965,-2.7644,-2.7828,-2.778,0.0,0.0,0.0,0.0,0.0,0.0,0.0,0.0,0.0,0.0,0.0,-3.4014,-3.6159,0.0,-3.9815,-4.2001,-4.3442,-4.4446,-4.4898,-4.3847,-4.3528,-4.4848,-4.3456,-4.2903,-4.4211,-4.3957,-4.3879,-4.4328,-4.4721,-4.5103,-4.5436,-4.5356,-4.547,-4.5834,-4.5752,-4.5495,-4.5052,-4.4977,-4.4899,-4.4806,-4.4356,-4.4316,-4.4628,-4.3787,-4.3395,-4.3329,-4.2049,-4.1495,-4.1351,-3.9448,-3.7997,-3.6817,-3.5077,-3.4156,-3.3807,-3.3807,-3.3807,-3.3807,-3.3807,-3.3807,-3.3807,-3.3807,-3.3807,-3.3715,-3.333,-3.3201,-3.3036,-3.2228,-3.2008,-3.1686,-3.0318,-2.9533,-2.8853,-2.7883,-2.7163,-2.6691,-2.6691,-2.6691,-2.6691,-2.6691,-2.6691,-2.6691,-2.6691,-2.6387,-2.6268,-2.664,-2.6691,-2.6691,-2.6691,-2.6691,-2.6691,-2.6691,-2.6691,-2.6691,-2.6691,-2.6691,-2.6691,-2.6691,-2.6691,-2.6691,-2.6691,-2.6691,-2.6419,-2.5817,-2.5799,-2.606,-2.6616,-2.6394,-2.6848,-2.7905,-2.7919,-2.782,0.0,0.0,0.0,0.0,0.0,0.0,0.0,0.0,-3.1669,-3.3634,-3.4542,-3.585,-3.8627,-4.0241,-4.1724,-4.3477,-4.4384,-4.4825,-4.4649,-4.3336,-4.2575,-4.3117,-4.2092,-4.2045,-4.3782,-4.3957,-4.4309,-4.5187,-4.5909,-4.6247,-4.6144,-4.6109,-4.6053,-4.5935,-4.5859,-4.5815,-4.5807,-4.57,-4.549,-4.5189,-4.4528,-4.4049,-4.374,-4.2908,-4.2545,-4.2507,-4.1648,-4.1266,-4.1055,-3.8247,-3.7039,-3.6791,-3.471,-3.386,-3.3807,-3.3807,-3.3807,-3.3807,-3.3807,-3.3807,-3.3807,-3.3807,-3.3697,-3.3458,-3.2803,-3.2491,-3.2197,-3.1384,-3.1139,-3.0806,-2.9628,-2.9058,-2.8541,-2.7488,-2.6971,-2.6742,-2.6708,-2.6691,-2.6691,-2.6691,-2.6691,-2.664,-2.6505,-2.6116,-2.6031,-2.6607,-2.6573,-2.6539,-2.6674,-2.6691,-2.6691,-2.6691,-2.6691,-2.6691,-2.6691,-2.6691,-2.6691,-2.6691,-2.6691,-2.6691,-2.6691,-2.6691,-2.635,-2.5633,-2.554,-2.5739,-2.6253,-2.5962,-2.6502,-2.7758,-2.7545,-2.7505,-2.557,-2.5552,-2.5882,-2.7433,-2.7914,-2.8621,0.0,0.0,-3.363,-3.6141,-3.6751,-3.7822,-4.1163,-4.1926,-4.2627,-4.4377,-4.4744,-4.454,-4.3776,-4.2884,-4.2067,-4.1384,-4.1869,-4.2942,-4.4699,-4.4855,-4.5226,-4.6085,-4.6241,-4.6298,-4.6275,-4.6153,-4.6095,-4.6087,-4.594,-4.5852,-4.5807,-4.5786,-4.5322,-4.441,-4.4268,-4.3762,-4.29,-4.203,-4.1648,-4.159,-4.0788,-4.0435,-4.0272,-3.8221,-3.7219,-3.6802,-3.4907,-3.4011,-3.3807,-3.3807,-3.3807,-3.3807,-3.3807,-3.3807,-3.3807,-3.3807,-3.333,-3.2711,-3.2619,-3.21,-3.1366,-3.0558,-3.016,-2.9717,-2.8564,-2.8021,-2.7642,-2.7153,-2.6958,-2.6842,-2.6742,-2.6691,-2.6691,-2.6691,-2.6691,-2.6488,-2.5845,-2.6201,-2.659,-2.6691,-2.615,-2.5964,-2.6607,-2.6691,-2.6691,-2.6691,-2.6691,-2.6691,-2.6691,-2.6691,-2.6691,-2.6691,-2.6691,-2.6691,-2.6691,-2.6691,-2.6487,-2.6034,-2.5689,-2.5586,-2.579,-2.5395,-2.5796,-2.6941,-2.6892,-2.7144,-2.5402,-2.6223,0.0,0.0,-2.8418,-2.9799,-3.088,-3.2578,-3.4356,-3.5963,-3.705,-3.8486,-4.0922,-4.1388,-4.2106,0.0,-4.3865,-4.3283,-4.3411,-4.2351,-4.1401,-4.1048,-4.1832,-4.2689,-4.343,-4.3489,-4.386,-4.4719,-4.4797,-4.4797,-4.4797,-4.5209,-4.545,-4.545,-4.5818,-4.5992,-4.5969,-4.5363,-4.481,-4.4349,-4.3263,-4.2524,-4.2068,-4.1207,-4.0797,-4.0788,-4.0454,-4.0301,-4.0158,-3.8203,-3.7332,-3.7028,-3.499,-3.4136,-3.4011,-3.3873,-3.3807,-3.3807,-3.3807,-3.3807,-3.3807,-3.3807,-3.3256,-3.2509,-3.2045,-3.1329,-3.0522,-2.9721,-2.9429,-2.9192,-2.8559,-2.8106,-2.7757,-2.743,-2.712,-2.6893,-2.6842,-2.6758,-2.6691,-2.6691,-2.6691,-2.659,-2.6285,-2.5778,-2.5574,-2.5998,-2.5812,-2.571,-2.6031,-2.6065,-2.6218,-2.664,-2.6691,-2.6691,-2.6691,-2.6691,-2.6691,-2.6691,-2.6691,-2.6691,-2.6691,-2.647,-2.6157,-2.5762,-2.5351,-2.5254,-2.548,-2.5222,-2.5567,-2.6434,-2.6294,-2.6561,-2.5604,0.0,0.0,-2.7441,-2.9031,-3.0656,-3.0888,-3.2532,-3.435,-3.5472,-3.6671,-3.8102,-4.0081,-4.0642,-4.1467,-4.3556,-4.2858,-4.2294,-4.2928,-4.1831,-4.1051,-4.1304,-4.1953,-4.2483,-4.2738,-4.2752,-4.3021,-4.3647,-4.3705,-4.3705,-4.3705,-4.4309,-4.4641,-4.4641,-4.5155,-4.5417,-4.5377,-4.4597,-4.4028,-4.3689,-4.2348,-4.1562,-4.1281,-4.0603,-4.0299,-4.0282,-4.0053,-3.9938,-3.9795,-3.7919,-3.71,-3.6869,-3.5097,-3.4309,-3.4173,-3.3985,-3.3855,-3.3807,-3.3807,-3.3807,-3.3807,-3.3807,-3.3256,-3.2454,-3.1641,-3.0834,-3.0026,-2.9225,-2.8959,-2.8827,-2.8657,-2.8259,-2.7855,-2.7639,-2.7246,-2.6926,-2.6909,-2.6792,-2.6691,-2.6691,-2.6691,-2.6573,-2.6166,-2.5388,-2.4847,-2.4983,-2.5,-2.5067,-2.527,-2.5473,-2.5727,-2.6065,-2.6454,-2.6623,-2.6404,-2.6573,-2.6691,-2.6691,-2.6691,-2.6691,-2.6691,-2.6419,-2.6086,-2.567,-2.5275,-2.5115,-2.5195,-2.4983,-2.5227,-2.5893,-2.5667,-2.5915,0.0,0.0,-2.7131,-2.8818,-2.9921,-3.0791,-3.1579,-3.2488,-3.3629,-3.5356,-3.5742,-3.656,-3.9075,-4.0236,-4.1087,-4.1932,-4.2035,-4.2015,-4.2035,-4.1378,-4.1227,-4.2064,-4.2291,-4.2732,0.0,-4.3659,-4.3666,-4.3705,-4.3705,-4.3705,-4.3705,-4.3725,-4.3744,-4.3744,-4.3762,-4.3702,-4.3582,-4.3475,-4.2942,-4.1964,-4.1798,-4.1289,-4.0532,-4.037,-4.0299,-4.0244,-3.9412,-3.9049,-3.8916,-3.7226,-3.6367,-3.6064,-3.522,-3.4599,-3.4197,-3.4185,-3.4023,-3.3807,-3.3807,-3.3807,-3.3807,-3.3807,-3.3256,-3.2454,-3.1641,-3.0834,-3.0026,-2.9225,-2.8803,-2.8601,-2.8601,-2.8165,-2.7701,-2.7627,-2.7293,-2.6992,-2.6909,-2.6792,-2.6691,-2.6691,-2.6691,-2.6251,-2.4812,-2.5118,-2.5101,-2.368,-2.346,-2.3729,-2.444,-2.5152,-2.5338,-2.4643,-2.5862,-2.6404,-2.5693,-2.6285,-2.6691,-2.6691,-2.6691,-2.6691,-2.6691,-2.6691,-2.6487,-2.6104,-2.5689,-2.5291,-2.4914,-2.4523,-2.4608,-2.5122,-2.5065,-2.5311,0.0,0.0,-2.8567,-2.9147,-2.9959,-3.0675,-3.0946,-3.1637,-3.2391,-3.2996,-3.3571,-3.4601,-3.6618,-3.7657,-3.8876,-4.0868,-4.1203,-4.139,-4.1912,-4.1829,-4.1813,-4.2155,-4.3296,0.0,0.0,0.0,0.0,-4.2845,-4.2298,-4.1968,-4.1968,-4.2513,-4.2845,-4.2845,-4.3391,-4.3679,-4.3624,-4.2981,-4.2453,-4.2022,-4.128,-4.0751,-4.0502,-4.0351,-4.0011,-3.9485,-3.9163,-3.8667,-3.8056,-3.6939,-3.6447,-3.6261,-3.5287,-3.4693,-3.4383,-3.425,-3.4036,-3.3807,-3.3807,-3.3807,-3.3807,-3.3807,-3.3256,-3.2454,-3.1641,-3.0834,-3.0026,-2.9225,-2.8947,-2.8815,-2.8657,-2.8281,-2.7911,-2.7713,-2.7353,-2.7054,-2.7039,-2.6925,-2.6842,-2.6842,-2.6758,-2.6539,-2.6048,-2.5354,-2.4372,-2.2902,-2.3088,-2.3477,-2.3746,-2.4423,-2.4778,-2.4525,-2.5828,-2.6201,-2.4966,-2.5541,-2.5761,-2.5269,-2.5693,-2.5981,-2.5981,-2.6168,-2.6245,-2.6104,-2.5707,-2.5294,-2.4902,-2.4764,-2.4662,-2.4578,-2.4487,-2.4761,-2.746,-2.8451,-2.936,-2.9689,-3.0192,-3.0598,-3.0598,-3.1004,-3.1444,-3.1734,-3.2024,-3.2836,-3.4853,-3.5394,-3.6497,-3.9398,-3.9862,-4.0365,-4.1796,-4.1787,-4.2005,-4.2989,-4.389,-4.4479,0.0,0.0,0.0,-4.2454,-4.1888,-4.142,-4.1129,-4.1635,-4.1947,-4.1947,-4.2474,-4.2768,-4.2768,-4.2156,-4.1762,-4.1595,-4.0899,-4.0381,-4.0041,-3.9944,-3.9442,-3.8631,-3.8272,-3.7787,-3.7215,-3.6385,-3.6042,-3.5976,-3.5292,-3.4851,-3.4622,-3.4394,-3.4154,-3.3934,-3.3829,-3.3807,-3.3752,-3.3458,-3.322,-3.2779,-3.1384,-3.0797,-3.0393,-2.9317,-2.9005,-2.897,-2.8779,-2.8412,-2.8061,-2.7883,-2.7459,-2.7103,-2.7103,-2.7006,-2.6926,-2.6909,-2.6842,-2.6674,-2.6353,-2.5083,-2.3712,-2.2482,-2.2699,-2.3004,-2.3004,-2.3646,-2.4017,-2.3731,-2.5032,-2.5422,-2.422,-2.478,-2.5,-2.4525,-2.4948,-2.5203,-2.5203,-2.5413,-2.5463,-2.5325,-2.5327,-2.513,-2.4716,-2.499,-2.4902,-2.4513,-2.4462,-2.4527,-2.8857,-2.9326,-2.9573,-3.0385,-3.0598,-3.0598,-3.0598,-3.0578,-3.0752,-3.1502,-3.1023,-3.1217,-3.3697,0.0,-3.4248,-3.7535,-3.8212,-3.9185,-4.1603,-4.1329,-4.179,0.0,0.0,0.0,0.0,0.0,0.0,-4.2594,0.0,-4.2045,-4.1207,-4.1129,-4.1109,-4.1109,-4.1109,-4.1109,-4.1109,-4.1025,-4.0898,-4.0706,-4.0661,-4.0119,-3.9196,-3.9149,-3.8629,-3.7712,-3.687,-3.6474,-3.6366,-3.5553,-3.5209,-3.5209,-3.5209,-3.5081,-3.487,-3.4603,-3.4383,-3.4161,-3.3908,-3.382,-3.3678,-3.2913,-3.3146,-3.3293,-3.098,-3.076,-3.0999,-2.9445,-2.9005,-2.9005,-2.9005,-2.857,-2.8129,-2.8129,-2.7622,-2.7117,-2.7117,-2.7071,-2.6975,-2.6926,-2.6909,-2.6621,-2.5744,-2.4441,-2.3241,-2.2465,-2.2347,-2.233,-2.2296,-2.2936,-2.3122,-2.2381,-2.3613,-2.4186,-2.341,-2.4017,-2.4423,-2.4389,-2.4423,-2.444,-2.444,-2.4474,-2.4319,-2.395,-2.463,-2.4788,-2.4394,-2.5112,-2.5243,-2.4863,-2.4799,-2.4569,-2.9153,-2.9766,-3.0327,-3.054,-3.0598,-3.0598,-3.0598,-3.0095,-2.9689,-2.9901,-2.9268,-2.9055,-3.037,0.0,0.0,-3.6091,-3.847,0.0,-4.1009,-4.1448,0.0,-4.3573,0.0,-4.486,-4.5982,-4.5395,0.0,0.0,-4.2777,-4.2298,-4.2084,-4.1439,-4.1109,-4.1109,-4.1109,-4.1109,-4.1109,-4.1025,-4.0926,-4.0771,-4.0064,-3.958,-3.9242,-3.8551,-3.7771,-3.6949,-3.6645,-3.6165,-3.5575,-3.5313,-3.5209,-3.5209,-3.5209,-3.5081,-3.4879,-3.4812,-3.4545,-3.4185,-3.4124,-3.3972,-3.377,-3.3568,-3.3238,-3.2687,-3.1458,-3.0815,-3.0301,-2.928,-2.9005,-2.9005,-2.9005,-2.8743,-2.8469,-2.8469,-2.8014,-2.7552,-2.7552,-2.7291,-2.707,-2.7054,-2.6975,-2.6621,-2.5744,-2.5288,-2.4611,-2.3308,-2.3122,-2.2919,-2.2364,-2.2936,-2.3122,-2.2381,-2.3613,-2.3983,-2.2699,-2.3257,-2.3444,-2.2902,-2.3376,-2.3678,-2.3678,-2.4203,-2.4444,-2.4351,-2.4536,-2.4547,-2.4394,-2.459,-2.4589,-2.4451,-2.4446,-2.4359,-2.9728,-3.023,-3.0598,-3.0598,-3.0598,-3.0501,-3.0114,-2.965,-2.919,-2.8803,-2.8045,0.0,-2.907,-3.1183,0.0,0.0,0.0,0.0,-4.1158,-4.1409,-4.2086,0.0,-4.3716,0.0,-4.4869,-4.4587,-4.4153,0.0,-4.2882,-4.224,-4.1849,-4.1363,-4.1109,-4.1109,-4.1109,-4.1109,-4.1109,-4.0676,-4.0418,-4.0303,-3.9379,-3.868,-3.8234,-3.7642,-3.6918,-3.6135,0.0,-3.5734,-3.5289,-3.525,-3.5234,-3.5234,-3.5209,-3.5124,-3.5019,-3.4803,-3.4559,-3.4253,-3.3704,-3.3626,-3.3733,-3.3385,-3.2981,-3.2381,-3.1219,-3.0558,-3.0026,-2.9225,-2.9005,-2.9005,-2.9005,-2.8791,-2.8601,-2.8601,-2.8233,-2.784,-2.773,-2.7519,-2.7307,-2.7104,-2.6975,-2.6519,-2.532,-2.5118,-2.4611,-2.3139,-2.2919,-2.2784,-2.2347,-2.2651,-2.2767,-2.233,-2.3038,-2.319,-2.2364,-2.2682,-2.275,-2.233,-2.2699,-2.2919,-2.2919,-2.3308,-2.3528,-2.3528,-2.3864,-2.3987,-2.3968,-2.4281,-2.4332,-2.4134,-2.4471,-2.4398,-3.0366,-3.0598,-3.0598,-3.0598,-3.0598,-3.0366,-2.9495,-2.921,-2.8881,-2.801,0.0,-2.7035,-2.8664,-2.9863,-3.1391,-3.3833,0.0,-3.8914,-4.1487,-4.1145,-4.1564,-4.411,-4.3053,-4.2457,-4.3403,-4.3456,-4.3441,-4.3526,-4.2711,-4.195,-4.1304,-4.1168,-4.1051,-4.0934,-4.0934,-4.0875,-4.0777,-4.0015,-3.9605,-3.9529,-3.8591,-3.7705,-3.6897,-3.6665,-3.6135,-3.5412,0.0,0.0,-3.5315,-3.5297,-3.53,-3.5293,-3.5234,-3.5218,-3.5157,-3.4754,-3.4561,-3.4341,-3.3099,-3.3107,-3.3513,-3.2706,-3.2436,-3.2161,-3.0668,-3.0136,-2.9898,-2.9207,-2.9005,-2.9005,-2.9005,-2.8834,-2.8639,-2.8639,-2.8399,-2.8088,-2.7815,-2.7669,-2.7491,-2.7088,-2.6857,-2.6298,-2.4896,-2.4558,-2.4034,-2.2649,-2.2448,-2.2398,-2.2313,-2.2296,-2.2296,-2.2296,-2.2296,-2.2296,-2.2296,-2.2296,-2.2296,-2.2296,-2.2296,-2.2296,-2.2296,-2.2296,-2.2296,-2.2296,-2.2936,-2.3294,-2.3319,-2.3958,-2.4108,-2.3852,-2.451,-2.4466,-3.0521,-3.0598,-3.0598,-3.0598,-3.0598,-3.0366,-2.9495,-2.8745,0.0,0.0,-2.6281,-2.599,-2.6977,-2.905,-3.1197,-3.303,0.0,0.0,0.0,0.0,-4.0681,0.0,0.0,0.0,0.0,0.0,0.0,0.0,0.0,0.0,-4.2142,-4.1498,-4.0777,-4.0054,-4.0034,-3.9702,-3.904,-3.8884,-3.8746,-3.8611,-3.7725,-3.7164,-3.6864,-3.6126,-3.5688,-3.5486,0.0,0.0,-3.5372,-3.5315,-3.53,-3.5293,-3.5293,-3.5277,-3.5269,-3.5132,-3.4832,-3.4366,-3.3484,-3.3022,-3.2674,-3.1861,-3.1604,-3.1421,-3.0485,-2.9739,-2.9189,-2.9042,-2.9005,-2.9005,-2.9005,-2.897,-2.8929,-2.8929,-2.8718,-2.843,-2.8088,-2.7592,-2.7166,-2.7024,-2.6414,-2.5791,-2.5472,-2.4898,-2.4203,-2.3342,-2.3207,-2.2987,-2.2381,-2.2296,-2.2296,-2.2296,-2.2296,-2.2296,-2.2296,-2.2296,-2.2296,-2.2296,-2.2296,-2.2296,-2.2296,-2.2296,-2.2296,-2.2296,-2.2431,-2.2639,-2.2905,-2.3021,-2.321,-2.3415,-2.3818,-2.3929,-3.0443,-3.0598,-3.0598,-3.0598,-3.0269,-2.9689,-2.8823,0.0,0.0,0.0,-2.5778,-2.5758,-2.6551,-2.8833,0.0,-3.1676,0.0,0.0,0.0,0.0,0.0,0.0,0.0,0.0,0.0,0.0,0.0,0.0,0.0,0.0,-4.1695,-4.0893,-4.0229,-3.9819,-3.939,-3.8982,-3.8591,-3.8142,-3.7899,-3.7817,-3.6916,-3.64,-3.6266,-3.5808,-3.5558,-3.55,0.0,0.0,-3.5453,-3.5372,-3.5357,-3.535,-3.5316,-3.5312,-3.5277,-3.5117,-3.4889,-3.4504,-3.3026,-3.2653,-3.2508,-3.0735,-3.043,-3.0705,-3.032,-2.9629,-2.9005,-2.9005,-2.9005,-2.9005,-2.9005,-2.9005,-2.9005,-2.9005,-2.881,-2.8507,-2.817,-2.7739,-2.7338,-2.7086,-2.6375,-2.5649,-2.5163,-2.4438,-2.3678,-2.2936,-2.2835,-2.2699,-2.2361,-2.2296,-2.2296,-2.2296,-2.2296,-2.2296,-2.2296,-2.2296,-2.2296,-2.2296,-2.2296,-2.2296,-2.2296,-2.2296,-2.2296,-2.2296,-2.2296,-2.238,-2.2538,-2.2538,-2.2632,-2.2794,-2.3342,-2.3485,-3.0057,-3.0327,-3.0327,-3.0327,-2.9805,-2.9074,-2.8204,-2.7329,0.0,0.0,-2.5507,-2.5797,-2.6803,0.0,-3.0211,0.0,-3.3267,0.0,0.0,0.0,0.0,0.0,0.0,0.0,0.0,0.0,0.0,0.0,0.0,0.0,-4.0818,-4.0171,-3.9644,-3.9273,-3.865,-3.824,-3.8045,-3.736,-3.7028,-3.7009,-3.6276,-3.5855,-3.5741,-3.565,-3.5579,-3.5528,0.0,0.0,0.0,-3.5446,-3.542,-3.5412,-3.5331,-3.53,-3.5258,-3.5046,-3.4945,-3.4623,-3.2608,-3.2284,-3.2335,-2.9883,-2.9584,-3.0173,-3.0008,-2.95,-2.9005,-2.9005,-2.9005,-2.9005,-2.9005,-2.9005,-2.9005,-2.9005,-2.881,-2.8538,-2.825,-2.7926,-2.7597,-2.7276,-2.6364,-2.5436,-2.4745,-2.382,-2.2999,-2.2409,-2.231,-2.2296,-2.2296,-2.2296,-2.2296,-2.2296,-2.2296,-2.2296,-2.2296,-2.2296,-2.2296,-2.2296,-2.2296,-2.2296,-2.2296,-2.2296,-2.2296,-2.2296,-2.2296,-2.2296,-2.2296,-2.2296,-2.2296,-2.2313,-2.2967,-2.3106,-2.9153,-2.9422,-2.9422,-2.9422,-2.9364,-2.9074,-2.8204,0.0,0.0,-2.5662,-2.5507,-2.5994,-2.7585,-2.8088,-2.8997,0.0,0.0,0.0,0.0,0.0,0.0,0.0,0.0,0.0,0.0,0.0,0.0,0.0,0.0,0.0,0.0,-3.9839,-3.9097,-3.7575,-3.7458,-3.7048,-3.6246,-3.6168,-3.6129,-3.6129,-3.6028,-3.5949,-3.5878,-3.5745,-3.5655,-3.5585,0.0,0.0,0.0,-3.5493,-3.5493,-3.5486,-3.5357,-3.53,-3.5293,-3.5198,-3.5063,-3.4661,-3.2929,-3.2153,-3.163,-2.9858,-2.9695,-3.0063,-2.9335,-2.906,-2.9005,-2.9005,-2.9005,-2.9005,-2.9005,-2.9005,-2.9005,-2.9005,-2.881,-2.8589,-2.8563,-2.8069,-2.7612,-2.7567,-2.6085,-2.4787,-2.4703,-2.3468,-2.2476,-2.2408,-2.2338,-2.2296,-2.2296,-2.2296,-2.2296,-2.2296,-2.2296,-2.2296,-2.2296,-2.2296,-2.2296,-2.2296,-2.2296,-2.2296,-2.2296,-2.2296,-2.2296,-2.2296,-2.2296,-2.2296,-2.2296,-2.2296,-2.2296,-2.2313,-2.268,-2.2843,-2.9004,-2.9661,-3.0075,-3.0075,-2.9287,-2.8436,-2.8088,0.0,-2.5894,-2.5565,-2.5507,-2.6014,-2.7681,-2.7991,-2.8687,0.0,-3.1371,-3.2783,-3.6207,0.0,0.0,0.0,0.0,0.0,0.0,0.0,0.0,0.0,0.0,0.0,0.0,-3.8297,-3.7985,-3.7321,-3.6794,-3.609,-3.5232,-3.5213,-3.5213,-3.5213,-3.5213,-3.5469,-3.5908,-3.5843,-3.5741,-3.5607,0.0,0.0,0.0,-3.493,-3.4718,-3.4654,-3.408,-3.3848,-3.3841,-3.3781,-3.3704,-3.344,-3.2125,-3.1569,-3.1205,-2.9768,-2.9453,-2.9577,-2.9125,-2.9005,-2.9005,-2.9005,-2.9005,-2.9005,-2.9005,-2.9005,-2.9005,-2.9005,-2.8551,-2.822,-2.8535,-2.7494,-2.6604,-2.6943,-2.5429,-2.4093,-2.4093,-2.3156,-2.2391,-2.2391,-2.2352,-2.2296,-2.2296,-2.2296,-2.2296,-2.2296,-2.2296,-2.2296,-2.2296,-2.2296,-2.2296,-2.2296,-2.2296,-2.2296,-2.2296,-2.2296,-2.2296,-2.2296,-2.2296,-2.2296,-2.2296,-2.2296,-2.2296,-2.2296,-2.244,-2.2499,-2.8496,-2.9308,-2.9882,-3.0153,-2.9093,-2.7991,0.0,-2.6691,-2.5507,-2.5507,-2.5681,-2.6285,-2.7739,-2.8204,-2.8881,0.0,-3.1023,-3.2358,-3.5298,-3.6129,0.0,0.0,0.0,0.0,0.0,0.0,0.0,0.0,0.0,0.0,0.0,-3.6897,-3.6911,-3.6911,-3.6324,-3.5582,-3.4705,-3.4705,-3.4569,-3.4315,-3.4315,-3.4615,-3.5151,-3.5134,-3.5058,0.0,0.0,0.0,0.0,-3.4084,-3.3821,-3.3757,-3.314,-3.2897,-3.289,-3.2821,-3.28,-3.2663,-3.1641,-3.1249,-3.1006,-2.9785,-2.9355,-2.9251,-2.9055,-2.9005,-2.9005,-2.9005,-2.9005,-2.9005,-2.9005,-2.9005,-2.9005,-2.9005,-2.8393,-2.7889,-2.8294,-2.7079,-2.6004,-2.6313,-2.4989,-2.3815,-2.3732,-2.3007,-2.2432,-2.2432,-2.2366,-2.2296,-2.2296,-2.2296,-2.2296,-2.2296,-2.2296,-2.2296,-2.2296,-2.2296,-2.2296,-2.2296,-2.2296,-2.2296,-2.2296,-2.2296,-2.2296,-2.2296,-2.2296,-2.2296,-2.2296,-2.2296,-2.2296,-2.2296,-2.2296,-2.2429,-2.7421,-2.7976,-2.8223,-2.9093,-2.8649,-2.7991,0.0,-2.6691,-2.5507,-2.5507,-2.6126,-2.6957,-2.7836,-2.8707,-2.9573,-3.0462,-3.1985,-3.3687,-3.5452,-3.7135,0.0,0.0,0.0,0.0,0.0,0.0,0.0,0.0,0.0,0.0,0.0,-3.5989,-3.6012,-3.6012,-3.5992,-3.5582,-3.4705,-3.4705,-3.4276,-3.3416,-3.3416,-3.3416,-3.3414,-3.3356,0.0,0.0,0.0,0.0,0.0,-3.294,-3.291,-3.2904,-3.2891,-3.2897,-3.289,-3.2811,-3.2797,-3.2682,-3.1804,-3.1363,-3.101,-2.9944,-2.9465,-2.9251,-2.9055,-2.9005,-2.9005,-2.9005,-2.9005,-2.9005,-2.9005,-2.9005,-2.9005,-2.9005,-2.8393,-2.7798,-2.7805,-2.6964,-2.6123,-2.5856,-2.4938,-2.4112,-2.3843,-2.3076,-2.2501,-2.2501,-2.2394,-2.2296,-2.2296,-2.2296,-2.2296,-2.2296,-2.2296,-2.2296,-2.2296,-2.2296,-2.2296,-2.2296,-2.2296,-2.2296,-2.2296,-2.2296,-2.2296,-2.2296,-2.2296,-2.2296,-2.2296,-2.2296,-2.2296,-2.2296,-2.2296,-2.2699,-2.6838,-2.7493,-2.8068,-2.8339,-2.7755,-2.7112,-2.7112,-2.6281,-2.5662,-2.6203,-2.6513,-2.7151,-2.8625,-2.9113,-2.9959,-3.1985,0.0,0.0,0.0,0.0,0.0,0.0,0.0,0.0,0.0,0.0,0.0,0.0,0.0,0.0,0.0,0.0,-3.5999,-3.5992,-3.5428,-3.4686,-3.3826,-3.3222,-3.2773,-3.2519,-3.2519,-3.2812,-3.3396,-3.3386,0.0,0.0,0.0,0.0,0.0,-3.2324,-3.2083,-3.2025,-3.1411,-3.1199,-3.1174,-3.1124,-3.1092,-3.1053,-3.0784,-3.0609,-3.0418,-2.9844,-2.9598,-2.9445,-2.9093,-2.9005,-2.9005,-2.9005,-2.9005,-2.9005,-2.9005,-2.9005,-2.9005,-2.9005,-2.8393,-2.7798,-2.7798,-2.653,-2.5355,-2.5269,-2.4384,-2.3589,-2.3352,-2.302,-2.2721,-2.2542,-2.2394,-2.2296,-2.2296,-2.2296,-2.2296,-2.2296,-2.2296,-2.2296,-2.2296,-2.2296,-2.2296,-2.2296,-2.2296,-2.2296,-2.2296,-2.2296,-2.2296,-2.2296,-2.2296,-2.2296,-2.2296,-2.2296,-2.2296,-2.2296,-2.2296,-2.2699,-2.6506,-2.7049,-2.758,-2.7914,-2.7348,-2.6702,-2.6702,-2.6319,-2.6087,-2.6605,-2.7228,-2.8006,-2.9089,-2.9573,-3.0308,-3.1908,-3.2681,0.0,0.0,0.0,0.0,0.0,0.0,0.0,0.0,0.0,0.0,0.0,0.0,0.0,0.0,0.0,-3.5814,-3.5529,-3.498,-3.4276,-3.3416,-3.2539,-3.1934,-3.1602,-3.1602,-3.207,-3.291,0.0,0.0,0.0,0.0,0.0,0.0,-3.1481,-3.1243,-3.1185,-3.0614,-3.0404,-3.0379,-3.0348,-3.0342,-3.0336,-3.0305,-3.0273,-3.0195,-2.9875,-2.9644,-2.9425,-2.9112,-2.9005,-2.9005,-2.9005,-2.9005,-2.9005,-2.9005,-2.9005,-2.8932,-2.862,-2.7934,-2.7255,-2.6972,-2.5737,-2.4631,-2.445,-2.3862,-2.3306,-2.3003,-2.2863,-2.2734,-2.2552,-2.2419,-2.2338,-2.2338,-2.2324,-2.2296,-2.2296,-2.2296,-2.2296,-2.2296,-2.2296,-2.2296,-2.2296,-2.2296,-2.2296,-2.2296,-2.2296,-2.2296,-2.2296,-2.2296,-2.2296,-2.2296,-2.2296,-2.2296,-2.2296,-2.2296,-2.2547,0.0,-2.6562,-2.6803,-2.7623,-2.7213,-2.6605,-2.6605,-2.6605,0.0,-2.6764,-2.8083,-2.9268,-2.9437,-3.0133,-3.0752,-3.0926,0.0,0.0,0.0,0.0,0.0,0.0,0.0,0.0,0.0,0.0,0.0,0.0,0.0,0.0,0.0,0.0,0.0,-3.4717,-3.4574,-3.4139,-3.3318,-3.2441,-3.1602,-3.08,-3.08,-3.1211,-3.1973,0.0,0.0,0.0,0.0,0.0,0.0,-3.056,-3.0501,-3.0487,-3.0431,-3.0404,-3.0404,-3.0404,-3.0404,-3.0398,-3.0336,-3.031,-3.0254,-2.9973,-2.9625,-2.9251,-2.9055,-2.9005,-2.9005,-2.9005,-2.9005,-2.9005,-2.9005,-2.8968,-2.873,-2.797,-2.7181,-2.6374,-2.5576,-2.4805,-2.4119,-2.3555,-2.3466,-2.3306,-2.282,-2.2681,-2.2646,-2.2623,-2.2487,-2.2422,-2.2422,-2.2352,-2.231,-2.231,-2.231,-2.2296,-2.2296,-2.2296,-2.2296,-2.2296,-2.2296,-2.2296,-2.2296,-2.2296,-2.2296,-2.2296,-2.2296,-2.2296,-2.2296,-2.2296,-2.2296,-2.2296,-2.2296,-2.2296,-2.5633,0.0,-2.5836,-2.6033,-2.5932,-2.5778,0.0,-2.5778,-2.6145,-2.7426,-2.803,-2.89,-3.0849,-3.1386,-3.2164,-3.4176,0.0,0.0,0.0,0.0,0.0,0.0,0.0,0.0,0.0,0.0,0.0,0.0,0.0,0.0,0.0,0.0,0.0,-3.4629,-3.3374,-3.2601,-3.2402,-3.1543,-3.0995,-3.08,-3.08,-3.0917,-3.1094,0.0,0.0,0.0,0.0,0.0,-3.0682,-3.056,-3.0501,-3.0487,-3.0431,-3.0404,-3.0404,-3.0404,-3.0404,-3.0404,-3.0379,-3.0342,-3.0235,-2.9867,-2.9542,-2.9251,-2.9055,-2.9005,-2.9005,-2.9005,-2.9005,-2.9005,-2.9005,-2.8528,-2.8026,-2.7842,-2.7181,-2.6374,-2.5576,-2.5246,-2.4904,-2.4164,-2.4006,-2.3855,-2.3329,-2.3189,-2.3025,-2.2642,-2.2542,-2.2474,-2.2474,-2.2419,-2.238,-2.238,-2.2338,-2.2296,-2.2296,-2.2296,-2.2296,-2.2296,-2.2296,-2.2296,-2.2296,-2.2296,-2.2296,-2.2296,-2.2296,-2.2296,-2.2296,-2.2296,-2.2296,-2.2296,-2.2296,-2.2296,-2.5426,-2.572,-2.604,-2.6015,-2.6028,-2.6165,-2.6555,-2.6343,-2.6532,-2.8242,0.0,-2.9244,-3.1405,-3.1792,0.0,0.0,0.0,0.0,0.0,0.0,0.0,0.0,0.0,0.0,0.0,0.0,0.0,0.0,0.0,0.0,0.0,0.0,0.0,0.0,-3.2578,-3.2103,-3.2091,-3.1231,-3.08,-3.08,-3.08,-3.1015,-3.1387,0.0,0.0,0.0,0.0,0.0,-3.0734,-3.063,-3.0564,-3.0535,-3.0472,-3.0436,-3.0404,-3.0404,-3.0404,-3.0404,-3.0404,-3.0355,-3.0241,-2.995,-2.9653,-2.9405,-2.9195,-2.9078,-2.9005,-2.9005,-2.9005,-2.8913,-2.8546,-2.8136,-2.7614,-2.688,-2.6366,-2.5823,-2.5026,-2.4842,-2.4684,-2.4127,-2.4016,-2.3886,-2.3459,-2.3369,-2.3236,-2.2876,-2.2777,-2.2672,-2.2528,-2.2432,-2.2377,-2.2366,-2.2324,-2.2296,-2.2296,-2.2296,-2.2296,-2.2296,-2.2296,-2.2296,-2.2296,-2.2296,-2.2296,-2.2296,-2.2296,-2.2296,-2.2296,-2.2296,-2.2296,-2.2296,-2.2296,-2.2296,-2.5561,-2.6207,-2.6822,-2.6627,-2.6631,-2.6869,-2.7608,0.0,0.0,0.0,0.0,0.0,-3.1637,-3.2005,0.0,0.0,0.0,0.0,0.0,0.0,0.0,0.0,0.0,0.0,0.0,0.0,0.0,0.0,0.0,0.0,0.0,0.0,0.0,0.0,-3.1968,-3.1914,-3.1916,-3.1172,-3.08,-3.08,-3.08,-3.1192,-3.1875,-3.1133,0.0,0.0,0.0,0.0,-3.0798,-3.072,-3.0647,-3.0586,-3.05,-3.0455,-3.0404,-3.0404,-3.0404,-3.0404,-3.0404,-3.0368,-3.0273,-3.0071,-2.9842,-2.9598,-2.9375,-2.91,-2.8849,-2.8833,-2.8822,-2.8656,-2.797,-2.7633,-2.71,-2.5723,-2.5301,-2.5026,-2.4337,-2.419,-2.4123,-2.3907,-2.3847,-2.3785,-2.3511,-2.3448,-2.3387,-2.3182,-2.3102,-2.2952,-2.2632,-2.2525,-2.2446,-2.2338,-2.2324,-2.231,-2.2296,-2.2296,-2.2296,-2.2296,-2.2296,-2.2296,-2.2296,-2.2296,-2.2296,-2.2296,-2.2296,-2.2296,-2.2296,-2.2296,-2.2296,-2.2296,-2.2296,-2.2296,-2.6249,-2.7017,-2.7458,-2.6702,-2.6518,-2.6568,-2.6702,-2.6055,0.0,0.0,0.0,0.0,0.0,-3.2894,-3.3436,0.0,0.0,0.0,0.0,0.0,0.0,0.0,0.0,0.0,0.0,0.0,0.0,0.0,0.0,0.0,0.0,0.0,0.0,0.0,0.0,-3.1034,-3.1082,-3.0901,-3.08,-3.08,-3.08,-3.0878,-3.0995,-3.0859,-3.0878,0.0,0.0,-3.08,-3.0796,-3.0661,-3.0607,-3.0579,-3.0462,-3.0402,-3.0404,-3.0404,-3.0404,-3.0404,-3.0404,-3.0361,-3.0273,-3.0078,-2.9927,-2.9771,-2.9416,-2.879,-2.8209,-2.8026,-2.797,-2.7952,-2.7835,-2.6788,-2.5705,-2.5448,-2.4879,-2.4355,-2.4226,-2.419,-2.418,-2.4151,-2.4141,-2.4046,-2.3785,-2.3735,-2.3649,-2.3387,-2.3352,-2.3265,-2.3028,-2.2957,-2.2803,-2.2501,-2.2419,-2.2366,-2.231,-2.2296,-2.2296,-2.2296,-2.2296,-2.2296,-2.2296,-2.2296,-2.2296,-2.2296,-2.2296,-2.2296,-2.2296,-2.2296,-2.2296,-2.2296,-2.2296,-2.2296,-2.5869,-2.6486,-2.7044,-2.7084,-2.7484,-2.7971,-2.8456,-2.7518,0.0,0.0,0.0,0.0,0.0,0.0,0.0,0.0,0.0,0.0,0.0,0.0,0.0,0.0,0.0,0.0,0.0,0.0,0.0,0.0,0.0,0.0,0.0,0.0,0.0,0.0,0.0,-3.0785,-3.0859,-3.0853,-3.0844,-3.08,-3.08,-3.08,-3.08,-3.08,-3.08,-3.08,0.0,-3.08,-3.0799,-3.0728,-3.0678,-3.0586,-3.0527,-3.0462,-3.0404,-3.0404,-3.0404,-3.0404,-3.0404,-3.0367,-3.0273,-3.0196,-3.0032,-2.9872,-2.9668,-2.9298,-2.8772,-2.8135,-2.7572,-2.7053,-2.6623,-2.5944,-2.5283,-2.486,-2.4475,-2.419,-2.419,-2.419,-2.419,-2.419,-2.419,-2.4161,-2.4044,-2.4016,-2.3927,-2.366,-2.3628,-2.3529,-2.3242,-2.3084,-2.2927,-2.2734,-2.2565,-2.2432,-2.2405,-2.2363,-2.2338,-2.2296,-2.2296,-2.2296,-2.2296,-2.2296,-2.2296,-2.2296,-2.2296,-2.2296,-2.2296,-2.2296,-2.2296,-2.2296,-2.2296,-2.2296,-2.5642,-2.6046,-2.66,-2.7412,-2.8007,-2.8683,-2.9947,-2.89,-2.8205,0.0,0.0,0.0,0.0,0.0,0.0,0.0,0.0,0.0,0.0,0.0,0.0,0.0,0.0,0.0,0.0,0.0,0.0,0.0,0.0,0.0,0.0,0.0,0.0,0.0,0.0,0.0,-3.081,-3.0859,-3.0853,-3.0822,-3.0801,-3.08,-3.08,-3.08,-3.08,-3.08,-3.08,-3.08,-3.08,-3.0774,-3.0717,-3.0617,-3.0582,-3.0506,-3.0404,-3.0404,-3.0404,-3.0404,-3.0404,-3.0373,-3.0316,-3.031,-3.0157,-2.9943,-2.9699,-2.9374,-2.8892,-2.781,-2.6817,-2.5976,-2.5513,-2.5264,-2.4952,-2.4337,-2.419,-2.419,-2.419,-2.419,-2.419,-2.419,-2.419,-2.419,-2.419,-2.419,-2.4141,-2.3917,-2.3896,-2.3785,-2.3448,-2.3218,-2.3047,-2.2935,-2.2681,-2.2515,-2.2501,-2.2432,-2.2394,-2.2324,-2.231,-2.2296,-2.2296,-2.2296,-2.2296,-2.2296,-2.2296,-2.2296,-2.2296,-2.2296,-2.2296,-2.2296,-2.2296,-2.2296,-2.6392,-2.65,-2.6606,-2.7485,-2.7095,-2.711,-2.9486,-2.8715,0.0,-3.078,0.0,0.0,0.0,0.0,0.0,0.0,0.0,0.0,0.0,0.0,0.0,0.0,0.0,0.0,0.0,0.0,0.0,0.0,0.0,0.0,0.0,0.0,0.0,0.0,0.0,0.0,-3.081,-3.0792,-3.0839,-3.0888,-3.0823,-3.08,-3.08,-3.08,-3.08,-3.08,-3.08,-3.08,-3.0799,-3.073,-3.0691,-3.0675,-3.056,-3.0462,-3.0404,-3.0404,-3.0404,-3.0404,-3.0404,-3.0404,-3.0379,-3.0316,-3.0298,-3.0094,-2.9086,-2.8259,-2.7388,-2.6132,-2.5189,-2.4689,-2.524,-2.4842,-2.4263,-2.4208,-2.419,-2.419,-2.419,-2.419,-2.419,-2.419,-2.419,-2.419,-2.419,-2.419,-2.419,-2.417,-2.417,-2.4074,-2.3795,-2.3533,-2.3271,-2.3028,-2.2751,-2.2582,-2.2515,-2.2432,-2.2391,-2.2391,-2.2338,-2.2296,-2.2296,-2.2296,-2.2296,-2.2296,-2.2296,-2.2296,-2.2296,-2.2296,-2.2296,-2.2296,-2.2296,-2.2296,-2.5797,-2.614,-2.6479,-2.6803,-2.6613,0.0,0.0,-2.9574,-3.0086,-3.1129,-3.214,0.0,0.0,0.0,0.0,0.0,0.0,0.0,0.0,0.0,0.0,0.0,0.0,0.0,0.0,0.0,0.0,0.0,0.0,0.0,0.0,0.0,0.0,0.0,0.0,0.0,0.0,-3.0782,-3.0838,-3.0894,-3.0869,-3.0865,-3.0865,-3.0822,-3.08,-3.08,-3.08,-3.08,-3.08,-3.077,-3.0734,-3.0699,-3.0556,-3.0451,-3.0404,-3.0404,-3.0404,-3.0404,-3.0404,-3.0404,-3.0404,-3.0373,-3.0342,-3.0119,-2.9174,-2.8676,-2.806,-2.6298,-2.5564,-2.5225,-2.4763,-2.4438,-2.419,-2.419,-2.419,-2.419,-2.419,-2.419,-2.419,-2.419,-2.419,-2.419,-2.419,-2.419,-2.419,-2.419,-2.419,-2.4161,-2.4064,-2.3816,-2.3606,-2.3513,-2.3145,-2.2876,-2.2816,-2.2609,-2.2446,-2.2391,-2.2338,-2.2296,-2.2296,-2.2296,-2.2296,-2.2296,-2.2296,-2.2296,-2.2296,-2.2296,-2.2296,-2.2296,-2.2296,-2.2296,-2.5816,-2.6101,-2.646,-2.6746,0.0,0.0,-2.8521,-2.9707,-3.0671,-3.1542,-3.2572,0.0,0.0,0.0,0.0,0.0,0.0,0.0,0.0,0.0,0.0,0.0,0.0,0.0,0.0,0.0,0.0,0.0,0.0,0.0,0.0,0.0,0.0,0.0,0.0,0.0,0.0,-3.0739,-3.0809,-3.0879,-3.0896,-3.089,-3.0907,-3.0823,-3.08,-3.08,-3.08,-3.08,-3.08,-3.08,-3.0764,-3.0682,-3.0583,-3.0487,-3.0436,-3.0416,-3.0404,-3.0404,-3.0404,-3.0404,-3.0346,-3.0077,-2.9956,-2.9702,-2.8566,-2.821,-2.7835,-2.6083,-2.5559,-2.5335,-2.4478,-2.4219,-2.419,-2.419,-2.419,-2.419,-2.419,-2.419,-2.419,-2.419,-2.419,-2.419,-2.419,-2.419,-2.419,-2.419,-2.419,-2.419,-2.419,-2.3976,-2.3774,-2.3682,-2.3399,-2.3182,-2.3128,-2.2838,-2.2632,-2.2579,-2.2446,-2.2352,-2.2296,-2.2296,-2.2296,-2.2296,-2.2296,-2.2296,-2.2296,-2.2296,-2.2296,-2.2296,-2.2296,-2.2296,-2.6683,-2.6544,-2.6612,-2.7472,0.0,0.0,-2.8516,-2.8855,-2.954,-3.2088,0.0,-3.2212,0.0,0.0,0.0,0.0,0.0,0.0,0.0,0.0,0.0,0.0,0.0,0.0,0.0,0.0,0.0,0.0,0.0,0.0,0.0,0.0,0.0,0.0,0.0,0.0,0.0,-3.0661,-3.073,-3.08,-3.0878,-3.0895,-3.0907,-3.0823,-3.08,-3.08,-3.08,-3.08,-3.08,-3.08,-3.0744,-3.0665,-3.0604,-3.0544,-3.0467,-3.0392,-3.0385,-3.0385,-3.0385,-3.0385,-3.0231,-2.9371,-2.9088,-2.875,-2.7023,-2.6507,-2.6276,-2.5196,-2.4797,-2.4668,-2.4449,-2.4293,-2.4199,-2.419,-2.419,-2.419,-2.419,-2.419,-2.419,-2.419,-2.419,-2.419,-2.419,-2.419,-2.419,-2.419,-2.419,-2.419,-2.419,-2.3976,-2.3703,-2.3444,-2.3403,-2.3403,-2.3403,-2.3152,-2.299,-2.3008,-2.2685,-2.2446,-2.231,-2.2296,-2.2296,-2.2296,-2.2296,-2.2296,-2.2296,-2.2296,-2.2296,-2.2296,-2.2296,-2.2296,-2.5968,-2.6111,0.0,-2.6732,0.0,0.0,0.0,-2.9792,0.0,0.0,0.0,0.0,0.0,0.0,0.0,0.0,0.0,0.0,0.0,0.0,0.0,0.0,0.0,0.0,0.0,0.0,0.0,0.0,0.0,0.0,0.0,0.0,0.0,0.0,0.0,0.0,0.0,0.0,-3.0659,-3.0728,-3.0749,-3.0814,-3.0892,-3.0888,-3.0844,-3.08,-3.08,-3.08,-3.08,-3.08,-3.006,-2.9004,-2.9596,-2.9385,-2.8732,-2.8719,-2.8685,-2.864,-2.864,-2.864,-2.8602,-2.8338,-2.8261,-2.8038,-2.6869,-2.6507,-2.6276,-2.5196,-2.4874,-2.4804,-2.4657,-2.4578,-2.4488,-2.4256,-2.419,-2.419,-2.419,-2.419,-2.419,-2.419,-2.419,-2.419,-2.419,-2.419,-2.419,-2.419,-2.419,-2.419,-2.419,-2.4141,-2.4054,-2.3976,-2.3795,-2.3682,-2.3682,-2.3387,-2.3146,-2.3003,-2.2863,-2.2681,-2.2446,-2.2432,-2.2432,-2.2432,-2.2391,-2.2391,-2.2432,-2.2352,-2.2324,-2.238,-2.2324,-2.2324,-2.6471,-2.6708,0.0,-2.7752,-2.8045,-2.8306,-2.8796,0.0,0.0,0.0,0.0,0.0,0.0,0.0,0.0,0.0,0.0,0.0,0.0,0.0,0.0,0.0,0.0,0.0,0.0,0.0,0.0,0.0,0.0,0.0,0.0,0.0,0.0,0.0,0.0,0.0,0.0,0.0,0.0,-3.0656,-3.0336,-3.0222,-3.031,-3.0683,-3.0853,-3.0824,-3.0471,-3.0313,-3.0294,-2.9943,-2.9189,-2.8289,-2.8799,-2.8616,-2.8066,-2.8023,-2.7961,-2.7947,-2.7906,-2.7895,-2.7838,-2.7505,-2.7371,-2.7212,-2.6304,-2.602,-2.5883,-2.522,-2.4981,-2.4921,-2.4849,-2.4768,-2.4637,-2.4348,-2.4275,-2.4257,-2.4209,-2.419,-2.419,-2.419,-2.419,-2.419,-2.419,-2.419,-2.419,-2.419,-2.419,-2.419,-2.419,-2.419,-2.419,-2.419,-2.4064,-2.3966,-2.3966,-2.3682,-2.3398,-2.3176,-2.3047,-2.2863,-2.2579,-2.2542,-2.2501,-2.2501,-2.246,-2.246,-2.2501,-2.2419,-2.2391,-2.2432,-2.2391,-2.2394,-2.7612,-2.7697,-2.7978,-2.9589,-2.9389,0.0,-2.8796,-2.9395,-2.9949,0.0,0.0,0.0,0.0,0.0,0.0,0.0,0.0,0.0,0.0,0.0,0.0,0.0,0.0,0.0,0.0,0.0,0.0,0.0,0.0,0.0,0.0,0.0,0.0,0.0,0.0,0.0,0.0,0.0,0.0,0.0,-2.9736,-2.9342,-2.9303,-3.0166,-3.0605,-3.0614,-2.9829,-2.9436,-2.9319,-2.8596,-2.8205,-2.8065,-2.8072,-2.8033,-2.796,-2.7822,-2.7778,-2.7752,-2.7686,-2.767,-2.7525,-2.6736,-2.6486,-2.6327,-2.5547,-2.5311,-2.5287,-2.5217,-2.5111,-2.5019,-2.5012,-2.4891,-2.4689,-2.4485,-2.4424,-2.4391,-2.4247,-2.4218,-2.4218,-2.4199,-2.419,-2.419,-2.419,-2.419,-2.419,-2.419,-2.419,-2.419,-2.419,-2.419,-2.419,-2.419,-2.419,-2.419,-2.419,-2.3986,-2.3714,-2.3448,-2.3259,-2.304,-2.2773,-2.2605,-2.2528,-2.2528,-2.2515,-2.2515,-2.2528,-2.2501,-2.2501,-2.2501,-2.2487,-2.2446,-2.7013,-2.649,0.0,0.0,-2.8146,-2.7962,-2.7962,-2.8103,-2.823,0.0,0.0,0.0,0.0,0.0,0.0,0.0,0.0,0.0,0.0,0.0,0.0,0.0,0.0,0.0,0.0,0.0,0.0,0.0,0.0,0.0,0.0,0.0,0.0,0.0,0.0,0.0,-3.0598,-3.0601,-3.0262,0.0,-2.9392,-2.8992,-2.8399,-2.8633,-2.8808,-2.8852,-2.8654,-2.8186,-2.7601,-2.8108,-2.7483,-2.6331,-2.7009,-2.6817,-2.6162,-2.6121,-2.6052,-2.5967,-2.5947,-2.5894,-2.5827,-2.5635,-2.5577,-2.5534,-2.5355,-2.5311,-2.5287,-2.5217,-2.519,-2.5162,-2.5159,-2.513,-2.5013,-2.4712,-2.4634,-2.4586,-2.4391,-2.4355,-2.433,-2.4228,-2.419,-2.419,-2.419,-2.419,-2.419,-2.419,-2.419,-2.419,-2.419,-2.419,-2.419,-2.419,-2.419,-2.419,-2.419,-2.4151,-2.3996,-2.3724,-2.3678,-2.3529,-2.3259,-2.2871,-2.2659,-2.2659,-2.2623,-2.2592,-2.2659,-2.2501,-2.2446,-2.2501,-2.2377,-2.2349,-2.6717,0.0,0.0,-2.7467,0.0,-2.7587,-2.7166,-2.7396,0.0,0.0,0.0,0.0,0.0,0.0,0.0,0.0,0.0,0.0,0.0,0.0,0.0,0.0,0.0,0.0,0.0,0.0,0.0,0.0,0.0,0.0,0.0,0.0,0.0,0.0,-3.0385,0.0,-2.9979,-2.9979,-2.9534,-2.8668,-2.8257,-2.7629,-2.6882,-2.7791,-2.8222,-2.8238,-2.7839,-2.7426,-2.6996,-2.7034,-2.6527,-2.5746,-2.6196,-2.6071,-2.5645,-2.5607,-2.5569,-2.5489,-2.5418,-2.5382,-2.533,-2.5303,-2.5308,-2.5303,-2.5293,-2.5307,-2.5283,-2.5253,-2.5257,-2.5247,-2.5255,-2.522,-2.5151,-2.498,-2.4816,-2.4637,-2.4356,-2.4293,-2.4284,-2.4209,-2.419,-2.419,-2.419,-2.419,-2.419,-2.419,-2.419,-2.419,-2.419,-2.419,-2.419,-2.419,-2.419,-2.419,-2.419,-2.419,-2.4084,-2.3816,-2.3806,-2.3682,-2.3403,-2.3182,-2.298,-2.2889,-2.2855,-2.2803,-2.2699,-2.2592,-2.2569,-2.2592,-2.2511,-2.2501,-2.6609,0.0,-2.6798,-2.7194,-2.7275,0.0,-2.637,-2.6746,0.0,0.0,0.0,0.0,0.0,0.0,0.0,0.0,0.0,0.0,0.0,0.0,0.0,0.0,0.0,0.0,0.0,0.0,0.0,0.0,0.0,0.0,0.0,0.0,-2.9056,-2.9056,-2.9761,-2.9805,-2.9074,-2.9074,-2.8649,-2.7778,-2.6899,-2.6149,-2.5546,-2.7059,-2.775,-2.7715,-2.7064,-2.6782,-2.6723,-2.6,-2.5707,-2.5707,-2.5707,-2.5707,-2.5685,-2.5642,-2.5607,-2.5589,-2.546,-2.5403,-2.5394,-2.5322,-2.5308,-2.5308,-2.5308,-2.5308,-2.5308,-2.5308,-2.5293,-2.5297,-2.5292,-2.5252,-2.5206,-2.5176,-2.4954,-2.4665,-2.4358,-2.4247,-2.4237,-2.4199,-2.419,-2.419,-2.419,-2.419,-2.419,-2.419,-2.419,-2.419,-2.419,-2.419,-2.419,-2.419,-2.419,-2.419,-2.419,-2.419,-2.4103,-2.3886,-2.3876,-2.3774,-2.3544,-2.3544,-2.3439,-2.3218,-2.3187,-2.3035,-2.2825,-2.2812,-2.2794,-2.2794,-2.2747,-2.2694,0.0,0.0,-2.6535,0.0,-2.5584,-2.5497,0.0,0.0,0.0,0.0,0.0,0.0,0.0,0.0,0.0,0.0,0.0,0.0,0.0,0.0,0.0,0.0,0.0,0.0,0.0,0.0,0.0,0.0,0.0,0.0,0.0,-2.7999,-2.8092,-2.8092,-2.825,-2.8281,-2.8165,-2.8165,-2.7735,-2.6861,-2.6048,-2.5592,-2.5515,-2.5817,-2.5949,-2.5937,-2.5894,-2.5867,-2.5863,-2.5746,-2.5707,-2.5707,-2.5707,-2.5707,-2.5707,-2.5684,-2.5648,-2.5593,-2.5513,-2.545,-2.5394,-2.5322,-2.5308,-2.5308,-2.5308,-2.5308,-2.5308,-2.5308,-2.5303,-2.5298,-2.5297,-2.5287,-2.5231,-2.5075,-2.4987,-2.4902,-2.4673,-2.4503,-2.4347,-2.4228,-2.419,-2.419,-2.419,-2.419,-2.419,-2.419,-2.419,-2.419,-2.419,-2.419,-2.419,-2.419,-2.419,-2.419,-2.419,-2.419,-2.418,-2.4151,-2.4151,-2.4141,-2.4094,-2.4094,-2.3976,-2.371,-2.3477,-2.3341,-2.3318,-2.3242,-2.3218,-2.3206,-2.2975,-2.2871,-2.6036,-2.6067,-2.5917,0.0,-2.5273,-2.5245,0.0,0.0,0.0,0.0,0.0,0.0,0.0,0.0,0.0,0.0,0.0,0.0,0.0,0.0,0.0,0.0,0.0,0.0,0.0,0.0,0.0,0.0,0.0,0.0,-2.6329,-2.6834,-2.7126,-2.7171,-2.7668,0.0,-2.729,-2.7271,-2.6841,-2.6029,-2.5662,-2.5507,-2.5492,-2.5534,-2.5561,-2.5593,-2.5664,-2.5696,-2.5707,-2.5707,-2.5707,-2.5707,-2.5707,-2.5707,-2.5707,-2.5707,-2.5681,-2.5647,-2.5587,-2.5513,-2.5443,-2.5382,-2.5336,-2.5308,-2.5308,-2.5308,-2.5308,-2.5308,-2.5308,-2.5303,-2.5293,-2.5293,-2.5268,-2.5138,-2.5056,-2.4968,-2.4832,-2.4623,-2.4409,-2.4237,-2.419,-2.419,-2.419,-2.419,-2.419,-2.419,-2.419,-2.419,-2.419,-2.419,-2.419,-2.419,-2.419,-2.419,-2.419,-2.419,-2.419,-2.419,-2.419,-2.419,-2.419,-2.419,-2.4133,-2.4026,-2.3764,-2.3495,-2.3236,-2.32,-2.3116,-2.2968,-2.2846,-2.2786,0.0,0.0,-2.545,-2.5344,-2.5308,-2.5271,0.0,0.0,0.0,0.0,0.0,0.0,0.0,0.0,0.0,0.0,0.0,0.0,0.0,0.0,0.0,0.0,0.0,0.0,0.0,0.0,0.0,0.0,0.0,0.0,-2.514,-2.5786,-2.6176,-2.6221,-2.6882,-2.6944,-2.6352,-2.6388,-2.6087,-2.5507,-2.5507,-2.5507,-2.5492,-2.5502,-2.5539,-2.5605,-2.5661,-2.5701,-2.5693,-2.5709,-2.5707,-2.5707,-2.5707,-2.5707,-2.5707,-2.5707,-2.5707,-2.5684,-2.5614,-2.5578,-2.5513,-2.5425,-2.5365,-2.5322,-2.5313,-2.5308,-2.5308,-2.5308,-2.5308,-2.5308,-2.5308,-2.5308,-2.5298,-2.5238,-2.5143,-2.5037,-2.4881,-2.4685,-2.4522,-2.4358,-2.4284,-2.4257,-2.4257,-2.4228,-2.419,-2.419,-2.419,-2.419,-2.419,-2.419,-2.419,-2.419,-2.419,-2.419,-2.419,-2.419,-2.419,-2.419,-2.419,-2.419,-2.419,-2.419,-2.419,-2.419,-2.4006,-2.3728,-2.3389,-2.3389,-2.3277,-2.3084,-2.301,-2.2985,0.0,-2.5543,0.0,-2.5406,0.0,0.0,0.0,0.0,0.0,0.0,0.0,0.0,0.0,0.0,0.0,0.0,0.0,0.0,0.0,0.0,0.0,0.0,0.0,0.0,0.0,0.0,0.0,0.0,0.0,0.0,-2.5004,-2.5108,-2.5176,-2.5182,-2.5355,-2.5418,-2.536,-2.5498,-2.5546,-2.5507,-2.5507,-2.5507,-2.5492,-2.5498,-2.5543,-2.5593,-2.567,-2.5703,-2.5702,-2.5693,-2.5707,-2.5707,-2.5707,-2.5707,-2.5707,-2.5707,-2.5707,-2.5684,-2.5614,-2.56,-2.5563,-2.5443,-2.5406,-2.5386,-2.5317,-2.5308,-2.5308,-2.5308,-2.5308,-2.5308,-2.5308,-2.5308,-2.5303,-2.5303,-2.5298,-2.5185,-2.4794,-2.4707,-2.4692,-2.4676,-2.451,-2.4381,-2.4381,-2.4284,-2.419,-2.419,-2.419,-2.419,-2.419,-2.419,-2.419,-2.419,-2.419,-2.419,-2.419,-2.419,-2.419,-2.419,-2.419,-2.419,-2.419,-2.419,-2.419,-2.419,-2.418,-2.417,-2.4141,-2.4141,-2.4141,-2.4122,-2.3865,-2.3742,0.0,0.0,0.0,-2.5437,-2.5365,0.0,0.0,0.0,0.0,0.0,0.0,0.0,0.0,0.0,0.0,0.0,0.0,0.0,0.0,0.0,0.0,0.0,0.0,0.0,0.0,0.0,0.0,0.0,0.0,0.0,-2.5003,-2.5018,-2.4797,-2.4287,-2.4318,-2.4394,-2.4536,-2.5174,-2.5221,-2.4679,-2.4679,-2.437,-2.3828,-2.3827,-2.3864,-2.3936,-2.397,-2.4307,-2.4862,-2.4879,-2.4874,-2.4925,-2.5473,-2.5707,-2.5707,-2.5707,-2.5707,-2.5706,-2.5677,-2.5641,-2.5595,-2.5542,-2.5501,-2.5453,-2.5371,-2.5361,-2.5367,-2.5308,-2.5308,-2.5308,-2.5308,-2.5308,-2.5303,-2.5307,-2.5273,-2.5206,-2.5056,-2.4922,-2.479,-2.4723,-2.4634,-2.4594,-2.4594,-2.4452,-2.433,-2.433,-2.4257,-2.419,-2.419,-2.419,-2.419,-2.419,-2.419,-2.419,-2.419,-2.419,-2.419,-2.419,-2.419,-2.419,-2.419,-2.419,-2.419,-2.419,-2.419,-2.4132,-2.3937,-2.3937,-2.3847,-2.3682,-2.3588,-2.3544,-2.5701,0.0,0.0,0.0,0.0,0.0,0.0,0.0,0.0,0.0,0.0,0.0,0.0,0.0,0.0,0.0,0.0,0.0,0.0,0.0,0.0,0.0,0.0,0.0,0.0,0.0,0.0,0.0,0.0,0.0,-2.4169,-2.4169,-2.3929,-2.3416,-2.3402,-2.347,-2.3668,-2.4284,-2.4312,-2.3751,-2.3751,-2.3461,-2.2903,-2.2903,-2.2943,-2.2978,-2.269,-2.3092,-2.3965,-2.3964,-2.4135,-2.4456,-2.5042,-2.5434,-2.5707,-2.5707,-2.5707,-2.5707,-2.5707,-2.5677,-2.5637,-2.5605,-2.5561,-2.5521,-2.5453,-2.5414,-2.5398,-2.5359,-2.5313,-2.5308,-2.5308,-2.5308,-2.5303,-2.5307,-2.5262,-2.5222,-2.5222,-2.5116,-2.4968,-2.4886,-2.4816,-2.4764,-2.4764,-2.4615,-2.4501,-2.4501,-2.4418,-2.4348,-2.4284,-2.4275,-2.4247,-2.4199,-2.419,-2.419,-2.419,-2.419,-2.419,-2.419,-2.419,-2.419,-2.419,-2.419,-2.419,-2.419,-2.419,-2.4103,-2.3927,-2.3927,-2.3837,-2.3671,-2.3671,-2.361,0.0,0.0,0.0,0.0,0.0,0.0,0.0,0.0,0.0,0.0,0.0,0.0,0.0,0.0,0.0,0.0,0.0,0.0,0.0,0.0,0.0,0.0,0.0,0.0,0.0,0.0,0.0,0.0,0.0,-2.2495,-2.2495,-2.2476,-2.2492,-2.2555,-2.256,-2.2632,-2.2769,-2.2789,-2.2825,-2.2865,-2.2865,-2.2845,-2.2826,-2.2826,-2.2862,-2.2878,-2.2031,-2.2177,-2.3034,-2.3047,-2.3569,-2.434,-2.4358,-2.4886,-2.5629,-2.5629,-2.5648,-2.5668,-2.5668,-2.5687,-2.5683,-2.5614,-2.5603,-2.5595,-2.5524,-2.546,-2.5418,-2.5391,-2.5348,-2.5288,-2.5308,-2.5308,-2.5308,-2.5308,-2.5307,-2.5292,-2.5292,-2.525,-2.5193,-2.5193,-2.505,-2.4915,-2.4915,-2.4801,-2.4715,-2.4715,-2.47,-2.4618,-2.4442,-2.4389,-2.4338,-2.4218,-2.419,-2.419,-2.419,-2.419,-2.419,-2.419,-2.419,-2.419,-2.419,-2.419,-2.419,-2.419,-2.419,-2.419,-2.419,-2.419,-2.419,-2.419,-2.419,-2.4064,-2.5692,0.0,0.0,0.0,0.0,0.0,0.0,0.0,0.0,0.0,0.0,0.0,0.0,0.0,0.0,0.0,0.0,0.0,0.0,0.0,0.0,0.0,0.0,0.0,0.0,0.0,0.0,0.0,-2.2135,-2.2495,-2.2495,-2.1907,-2.1578,-2.1593,-2.1627,-2.1694,-2.1782,-2.2459,-2.2535,-2.2036,-2.2036,-2.1704,-2.1098,-2.1098,-2.1104,-2.1117,-2.0859,-2.0936,-2.1267,-2.1909,-2.2305,-2.2574,-2.3212,-2.3618,-2.3814,-2.3814,-2.4223,-2.4769,-2.4769,-2.5179,-2.5706,-2.568,-2.5677,-2.5653,-2.5595,-2.5552,-2.5524,-2.5425,-2.5394,-2.5357,-2.5308,-2.5308,-2.5308,-2.5308,-2.5303,-2.5298,-2.5298,-2.5292,-2.5261,-2.5206,-2.5168,-2.5121,-2.5121,-2.5013,-2.4919,-2.4919,-2.4662,-2.4449,-2.4407,-2.4311,-2.4238,-2.4199,-2.419,-2.419,-2.419,-2.419,-2.419,-2.419,-2.419,-2.419,-2.419,-2.419,-2.419,-2.419,-2.419,-2.419,-2.419,-2.419,-2.419,-2.419,-2.419,-2.4161,-2.5702,-2.5702,0.0,0.0,0.0,0.0,0.0,0.0,0.0,0.0,0.0,0.0,0.0,0.0,0.0,0.0,0.0,0.0,0.0,0.0,0.0,0.0,0.0,0.0,0.0,0.0,0.0,0.0,-2.1168,-2.1453,-2.1453,-2.0979,-2.0689,-2.0689,-2.0736,-2.0789,-2.0866,-2.1432,-2.1513,-2.1113,-2.1133,-2.0888,-2.0402,-2.0402,-2.0402,-2.0402,-2.0399,-2.0417,-2.0497,-2.1048,-2.1462,-2.1854,-2.2358,-2.2784,-2.3091,-2.3091,-2.3423,-2.3852,-2.3852,-2.4183,-2.4672,-2.5042,-2.5159,-2.5216,-2.5533,-2.5614,-2.557,-2.5507,-2.5443,-2.5398,-2.5344,-2.5317,-2.5308,-2.5308,-2.5308,-2.5308,-2.5308,-2.5293,-2.5297,-2.5252,-2.5217,-2.5192,-2.5192,-2.514,-2.5081,-2.5081,-2.4871,-2.4682,-2.458,-2.4468,-2.4366,-2.4219,-2.4199,-2.419,-2.419,-2.419,-2.419,-2.419,-2.419,-2.419,-2.419,-2.419,-2.419,-2.419,-2.419,-2.419,-2.419,-2.419,-2.419,-2.419,-2.419,-2.419,-2.5684,-2.5699,-2.5693,0.0,0.0,0.0,-2.5238,-2.4739,0.0,0.0,0.0,0.0,0.0,0.0,0.0,0.0,0.0,0.0,0.0,0.0,0.0,0.0,0.0,0.0,0.0,0.0,-2.0121,-2.0121,-2.0045,-2.0007,-2.0007,-2.0007,-2.0007,-2.0007,-2.0007,-2.0036,-2.0108,-2.0153,-2.0237,-2.0304,-2.0353,-2.0395,-2.0402,-2.0402,-2.0402,-2.0402,-2.0396,-2.0391,-2.0402,-2.0476,-2.096,-2.166,-2.1659,-2.2145,-2.282,-2.2819,-2.2877,-2.2974,-2.2974,-2.3033,-2.3228,-2.4008,-2.4261,-2.4398,-2.518,-2.5437,-2.5488,-2.5563,-2.551,-2.5406,-2.5406,-2.5365,-2.5322,-2.5322,-2.5313,-2.5303,-2.5303,-2.5313,-2.5298,-2.5297,-2.5257,-2.5203,-2.5203,-2.5217,-2.5217,-2.5217,-2.5182,-2.5097,-2.4861,-2.4768,-2.4596,-2.4293,-2.4266,-2.4266,-2.4247,-2.4219,-2.4209,-2.4199,-2.4199,-2.4199,-2.419,-2.419,-2.419,-2.419,-2.419,-2.419,-2.419,-2.419,-2.419,-2.419,-2.419,-2.419,-2.5622,-2.5621,-2.5624,-2.563,0.0,0.0,0.0,-2.4438,0.0,0.0,0.0,0.0,0.0,0.0,0.0,0.0,0.0,0.0,0.0,0.0,0.0,0.0,0.0,0.0,0.0,0.0,-2.0973,-2.0973,-2.0367,-2.0007,-2.0007,-2.0007,-2.0007,-2.0007,-2.0007,-2.0036,-2.0108,-2.0103,-2.0176,-2.0304,-2.0315,-2.0343,-2.0402,-2.0402,-2.0402,-2.0402,-2.0408,-2.0407,-2.0418,-2.0478,-2.0604,-2.076,-2.08,-2.0936,-2.1091,-2.1085,-2.153,-2.2134,-2.2134,-2.2564,-2.313,-2.3306,-2.3345,-2.3384,-2.356,-2.4083,-2.4776,-2.5414,-2.5539,-2.5483,-2.5483,-2.5473,-2.5463,-2.5463,-2.5414,-2.5386,-2.5386,-2.5345,-2.5303,-2.5298,-2.5293,-2.5274,-2.5274,-2.5278,-2.5282,-2.5282,-2.514,-2.5019,-2.4968,-2.4861,-2.476,-2.4682,-2.4685,-2.4623,-2.4458,-2.4441,-2.4363,-2.4201,-2.421,-2.4191,-2.419,-2.419,-2.419,-2.419,-2.419,-2.419,-2.419,-2.419,-2.419,-2.419,-2.419,-2.419,-2.5605,-2.5591,-2.56,-2.5609,0.0,0.0,0.0,0.0,0.0,0.0,0.0,0.0,0.0,0.0,0.0,0.0,0.0,0.0,0.0,0.0,0.0,0.0,0.0,0.0,0.0,0.0,-2.168,-2.1219,-2.0822,-2.0424,-2.0026,-2.0007,-2.0007,-2.0007,-2.0007,-2.0015,-2.0043,-2.0088,-2.0126,-2.0193,-2.0226,-2.0292,-2.0343,-2.0343,-2.0376,-2.0402,-2.0402,-2.0392,-2.039,-2.0443,-2.0454,-2.0469,-2.052,-2.0566,-2.0604,-2.0597,-2.0886,-2.1257,-2.1257,-2.151,-2.192,-2.2369,-2.2505,-2.2584,-2.2974,-2.3715,-2.4473,-2.4889,-2.5268,-2.5544,-2.5544,-2.5524,-2.5501,-2.5501,-2.5476,-2.5439,-2.5418,-2.5374,-2.535,-2.5317,-2.5308,-2.5308,-2.5308,-2.5298,-2.5307,-2.5307,-2.5206,-2.5121,-2.5062,-2.4968,-2.4871,-2.4814,-2.4792,-2.4753,-2.4601,-2.4593,-2.4556,-2.4461,-2.4355,-2.4293,-2.4312,-2.4247,-2.419,-2.419,-2.419,-2.419,-2.419,-2.419,-2.419,-2.419,-2.419,-2.419,0.0,0.0,0.0,0.0,0.0,-2.4677,0.0,0.0,0.0,-2.4763,0.0,0.0,0.0,0.0,0.0,0.0,0.0,0.0,0.0,0.0,0.0,0.0,0.0,0.0,0.0,0.0,-2.2211,-2.1509,-2.1144,-2.0746,-2.0253,-2.0083,-2.0007,-2.0007,-2.0007,-2.0007,-2.0007,-2.0048,-2.0093,-2.0093,-2.0149,-2.0229,-2.0289,-2.03,-2.0329,-2.0386,-2.0395,-2.0402,-2.0402,-2.0399,-2.0394,-2.041,-2.048,-2.0524,-2.0586,-2.0601,-2.0596,-2.0596,-2.0594,-2.0594,-2.0711,-2.1412,-2.1646,-2.1802,-2.2623,-2.3364,-2.3987,-2.4319,-2.4871,-2.5416,-2.5574,-2.5587,-2.5537,-2.5537,-2.5518,-2.5489,-2.5429,-2.541,-2.5365,-2.5303,-2.5308,-2.5308,-2.5308,-2.5308,-2.5308,-2.5308,-2.5308,-2.5259,-2.5154,-2.5082,-2.503,-2.4917,-2.4903,-2.4855,-2.4785,-2.4771,-2.476,-2.4712,-2.4559,-2.4458,-2.4468,-2.4357,-2.4275,-2.4238,-2.4238,-2.4237,-2.419,-2.419,-2.419,-2.419,-2.419,-2.419,0.0,0.0,0.0,0.0,-2.5444,0.0,0.0,0.0,-2.3886,-2.2432,0.0,0.0,0.0,0.0,0.0,0.0,0.0,0.0,0.0,0.0,0.0,0.0,0.0,0.0,0.0,0.0,0.0,-2.2362,-2.0979,-2.0405,-2.103,-2.0386,-2.0007,-2.0007,-2.0007,-2.0007,-2.0007,-1.9999,-2.0052,-2.0089,-2.0117,-2.0159,-2.0205,-2.0262,-2.0307,-2.0315,-2.0363,-2.0402,-2.0402,-2.0399,-2.0394,-2.0404,-2.0469,-2.0494,-2.0522,-2.0586,-2.0604,-2.0603,-2.0596,-2.0594,-2.0613,-2.0711,-2.075,-2.0905,-2.1763,-2.2115,-2.2484,-2.3987,-2.4473,-2.4706,-2.5488,-2.5681,-2.568,-2.568,-2.5591,-2.5501,-2.5492,-2.5402,-2.5303,-2.5308,-2.5308,-2.5308,-2.5308,-2.5308,-2.5308,-2.5308,-2.5308,-2.5284,-2.5274,-2.5269,-2.5259,-2.5248,-2.5243,-2.5182,-2.5061,-2.5056,-2.4974,-2.4797,-2.4704,-2.467,-2.4676,-2.466,-2.4561,-2.4391,-2.4382,-2.4321,-2.419,-2.419,-2.419,-2.419,-2.419,-2.419,0.0,0.0,0.0,0.0,0.0,0.0,-2.5068,0.0,-2.4028,0.0,0.0,0.0,0.0,0.0,0.0,0.0,0.0,0.0,0.0,0.0,0.0,0.0,0.0,0.0,0.0,0.0,0.0,0.0,0.0,-2.1377,-2.12,-2.0878,-2.048,-2.0007,-2.0007,-2.0007,-2.0007,-2.0007,-2.001,-2.0033,-2.0033,-2.0078,-2.0135,-2.0205,-2.025,-2.0307,-2.0379,-2.0402,-2.0402,-2.0398,-2.0404,-2.039,-2.043,-2.0476,-2.049,-2.0539,-2.0566,-2.0604,-2.0602,-2.0598,-2.0594,-2.0594,-2.0594,-2.0672,-2.1022,-2.1509,-2.2134,-2.3325,-2.4008,-2.4592,-2.5473,-2.5707,-2.5707,-2.5707,-2.5651,-2.5603,-2.5578,-2.5486,-2.5395,-2.5365,-2.5327,-2.5308,-2.5308,-2.5308,-2.5308,-2.5308,-2.5308,-2.5308,-2.5308,-2.5308,-2.5308,-2.5308,-2.5308,-2.5283,-2.5225,-2.5228,-2.5164,-2.505,-2.4929,-2.4814,-2.47,-2.4749,-2.47,-2.458,-2.458,-2.451,-2.4375,-2.4348,-2.4275,-2.419,-2.419,-2.419,-2.5607,0.0,0.0,0.0,0.0,0.0,0.0,0.0,0.0,0.0,0.0,0.0,0.0,0.0,0.0,0.0,0.0,0.0,0.0,0.0,0.0,0.0,0.0,0.0,0.0,0.0,0.0,0.0,0.0,0.0,-2.1888,-2.1453,-2.0935,-2.0348,-2.0102,-2.0007,-2.0007,-2.0007,-2.0007,-2.0007,-2.0007,-2.0026,-2.0078,-2.0153,-2.0237,-2.0285,-2.0353,-2.0402,-2.0402,-2.0402,-2.0402,-2.0402,-2.039,-2.0427,-2.0467,-2.0497,-2.0536,-2.0565,-2.0566,-2.0583,-2.0595,-2.0595,-2.0594,-2.0594,-2.0594,-2.1198,-2.2036,-2.2877,-2.3735,-2.4592,-2.5473,-2.5707,-2.5707,-2.5707,-2.5682,-2.5653,-2.5607,-2.5544,-2.5489,-2.5436,-2.5394,-2.5339,-2.5331,-2.5308,-2.5308,-2.5308,-2.5308,-2.5308,-2.5308,-2.5308,-2.5308,-2.5308,-2.5308,-2.5298,-2.5302,-2.5292,-2.5276,-2.5192,-2.5109,-2.4981,-2.483,-2.4883,-2.4862,-2.4785,-2.4778,-2.4731,-2.4575,-2.4524,-2.4451,-2.433,-2.4247,-2.419,0.0,0.0,0.0,-2.5515,0.0,0.0,0.0,0.0,-2.5068,0.0,0.0,0.0,0.0,0.0,0.0,0.0,0.0,0.0,0.0,0.0,0.0,0.0,0.0,0.0,0.0,0.0,0.0,0.0,0.0,0.0,-2.3537,-2.2078,-2.1181,-2.1163,-2.0405,-2.0007,-2.0007,-2.0007,-2.0007,-2.0007,-2.0007,-1.9993,-1.9999,-2.0145,-2.0193,-2.0205,-2.0339,-2.0402,-2.0402,-2.0402,-2.0402,-2.0402,-2.0402,-2.0407,-2.0407,-2.0488,-2.0506,-2.0497,-2.0498,-2.0547,-2.0599,-2.0599,-2.0597,-2.0594,-2.0594,-2.1159,-2.1978,-2.2857,-2.3735,-2.4592,-2.5473,-2.5707,-2.5707,-2.5707,-2.5648,-2.5603,-2.5601,-2.5544,-2.5501,-2.5498,-2.5498,-2.5476,-2.5403,-2.533,-2.5308,-2.5308,-2.5308,-2.5308,-2.5308,-2.5308,-2.5308,-2.5308,-2.5308,-2.5308,-2.5303,-2.5302,-2.5276,-2.5192,-2.5206,-2.5187,-2.5182,-2.5182,-2.5126,-2.4994,-2.4994,-2.4929,-2.479,-2.479,-2.476,-2.4674,-2.4348,-2.419,0.0,0.0,-2.4737,-2.4716,0.0,0.0,0.0,0.0,0.0,0.0,0.0,0.0,0.0,0.0,0.0,0.0,0.0,0.0,0.0,0.0,0.0,0.0,0.0,0.0,0.0,0.0,0.0,0.0,0.0,0.0,0.0,-2.3158,-2.2343,-2.1244,-2.0935,-2.0537,-2.0007,-2.0007,-2.0007,-2.0007,-2.0007,-2.0007,-1.9993,-2.0145,-2.0193,-2.0201,-2.0336,-2.0402,-2.0402,-2.0402,-2.0402,-2.0402,-2.0402,-2.0408,-2.0407,-2.0434,-2.0454,-2.051,-2.0501,-2.0501,-2.0527,-2.0527,-2.0566,-2.0717,-2.1283,-2.1654,-2.2161,-2.3565,-2.417,-2.4599,-2.5474,-2.5707,-2.5707,-2.5707,-2.5681,-2.5675,-2.5675,-2.5609,-2.5578,-2.5578,-2.5529,-2.5495,-2.5473,-2.5446,-2.5395,-2.5308,-2.5308,-2.5308,-2.5308,-2.5308,-2.5308,-2.5308,-2.5308,-2.5308,-2.5308,-2.5298,-2.5293,-2.5264,-2.5264,-2.5273,-2.5276,-2.5273,-2.5238,-2.5198,-2.5198,-2.5103,-2.4924,-2.4929,-2.4881,-2.4749,-2.4647,-2.4493,-2.4055,-2.3825,0.0,0.0,-2.3428,0.0,-2.3702,0.0,0.0,0.0,0.0,0.0,0.0,0.0,0.0,0.0,0.0,0.0,0.0,0.0,0.0,0.0,0.0,0.0,0.0,0.0,-2.1344,-2.2448,0.0,0.0,0.0,0.0,-2.3063,-2.1718,-2.1358,-2.0803,-2.0007,-2.0007,-2.0007,-2.0007,-2.0007,-2.0007,-1.9993,-2.0117,-2.0171,-2.022,-2.0318,-2.0386,-2.0402,-2.0402,-2.0402,-2.0402,-2.0402,-2.0402,-2.0402,-2.0407,-2.042,-2.0453,-2.0451,-2.0476,-2.0496,-2.0502,-2.0527,-2.0722,-2.1638,-2.2106,-2.2613,-2.4018,-2.4622,-2.4913,-2.5164,-2.5475,-2.5629,-2.5316,-2.5473,-2.5707,-2.5707,-2.5675,-2.5641,-2.5641,-2.5601,-2.5556,-2.5537,-2.5534,-2.5492,-2.5352,-2.534,-2.5327,-2.5293,-2.5308,-2.5308,-2.5308,-2.5308,-2.5308,-2.5308,-2.5308,-2.5173,-2.4889,-2.5135,-2.5168,-2.4884,-2.4861,-2.5014,-2.5283,-2.5019,-2.4945,-2.5105,-2.5115,-2.5062,-2.4987,-2.4903,-2.4603]},{"header":{"parameterUnit":"m.s-1","parameterCategory":1,"la1":30.6,"la2":29.2853,"lo1":-89.7004,"lo2":-87.6739,"dy":0.0162,"dx":0.0183,"nx":112,"ny":82,"refTime":"2024-07-14T00:00:00:Z","depth":0,"parameterNumber":3,"parameterNumberName":"V-component_of_WINDS"},"data":[0.0,0.0,0.0,0.0,0.0,0.0,0.0,0.0,0.0,0.0,0.0,0.0,0.0,0.0,0.0,0.0,0.0,0.0,0.0,0.0,0.0,0.0,0.0,0.0,0.0,0.0,0.0,0.0,0.0,0.0,0.0,0.0,0.0,0.0,0.0,0.0,0.0,0.0,0.0,0.0,0.0,0.0,0.0,0.0,0.0,0.0,0.0,0.0,0.0,0.0,0.0,0.0,0.0,0.0,0.0,0.0,0.0,0.0,0.0,0.0,0.0,0.0,0.0,0.0,0.0,0.0,0.0,0.0,0.0,0.0,0.0,0.0,0.0,0.0,0.0,0.0,0.0,0.0,0.0,0.0,0.0,0.0,0.0,0.0,0.0,0.0,0.0,0.0,0.0,0.0,0.0,-1.6127,-1.6703,-1.7113,-1.7286,-1.7235,-1.7034,-1.6539,0.0,0.0,0.0,0.0,0.0,0.0,0.0,0.0,0.0,0.0,0.0,0.0,0.0,0.0,0.0,0.0,0.0,0.0,0.0,0.0,0.0,0.0,0.0,0.0,0.0,0.0,0.0,0.0,0.0,0.0,0.0,0.0,0.0,0.0,0.0,0.0,0.0,0.0,0.0,0.0,0.0,0.0,0.0,0.0,0.0,0.0,0.0,0.0,0.0,0.0,0.0,0.0,0.0,0.0,0.0,0.0,0.0,0.0,0.0,0.0,0.0,0.0,0.0,0.0,0.0,0.0,0.0,0.0,0.0,0.0,0.0,0.0,0.0,0.0,0.0,0.0,0.0,0.0,0.0,0.0,0.0,0.0,0.0,0.0,0.0,0.0,0.0,0.0,0.0,0.0,0.0,0.0,0.0,0.0,0.0,0.0,0.0,0.0,0.0,0.0,0.0,0.0,0.0,0.0,-1.554,-1.6714,-1.7095,-1.7286,-1.7279,-1.7077,-1.684,-1.6523,0.0,0.0,0.0,0.0,0.0,0.0,0.0,0.0,0.0,0.0,0.0,0.0,0.0,0.0,0.0,0.0,0.0,0.0,0.0,0.0,0.0,0.0,0.0,0.0,0.0,0.0,0.0,0.0,0.0,0.0,0.0,0.0,0.0,0.0,0.0,0.0,0.0,0.0,0.0,0.0,0.0,0.0,0.0,0.0,0.0,0.0,0.0,0.0,0.0,0.0,0.0,0.0,0.0,0.0,0.0,0.0,0.0,0.0,0.0,0.0,0.0,0.0,0.0,0.0,0.0,0.0,0.0,0.0,0.0,0.0,0.0,0.0,0.0,0.0,0.0,0.0,0.0,0.0,0.0,0.0,0.0,0.0,0.0,0.0,0.0,0.0,0.0,0.0,0.0,0.0,0.0,0.0,0.0,0.0,0.0,0.0,0.0,0.0,0.0,0.0,0.0,0.0,0.0,-1.5532,-1.6118,-1.7051,-1.7239,-1.726,-1.7091,-1.6983,-1.6881,-1.6863,-1.6262,0.0,0.0,0.0,0.0,0.0,0.0,0.0,0.0,0.0,0.0,0.0,0.0,0.0,0.0,0.0,0.0,0.0,0.0,0.0,0.0,0.0,0.0,0.0,0.0,0.0,0.0,0.0,0.0,0.0,0.0,0.0,0.0,0.0,0.0,0.0,0.0,0.0,0.0,0.0,0.0,0.0,0.0,0.0,0.0,0.0,0.0,0.0,0.0,0.0,0.0,0.0,0.0,0.0,0.0,0.0,0.0,0.0,0.0,0.0,0.0,0.0,0.0,0.0,0.0,0.0,0.0,0.0,0.0,0.0,0.0,0.0,0.0,0.0,0.0,0.0,0.0,0.0,0.0,0.0,0.0,0.0,0.0,0.0,0.0,0.0,0.0,0.0,0.0,0.0,0.0,0.0,0.0,0.0,0.0,0.0,0.0,0.0,0.0,0.0,0.0,0.0,0.0,-1.6389,-1.6704,-1.722,-1.7279,-1.7201,-1.6925,-1.6763,-1.6827,-1.7181,-1.6225,0.0,0.0,0.0,0.0,0.0,0.0,0.0,0.0,0.0,0.0,0.0,0.0,0.0,0.0,0.0,0.0,0.0,0.0,0.0,0.0,0.0,0.0,0.0,0.0,0.0,0.0,0.0,0.0,0.0,0.0,0.0,0.0,0.0,0.0,0.0,0.0,0.0,0.0,0.0,0.0,0.0,0.0,0.0,0.0,0.0,0.0,0.0,0.0,0.0,0.0,0.0,0.0,0.0,0.0,0.0,0.0,0.0,0.0,0.0,0.0,0.0,0.0,0.0,0.0,0.0,0.0,0.0,0.0,0.0,0.0,0.0,0.0,0.0,0.0,0.0,0.0,0.0,0.0,0.0,0.0,0.0,0.0,0.0,0.0,0.0,0.0,0.0,0.0,0.0,0.0,0.0,0.0,0.0,0.0,0.0,0.0,0.0,0.0,0.0,0.0,0.0,0.0,-1.6272,-1.6998,-1.7296,-1.7279,-1.7201,-1.6925,-1.6323,-1.6297,-1.7147,-1.5791,0.0,0.0,0.0,0.0,0.0,0.0,0.0,0.0,0.0,0.0,0.0,0.0,0.0,0.0,0.0,0.0,0.0,0.0,0.0,0.0,0.0,0.0,0.0,0.0,0.0,0.0,0.0,0.0,0.0,0.0,0.0,0.0,0.0,0.0,0.0,0.0,0.0,0.0,0.0,0.0,0.0,0.0,0.0,0.0,0.0,0.0,0.0,0.0,0.0,0.0,0.0,0.0,0.0,0.0,0.0,0.0,0.0,0.0,0.0,0.0,0.0,0.0,0.0,0.0,0.0,0.0,0.0,0.0,0.0,0.0,0.0,0.0,0.0,0.0,0.0,0.0,0.0,0.0,0.0,0.0,0.0,0.0,0.0,0.0,0.0,0.0,0.0,0.0,0.0,0.0,0.0,0.0,0.0,0.0,0.0,0.0,0.0,0.0,0.0,0.0,0.0,0.0,-1.5613,-1.6162,0.0,-1.6726,-1.6818,-1.7052,-1.6885,-1.7006,-1.7646,0.0,0.0,0.0,0.0,0.0,0.0,0.0,0.0,0.0,0.0,0.0,0.0,0.0,0.0,0.0,0.0,0.0,0.0,0.0,0.0,0.0,0.0,0.0,0.0,0.0,0.0,0.0,0.0,0.0,0.0,0.0,0.0,0.0,0.0,0.0,0.0,0.0,0.0,0.0,0.0,0.0,0.0,0.0,0.0,0.0,0.0,0.0,0.0,0.0,0.0,0.0,0.0,0.0,0.0,0.0,0.0,0.0,0.0,0.0,0.0,0.0,0.0,0.0,0.0,0.0,0.0,0.0,0.0,0.0,0.0,0.0,0.0,0.0,0.0,0.0,0.0,0.0,0.0,0.0,0.0,0.0,0.0,0.0,0.0,0.0,0.0,0.0,0.0,0.0,0.0,0.0,0.0,0.0,0.0,0.0,0.0,0.0,0.0,0.0,0.0,0.0,0.0,-1.4608,-1.5214,-1.5867,0.0,-1.68,-1.7006,-1.755,-1.7399,-1.7408,-1.7797,0.0,0.0,0.0,0.0,0.0,0.0,0.0,0.0,0.0,0.0,0.0,0.0,0.0,0.0,0.0,0.0,0.0,0.0,0.0,0.0,0.0,0.0,0.0,0.0,0.0,0.0,0.0,0.0,0.0,0.0,0.0,0.0,0.0,0.0,0.0,0.0,0.0,0.0,0.0,0.0,0.0,0.0,0.0,0.0,0.0,0.0,0.0,0.0,0.0,0.0,0.0,0.0,0.0,0.0,0.0,0.0,0.0,0.0,0.0,0.0,0.0,0.0,0.0,0.0,0.0,0.0,0.0,0.0,0.0,0.0,0.0,0.0,0.0,0.0,0.0,0.0,0.0,0.0,0.0,0.0,0.0,0.0,0.0,0.0,0.0,0.0,0.0,0.0,0.0,0.0,0.0,0.0,0.0,0.0,0.0,0.0,0.0,0.0,0.0,0.0,0.0,0.0,-1.4416,-1.5306,-1.6361,-1.7577,-1.7696,-1.7897,-1.8463,-1.7837,-1.743,0.0,0.0,0.0,0.0,0.0,0.0,0.0,0.0,0.0,0.0,0.0,0.0,0.0,0.0,0.0,0.0,0.0,0.0,0.0,0.0,0.0,0.0,0.0,0.0,0.0,0.0,0.0,0.0,0.0,0.0,0.0,0.0,0.0,0.0,0.0,0.0,0.0,0.0,0.0,0.0,0.0,0.0,0.0,0.0,0.0,0.0,0.0,0.0,0.0,0.0,0.0,0.0,0.0,0.0,0.0,0.0,0.0,0.0,0.0,0.0,0.0,0.0,0.0,0.0,0.0,0.0,0.0,0.0,0.0,0.0,0.0,0.0,0.0,0.0,0.0,0.0,0.0,0.0,0.0,0.0,0.0,0.0,0.0,0.0,0.0,0.0,0.0,0.0,0.0,0.0,0.0,0.0,0.0,0.0,0.0,0.0,0.0,0.0,0.0,0.0,0.0,0.0,0.0,-1.4087,-1.5306,-1.6341,-1.6935,-1.7548,-1.8206,-1.9004,-1.856,-1.8273,-1.8256,0.0,0.0,0.0,0.0,0.0,0.0,0.0,0.0,0.0,0.0,0.0,0.0,0.0,0.0,0.0,0.0,0.0,0.0,0.0,0.0,0.0,0.0,0.0,0.0,0.0,0.0,0.0,0.0,0.0,0.0,0.0,0.0,0.0,0.0,0.0,0.0,0.0,0.0,0.0,0.0,0.0,0.0,0.0,0.0,0.0,0.0,0.0,0.0,0.0,0.0,0.0,0.0,0.0,0.0,0.0,0.0,0.0,0.0,0.0,0.0,0.0,0.0,0.0,0.0,0.0,0.0,0.0,0.0,0.0,0.0,0.0,0.0,0.0,0.0,0.0,0.0,0.0,0.0,0.0,0.0,0.0,0.0,0.0,0.0,0.0,0.0,0.0,0.0,0.0,0.0,0.0,0.0,0.0,0.0,0.0,0.0,0.0,0.0,0.0,0.0,0.0,0.0,-1.4405,-1.5573,-1.6596,-1.7156,-1.77,-1.8372,-1.9248,-1.8864,-1.8455,-1.8149,0.0,0.0,0.0,0.0,0.0,0.0,0.0,0.0,0.0,0.0,0.0,0.0,0.0,0.0,0.0,0.0,0.0,0.0,0.0,0.0,0.0,0.0,0.0,0.0,0.0,0.0,0.0,0.0,0.0,0.0,0.0,0.0,0.0,0.0,0.0,0.0,0.0,0.0,0.0,0.0,0.0,0.0,0.0,0.0,0.0,0.0,0.0,0.0,0.0,0.0,0.0,0.0,0.0,0.0,0.0,0.0,0.0,0.0,0.0,0.0,0.0,0.0,0.0,0.0,0.0,0.0,0.0,0.0,0.0,0.0,0.0,0.0,0.0,0.0,0.0,0.0,0.0,0.0,0.0,0.0,0.0,0.0,0.0,0.0,0.0,0.0,0.0,0.0,0.0,0.0,0.0,0.0,0.0,0.0,0.0,0.0,0.0,0.0,0.0,0.0,0.0,0.0,-1.5087,-1.6076,-1.7104,-1.7906,-1.8064,-1.8442,-1.9251,-1.8887,-1.8256,-1.749,0.0,0.0,0.0,0.0,0.0,0.0,0.0,0.0,0.0,0.0,0.0,0.0,0.0,0.0,0.0,0.0,0.0,0.0,0.0,0.0,0.0,0.0,0.0,0.0,0.0,0.0,0.0,0.0,0.0,0.0,0.0,0.0,0.0,0.0,0.0,0.0,0.0,0.0,0.0,0.0,0.0,0.0,0.0,0.0,0.0,0.0,0.0,0.0,0.0,0.0,0.0,0.0,0.0,0.0,0.0,0.0,0.0,0.0,0.0,0.0,-0.7573,0.0,0.0,0.0,0.0,0.0,0.0,0.0,0.0,0.0,0.0,0.0,0.0,0.0,0.0,0.0,0.0,0.0,0.0,0.0,0.0,0.0,0.0,0.0,0.0,0.0,0.0,0.0,0.0,0.0,0.0,0.0,0.0,0.0,0.0,0.0,0.0,0.0,0.0,0.0,0.0,0.0,-1.5087,-1.6387,-1.7515,-1.7953,-1.8599,-1.9095,-1.9287,-1.8887,-1.8383,-1.791,0.0,0.0,0.0,0.0,0.0,0.0,0.0,0.0,0.0,0.0,0.0,0.0,0.0,0.0,0.0,0.0,0.0,0.0,0.0,0.0,0.0,0.0,0.0,0.0,0.0,0.0,0.0,0.0,0.0,0.0,0.0,0.0,0.0,0.0,0.0,0.0,0.0,0.0,0.0,0.0,0.0,0.0,0.0,0.0,0.0,0.0,0.0,0.0,0.0,0.0,0.0,0.0,0.0,0.0,0.0,0.0,0.0,0.0,0.0,0.0,0.0,-0.793,0.0,0.0,0.0,0.0,0.0,0.0,0.0,0.0,0.0,0.0,0.0,0.0,0.0,0.0,0.0,0.0,0.0,0.0,0.0,0.0,0.0,0.0,0.0,0.0,0.0,0.0,0.0,0.0,0.0,0.0,0.0,0.0,0.0,0.0,0.0,0.0,0.0,0.0,0.0,0.0,-1.5871,-1.6946,-1.7814,-1.7986,-1.8415,-1.8672,-1.8672,-1.8467,-1.812,-1.7734,-1.6894,0.0,0.0,0.0,0.0,0.0,0.0,0.0,0.0,0.0,0.0,0.0,0.0,0.0,0.0,0.0,0.0,0.0,0.0,0.0,0.0,0.0,0.0,0.0,0.0,0.0,0.0,0.0,0.0,0.0,0.0,0.0,0.0,0.0,0.0,0.0,0.0,0.0,0.0,0.0,0.0,0.0,0.0,0.0,0.0,0.0,0.0,0.0,0.0,0.0,0.0,0.0,0.0,0.0,0.0,-0.8,-0.8263,-0.8629,-0.882,-0.8796,-0.8381,-0.8166,-0.8201,0.0,0.0,0.0,0.0,0.0,0.0,0.0,0.0,0.0,0.0,0.0,0.0,0.0,0.0,0.0,0.0,0.0,0.0,0.0,0.0,0.0,0.0,0.0,0.0,0.0,-1.3473,-1.3518,0.0,0.0,0.0,0.0,0.0,0.0,0.0,0.0,0.0,0.0,0.0,0.0,-1.659,-1.7373,-1.79,-1.79,-1.7969,-1.8008,-1.8008,-1.8008,-1.7832,-1.7445,-1.6652,-1.586,0.0,0.0,0.0,0.0,0.0,0.0,0.0,0.0,0.0,0.0,0.0,0.0,0.0,0.0,0.0,0.0,0.0,0.0,0.0,0.0,0.0,0.0,0.0,0.0,0.0,0.0,0.0,0.0,0.0,0.0,0.0,0.0,-0.2166,-0.2975,0.0,0.0,0.0,0.0,0.0,0.0,0.0,0.0,0.0,0.0,0.0,0.0,0.0,0.0,-0.6702,-0.691,-0.7021,-0.6987,-0.7592,-0.7933,-0.7958,-0.8551,-0.882,-0.8824,-0.8913,0.0,-0.8581,-0.9566,0.0,0.0,0.0,0.0,0.0,0.0,0.0,0.0,0.0,0.0,0.0,0.0,0.0,0.0,0.0,0.0,0.0,0.0,0.0,0.0,0.0,0.0,-1.2425,-1.265,-1.3353,-1.389,0.0,-1.4201,-1.4765,-1.4567,0.0,0.0,0.0,0.0,0.0,0.0,0.0,0.0,-1.6183,-1.6956,-1.7461,-1.7461,-1.7793,-1.8008,-1.8008,-1.8008,-1.7832,-1.7445,-1.6924,-1.6416,-1.5948,-1.5204,0.0,0.0,0.0,0.0,0.0,0.0,0.0,0.0,0.0,0.0,0.0,0.0,0.0,0.0,0.0,0.0,0.0,0.0,0.0,0.0,0.0,0.0,0.0,0.0,0.0,0.0,0.0,0.0,0.0,-0.1047,-0.1505,-0.2397,-0.2631,-0.3188,0.0,0.0,0.0,0.0,0.0,0.0,0.0,0.0,0.0,-0.7016,-0.7109,-0.7187,-0.7207,-0.7248,-0.7372,-0.7579,-0.7875,-0.8173,-0.8401,-0.8802,-0.8974,-0.8974,-0.8954,-0.9225,-0.9759,-1.0366,-1.0672,-1.0793,0.0,0.0,0.0,0.0,0.0,-1.1906,-1.1904,0.0,0.0,0.0,0.0,0.0,0.0,0.0,0.0,0.0,0.0,0.0,0.0,0.0,0.0,-1.3518,-1.4179,-1.4776,-1.5077,-1.5778,-1.6235,0.0,-1.607,-1.6391,-1.6151,0.0,0.0,0.0,0.0,0.0,-1.6095,-1.6868,-1.7383,-1.7383,-1.7764,-1.8008,-1.8008,-1.8008,-1.7832,-1.7445,-1.6973,-1.6533,-1.6114,-1.5469,-1.4932,0.0,0.0,0.0,0.0,0.0,0.0,0.0,0.0,0.0,0.0,0.0,0.0,0.0,0.0,0.0,0.0,0.0,0.0,0.0,0.0,0.0,0.0,0.0,0.0,0.0,0.0,0.0,0.0,-0.0705,-0.1077,-0.1893,-0.2171,-0.2787,0.0,0.0,0.0,0.0,0.0,0.0,-0.6871,-0.7119,-0.7309,-0.7424,-0.7502,-0.756,-0.76,-0.7531,-0.764,-0.792,-0.8057,-0.8264,-0.8579,-0.8896,-0.9027,-0.9019,-0.893,-0.9479,-1.0534,-1.0958,-1.1422,-1.1854,-1.233,-1.2358,-1.212,-1.204,-1.202,-1.2047,-1.2225,-1.2305,-1.2265,-1.2087,0.0,-1.1866,-1.1603,0.0,0.0,0.0,0.0,-1.2085,-1.2085,0.0,-1.3409,-1.4238,-1.4981,-1.5653,-1.6261,-1.7,-1.7357,0.0,-1.6714,-1.6777,-1.6468,0.0,0.0,0.0,0.0,-1.5928,-1.5928,-1.6604,-1.7073,-1.7073,-1.7432,-1.7725,-1.7842,-1.7754,-1.7549,-1.7236,-1.6807,-1.6357,-1.5948,-1.5586,-1.5264,-1.4951,0.0,0.0,0.0,0.0,0.0,0.0,0.0,0.0,0.0,0.0,0.0,0.0,0.0,0.0,0.0,0.0,0.0,0.0,0.0,0.0,0.0,0.0,0.0,0.0,0.0,0.0,0.0,0.0,0.0,-0.133,-0.1954,0.0,0.0,0.0,0.0,-0.5328,-0.6423,-0.7183,-0.7374,-0.7489,-0.758,-0.7587,-0.7858,-0.7826,-0.7604,-0.7775,-0.7741,-0.7461,-0.7938,-0.8128,-0.7959,-0.853,-0.8836,-0.8844,-0.9011,-0.9535,-1.0289,-1.0989,-1.1821,-1.2675,-1.3019,-1.2973,-1.271,-1.2385,-1.2278,-1.2285,-1.2298,-1.2305,-1.2298,-1.2285,-1.2091,-1.1899,-1.1886,-1.1879,0.0,0.0,-1.2202,-1.2579,-1.2579,-1.3142,-1.3855,-1.4217,-1.5292,-1.636,-1.6795,-1.747,-1.7745,0.0,-1.7144,-1.736,-1.7334,0.0,-1.6075,-1.6036,-1.5684,-1.5449,-1.5449,-1.587,-1.6163,-1.6163,-1.6533,-1.6963,-1.7383,-1.7031,-1.6755,-1.6736,-1.6338,-1.5928,-1.5459,-1.542,-1.54,-1.5381,-1.4552,0.0,0.0,0.0,0.0,0.0,0.0,0.0,0.0,0.0,0.0,0.0,0.0,0.0,0.0,0.0,0.0,0.0,0.0,0.0,0.0,0.0,0.0,0.0,0.0,0.0,0.0,0.0,0.0,-0.134,-0.1657,0.0,0.0,-0.3309,-0.4283,-0.5528,-0.6082,-0.6743,-0.7597,-0.7706,-0.778,-0.7879,-0.7934,-0.7938,-0.7833,-0.7832,-0.78,-0.7745,-0.8,-0.8135,-0.8116,-0.8492,-0.8658,-0.8662,-0.8727,-0.936,-1.0338,-1.0617,-1.1419,-1.2517,-1.3194,-1.3186,-1.275,-1.2412,-1.2305,-1.2305,-1.2305,-1.2305,-1.2305,-1.2305,-1.2231,-1.2144,-1.2144,-1.2144,-1.2144,-1.2144,-1.2298,-1.2415,-1.2415,-1.3171,-1.4078,-1.4716,-1.5807,-1.6872,-1.7476,-1.7794,-1.7906,-1.7657,-1.7712,-1.7705,-1.7432,-1.6885,-1.6396,-1.6134,-1.5693,-1.541,-1.541,-1.6045,-1.6494,-1.6494,-1.6885,-1.7217,-1.7406,-1.6982,-1.658,-1.6318,-1.6183,-1.5899,-1.543,-1.541,-1.541,-1.541,-1.5079,-1.4609,0.0,0.0,0.0,0.0,0.0,0.0,0.0,0.0,0.0,0.0,0.0,0.0,0.0,0.0,0.0,0.0,0.0,0.0,0.0,0.0,0.0,0.0,0.0,0.0,0.0,0.0,-0.1159,-0.1358,-0.145,-0.1698,-0.22,-0.2693,-0.3508,-0.4793,-0.5631,-0.6457,-0.7269,-0.7617,-0.7882,-0.7985,-0.7988,-0.7988,-0.7988,-0.7886,-0.7879,-0.7919,-0.8079,-0.8135,-0.8201,-0.8476,-0.8645,-0.8653,-0.8653,-0.9116,-0.9903,-1.0284,-1.0986,-1.194,-1.2814,-1.306,-1.2891,-1.2452,-1.2305,-1.2305,-1.2305,-1.2305,-1.2305,-1.2305,-1.2305,-1.2305,-1.2305,-1.2305,-1.2305,-1.2305,-1.2342,-1.2452,-1.2739,-1.3608,-1.4617,-1.5455,-1.6339,-1.7122,-1.7692,-1.7686,-1.7545,-1.7545,-1.7812,-1.7881,-1.7461,-1.7021,-1.6551,-1.6163,-1.5693,-1.541,-1.541,-1.5888,-1.6317,-1.6494,-1.6631,-1.6836,-1.7139,-1.6621,-1.6221,-1.6105,-1.5958,-1.5713,-1.542,-1.5273,-1.5264,-1.541,-1.5273,-1.5012,-1.4667,0.0,0.0,0.0,0.0,0.0,0.0,0.0,0.0,0.0,0.0,0.0,0.0,0.0,0.0,0.0,0.0,0.0,0.0,0.0,0.0,0.0,0.0,0.0,-0.0691,-0.0934,-0.1188,-0.1391,-0.1466,-0.1472,-0.1397,-0.2422,-0.3047,-0.3092,-0.4973,-0.6219,-0.6395,-0.7272,-0.7875,-0.7985,-0.7988,-0.7988,-0.7982,-0.7934,-0.7926,-0.7915,-0.8106,-0.8216,-0.8216,-0.8492,-0.8674,-0.8828,-0.8824,-0.882,-0.8877,-1.0044,-1.0672,-1.0988,-1.194,-1.2638,-1.3126,-1.2525,-1.2305,-1.2305,-1.2305,-1.2305,-1.2305,-1.2305,-1.2305,-1.2305,-1.2305,-1.2305,-1.2305,-1.2305,-1.2452,-1.2783,-1.3579,-1.4466,-1.5428,-1.6341,-1.6831,-1.7137,-1.733,-1.7031,-1.6697,-1.6697,-1.7369,-1.7842,-1.7432,-1.7002,-1.6562,-1.6163,-1.5693,0.0,-1.541,-1.542,-1.5596,-1.6046,-1.5684,-1.5751,-1.6609,-1.5878,-1.5586,-1.6046,-1.5644,-1.541,-1.541,-1.5019,-1.5,-1.5371,-1.501,-1.5155,-1.5862,0.0,0.0,0.0,0.0,0.0,0.0,0.0,0.0,0.0,0.0,0.0,0.0,0.0,0.0,0.0,0.0,0.0,0.0,0.0,0.0,0.0,0.0,-0.0542,-0.0724,-0.1124,-0.1407,-0.153,-0.1541,-0.1543,-0.1535,-0.1806,-0.2266,-0.3065,-0.4157,-0.5282,-0.6341,-0.7187,-0.7777,-0.7982,-0.7988,-0.7938,-0.7875,-0.8038,-0.8087,-0.7969,-0.8386,-0.8567,-0.8567,-0.8854,-0.8978,-0.9015,-0.8877,-0.882,-0.8816,-0.9048,-0.9973,-1.1257,-1.201,-1.2559,-1.2864,-1.2445,-1.2305,-1.2305,-1.2305,-1.2305,-1.2305,-1.2305,-1.2305,-1.2305,-1.2305,-1.2305,-1.2305,-1.2305,-1.2342,-1.2592,-1.3499,-1.4206,-1.4948,-1.5863,-1.6459,-1.684,-1.6882,-1.6785,-1.6697,-1.6697,-1.6892,-1.7019,-1.6902,-1.6543,-1.6232,-1.6114,0.0,0.0,-1.541,-1.5693,-1.5958,-1.6085,-1.5987,-1.6016,-1.6251,-1.5732,-1.5469,0.0,-1.5478,-1.541,-1.541,-1.5303,-1.5293,-1.541,-1.5293,-1.5792,0.0,0.0,0.0,0.0,0.0,0.0,0.0,0.0,0.0,0.0,0.0,0.0,0.0,0.0,0.0,0.0,0.0,0.0,0.0,0.0,0.0,0.0,-0.021,-0.0448,-0.0594,-0.1032,-0.1397,-0.1585,-0.1557,-0.1538,-0.1551,-0.1525,-0.1742,-0.2398,-0.3231,-0.4356,-0.5659,-0.6528,-0.7308,-0.7982,-0.7988,-0.7948,-0.7909,-0.7994,-0.811,-0.8259,-0.8464,-0.8664,-0.8855,-0.9049,-0.9137,0.0,-0.9015,-0.8934,-0.8922,-0.8747,-0.9669,0.0,0.0,0.0,0.0,0.0,-1.2305,-1.2305,-1.2305,-1.2305,-1.2305,-1.2305,-1.2305,-1.2305,-1.2305,-1.2305,-1.2305,-1.2305,-1.2305,-1.2558,-1.3645,-1.4193,-1.4781,-1.5839,-1.6284,-1.6455,-1.6455,-1.6309,-1.6151,-1.6151,0.0,0.0,-1.6151,-1.6113,-1.6036,-1.585,-1.5566,-1.541,0.0,-1.5635,-1.5889,-1.6075,-1.5928,-1.5889,-1.6075,-1.5664,0.0,0.0,0.0,-1.5332,-1.5156,-1.5322,0.0,0.0,0.0,0.0,0.0,0.0,0.0,0.0,-1.9424,-1.9732,0.0,0.0,0.0,0.0,0.0,0.0,0.0,0.0,0.0,0.0,0.0,0.0,0.0,0.0,0.0,0.0,-0.0179,-0.0384,-0.0392,-0.0772,-0.1162,-0.1509,-0.1539,-0.1498,-0.1528,-0.1504,-0.1486,-0.1486,-0.2453,-0.3456,-0.4539,0.0,0.0,0.0,0.0,-0.7982,-0.7965,-0.7882,-0.8104,-0.859,-0.8437,-0.866,-0.9157,-0.9137,-0.921,-0.9392,-0.9153,-0.9064,-0.9051,-0.8869,-0.9581,-1.0824,-1.0735,-1.1671,-1.3046,-1.2505,-1.2305,0.0,0.0,0.0,0.0,-1.2305,-1.2305,-1.2305,-1.2305,-1.2305,-1.2291,-1.2265,-1.2251,-1.2542,-1.3805,-1.4263,-1.4715,-1.601,-1.6175,-1.6016,-1.6016,-1.5684,-1.541,-1.541,-1.541,-1.541,-1.541,-1.5762,-1.5889,-1.5469,-1.541,0.0,-1.541,-1.541,-1.5557,-1.5977,0.0,0.0,-1.5987,-1.5635,-1.541,-1.541,-1.541,-1.5244,-1.4873,-1.5215,-1.5511,-1.5749,-1.6105,-1.7209,-1.9016,-1.9807,-2.0816,-2.1982,-2.1151,-2.1047,0.0,0.0,0.0,0.0,0.0,0.0,0.0,0.0,0.0,0.0,0.0,0.0,0.0,0.0,0.0,0.0,-0.0046,-0.0144,-0.0392,-0.0628,-0.0919,-0.1257,-0.1412,-0.1529,-0.156,-0.1535,-0.1517,-0.1517,-0.2425,-0.3168,-0.3471,-0.5229,0.0,-0.6681,-0.754,-0.7931,-0.7858,-0.8025,-0.8304,-0.859,0.0,0.0,-0.9518,-0.9372,-0.9371,-0.9384,-0.9015,-0.8873,-0.8861,-0.8686,-0.9377,-1.0603,-1.1835,-1.2374,-1.2465,-1.2345,-1.2305,-1.2305,-1.2305,-1.2305,-1.2305,-1.2305,-1.2305,-1.2305,-1.2305,-1.2305,0.0,-1.2053,-1.1986,-1.2268,-1.3541,-1.3737,-1.3992,-1.5554,-1.5709,-1.5537,-1.5537,-1.5469,-1.541,-1.541,-1.541,-1.541,-1.541,-1.5488,-1.5508,-1.542,-1.541,-1.541,-1.541,-1.541,-1.5439,-1.5527,-1.5459,-1.5449,-1.5527,-1.5459,-1.541,-1.541,-1.541,-1.5381,-1.5293,-1.5371,-1.5651,-1.6177,-1.626,-1.7428,-1.9703,-2.0053,-2.1067,-2.2687,-2.2086,-2.2147,0.0,0.0,0.0,0.0,0.0,0.0,0.0,0.0,0.0,0.0,0.0,0.182,0.1539,0.0,0.1521,0.1604,0.1138,0.0776,0.0637,-0.0143,-0.0807,-0.1174,-0.1328,-0.1498,-0.1544,-0.1535,-0.1532,-0.1548,-0.2001,-0.2561,-0.3177,-0.4168,-0.498,-0.5577,-0.6634,-0.7155,-0.7085,-0.7779,-0.8322,-0.8709,-0.8773,-0.9067,-0.9486,-0.9307,-0.9273,-0.921,-0.8938,-0.882,-0.8837,-0.9289,-0.9871,-1.0557,-1.1992,-1.2432,-1.2305,-1.2305,-1.2305,-1.2305,-1.2305,-1.2305,-1.2305,-1.2305,-1.2305,-1.2271,-1.2131,-1.2084,-1.2024,-1.173,-1.165,-1.1847,-1.2752,-1.3188,-1.3685,-1.4748,-1.5212,-1.541,-1.541,-1.541,-1.541,-1.541,-1.541,-1.541,-1.541,-1.5234,-1.5166,-1.5381,-1.541,-1.541,-1.541,-1.541,-1.541,-1.541,-1.541,-1.541,-1.541,-1.541,-1.541,-1.541,-1.541,-1.541,-1.541,-1.541,-1.5835,-1.6726,-1.6754,-1.791,-2.0239,-2.0529,-2.1404,-2.28,-2.2659,-2.2781,0.0,0.0,0.0,0.0,0.0,0.0,0.0,0.0,0.3259,0.2795,0.3174,0.3452,0.3082,0.299,0.3055,0.3183,0.2472,0.1859,0.1852,0.0567,-0.0511,-0.08,-0.1194,-0.1468,-0.1529,-0.1535,-0.1547,-0.1578,-0.1603,-0.1969,-0.2822,-0.3073,-0.3574,-0.4474,-0.5529,-0.6184,-0.6387,-0.7238,-0.8021,-0.8682,-0.8605,-0.8812,-0.9247,-0.912,-0.9043,-0.9035,-0.8852,-0.8771,-0.882,-0.9758,-1.0272,-1.0506,-1.1614,-1.2157,-1.2305,-1.2305,-1.2305,-1.2305,-1.2305,-1.2305,-1.2305,-1.2305,-1.2265,-1.2178,-1.198,-1.1866,-1.1759,-1.1423,-1.1411,-1.1633,-1.2121,-1.2862,-1.3613,-1.4195,-1.4874,-1.5362,-1.5381,-1.541,-1.541,-1.541,-1.541,-1.5381,-1.5303,-1.5078,-1.5029,-1.5361,-1.5342,-1.5322,-1.54,-1.541,-1.541,-1.541,-1.541,-1.541,-1.541,-1.541,-1.541,-1.541,-1.541,-1.541,-1.541,-1.541,-1.5911,-1.7006,-1.7146,-1.8233,-2.0327,-2.0698,-2.1461,-2.2578,-2.2807,-2.2977,0.1956,0.2179,0.2635,0.2823,0.3273,0.3609,0.0,0.0,0.3275,0.2805,0.2771,0.2852,0.2969,0.2978,0.3027,0.32,0.2982,0.2822,0.2821,0.1498,0.0551,0.0497,-0.0685,-0.15,-0.1561,-0.1566,-0.1579,-0.1609,-0.1615,-0.1667,-0.1768,-0.2671,-0.3274,-0.3374,-0.4423,-0.5427,-0.6387,-0.6537,-0.7128,-0.8281,-0.8505,-0.8655,-0.8777,-0.8838,-0.8852,-0.884,-0.867,-0.8641,-0.8652,-0.9132,-0.9756,-1.0466,-1.1006,-1.1669,-1.2305,-1.2305,-1.2305,-1.2305,-1.2305,-1.2305,-1.2305,-1.2305,-1.2131,-1.1946,-1.1913,-1.1683,-1.1416,-1.1122,-1.1464,-1.2006,-1.2383,-1.3066,-1.3895,-1.4704,-1.5059,-1.5264,-1.5362,-1.541,-1.541,-1.541,-1.541,-1.5293,-1.4922,-1.5127,-1.5352,-1.5371,-1.5098,-1.499,-1.5361,-1.541,-1.541,-1.541,-1.541,-1.541,-1.541,-1.541,-1.541,-1.541,-1.541,-1.541,-1.541,-1.541,-1.5719,-1.6386,-1.6922,-1.7874,-1.9259,-1.9841,-2.0843,-2.2159,-2.2217,-2.2526,0.2894,0.3104,0.0,0.0,0.3804,0.4089,0.3963,0.4072,0.418,0.4058,0.418,0.4342,0.4527,0.4578,0.4658,0.0,0.4369,0.3882,0.3989,0.2081,0.0677,0.0717,-0.0593,-0.1491,-0.1517,-0.1519,-0.1532,-0.1562,-0.1564,-0.1564,-0.1564,-0.2023,-0.2283,-0.2283,-0.3304,-0.4074,-0.4528,-0.5721,-0.6597,-0.7272,-0.7823,-0.8266,-0.8559,-0.8477,-0.8532,-0.867,-0.8645,-0.8612,-0.8627,-0.904,-0.9394,-0.9792,-1.0739,-1.1298,-1.1669,-1.212,-1.2305,-1.2305,-1.2305,-1.2305,-1.2305,-1.2305,-1.2104,-1.1873,-1.1663,-1.1403,-1.1109,-1.0854,-1.0967,-1.1316,-1.1793,-1.2551,-1.3351,-1.4052,-1.4725,-1.5215,-1.5264,-1.5332,-1.541,-1.541,-1.541,-1.5352,-1.5176,-1.4883,-1.4728,-1.501,-1.4902,-1.4844,-1.5029,-1.5049,-1.5137,-1.5381,-1.541,-1.541,-1.541,-1.541,-1.541,-1.541,-1.541,-1.541,-1.541,-1.5748,-1.6226,-1.681,-1.7424,-1.8306,-1.9507,-1.9839,-2.0474,-2.1358,-2.1531,-2.1944,0.3627,0.0,0.0,0.3887,0.408,0.4308,0.4341,0.4572,0.4828,0.4985,0.5154,0.5355,0.5588,0.5667,0.5828,0.6121,0.5452,0.4912,0.5033,0.2925,0.1389,0.1397,-0.0137,-0.1205,-0.1166,-0.1353,-0.1502,-0.1477,-0.1478,-0.1478,-0.1478,-0.1547,-0.1559,-0.1559,-0.2317,-0.2877,-0.3173,-0.4884,-0.5992,-0.6432,-0.7277,-0.7891,-0.8211,-0.8215,-0.8336,-0.8608,-0.8559,-0.8535,-0.8549,-0.8711,-0.895,-0.9235,-1.0105,-1.0694,-1.1186,-1.1744,-1.2114,-1.2305,-1.2305,-1.2305,-1.2305,-1.2305,-1.2104,-1.1852,-1.1516,-1.1223,-1.0929,-1.0673,-1.0719,-1.0958,-1.1397,-1.2251,-1.31,-1.3593,-1.4449,-1.5156,-1.5186,-1.5313,-1.541,-1.541,-1.541,-1.5303,-1.5069,-1.4621,-1.4346,-1.4424,-1.4434,-1.4473,-1.459,-1.4707,-1.4853,-1.5011,-1.5273,-1.5371,-1.5244,-1.5342,-1.541,-1.541,-1.541,-1.541,-1.541,-1.5835,-1.634,-1.695,-1.7534,-1.8331,-1.9333,-1.9607,-2.0022,-2.0596,-2.0878,-2.1315,0.0,0.0,0.3843,0.405,0.4205,0.4327,0.4473,0.4602,0.4764,0.4969,0.5023,0.5098,0.5448,0.561,0.5729,0.5893,0.5861,0.5858,0.5861,0.4303,0.3154,0.3218,0.1061,-0.042,0.0,-0.1048,-0.1477,-0.1478,-0.1478,-0.1478,-0.1478,-0.1479,-0.148,-0.148,-0.1528,-0.2051,-0.3095,-0.4138,-0.5083,-0.5944,-0.7135,-0.7652,-0.7558,-0.7984,-0.8336,-0.86,-0.8377,-0.83,-0.8272,-0.7955,-0.8312,-0.8992,-0.8822,-0.9717,-1.1111,-1.1149,-1.1632,-1.2305,-1.2305,-1.2305,-1.2305,-1.2305,-1.2104,-1.1852,-1.1516,-1.1223,-1.0929,-1.0673,-1.1021,-1.1483,-1.1483,-1.2466,-1.3511,-1.3662,-1.4359,-1.5039,-1.5186,-1.5313,-1.541,-1.541,-1.541,-1.5118,-1.4289,-1.4502,-1.4492,-1.3672,-1.3545,-1.3665,-1.4075,-1.4521,-1.4629,-1.4192,-1.4894,-1.5244,-1.4834,-1.5176,-1.541,-1.541,-1.541,-1.541,-1.541,-1.541,-1.5719,-1.6312,-1.6922,-1.7545,-1.8143,-1.8732,-1.9356,-2.0028,-2.0162,-2.0634,0.0,0.0,0.4015,0.4096,0.4211,0.4311,0.4349,0.4482,0.4588,0.4637,0.4755,0.4863,0.5106,0.5292,0.5464,0.5744,0.5745,0.5817,0.589,0.4673,0.3658,0.3318,0.1938,0.0,0.0,0.0,0.0,-0.1496,-0.1477,-0.142,-0.142,-0.1485,-0.1496,-0.1496,-0.1515,-0.1668,-0.2048,-0.3006,-0.3948,-0.4881,-0.6677,-0.7553,-0.7507,-0.7981,-0.8186,-0.8123,-0.8235,-0.8219,-0.8089,-0.7894,-0.7955,-0.8247,-0.8553,-0.9377,-1.0389,-1.0881,-1.1595,-1.2305,-1.2305,-1.2305,-1.2305,-1.2305,-1.2104,-1.1852,-1.1516,-1.1223,-1.0929,-1.0673,-1.0751,-1.0989,-1.1397,-1.2151,-1.2978,-1.3442,-1.4201,-1.4804,-1.4872,-1.5079,-1.5264,-1.5264,-1.5332,-1.5322,-1.5001,-1.4601,-1.4036,-1.3223,-1.333,-1.3555,-1.3675,-1.4065,-1.427,-1.4124,-1.4874,-1.5127,-1.4414,-1.4746,-1.4873,-1.4552,-1.4834,-1.5,-1.5,-1.5646,-1.6083,-1.6312,-1.6894,-1.7506,-1.8093,-1.8282,-1.8711,-1.9332,-1.9478,-1.9917,0.389,0.3998,0.4126,0.4172,0.4243,0.43,0.43,0.4357,0.4454,0.4495,0.4536,0.4651,0.4898,0.4974,0.5129,0.5537,0.5602,0.5673,0.5874,0.5038,0.4322,0.4092,0.2877,0.1699,0.0,0.0,0.0,-0.1483,-0.1463,-0.1446,-0.1391,-0.1454,-0.1465,-0.1465,-0.1483,-0.1447,-0.1447,-0.244,-0.3562,-0.4831,-0.6204,-0.7075,-0.7421,-0.7719,-0.7846,-0.7816,-0.7917,-0.7946,-0.791,-0.7775,-0.7702,-0.7729,-0.8107,-0.877,-0.9561,-1.0351,-1.118,-1.1892,-1.2187,-1.2305,-1.2285,-1.2178,-1.2091,-1.1931,-1.1423,-1.1209,-1.1062,-1.0707,-1.0593,-1.0688,-1.1083,-1.1841,-1.2604,-1.3039,-1.3953,-1.4715,-1.4715,-1.4931,-1.5156,-1.5186,-1.5264,-1.5284,-1.5215,-1.4445,-1.3656,-1.3013,-1.3105,-1.3281,-1.3281,-1.3652,-1.3831,-1.3701,-1.4416,-1.464,-1.3948,-1.4307,-1.4434,-1.4124,-1.4367,-1.4551,-1.4551,-1.5157,-1.5603,-1.5825,-1.6369,-1.695,-1.7549,-1.7702,-1.8093,-1.8682,-1.8813,-1.9206,0.4056,0.4089,0.4156,0.427,0.43,0.43,0.43,0.4298,0.4322,0.4462,0.436,0.4387,0.4698,0.0,0.4851,0.5317,0.5413,0.5507,0.5847,0.5395,0.5177,0.0,0.0,0.0,0.0,0.0,0.0,-0.1394,0.0,-0.1468,-0.1394,-0.1391,-0.1391,-0.1391,-0.1391,-0.1391,-0.1391,-0.2374,-0.3803,-0.563,-0.5669,-0.6265,-0.7264,-0.73,-0.7421,-0.763,-0.7459,-0.7545,-0.7771,-0.7557,-0.7484,-0.7484,-0.7484,-0.7978,-0.8775,-0.9556,-1.0389,-1.1223,-1.1966,-1.2268,-1.2258,-1.202,-1.2064,-1.2118,-1.1276,-1.1196,-1.1283,-1.0754,-1.0593,-1.0593,-1.0593,-1.1507,-1.2451,-1.2451,-1.3584,-1.4647,-1.4647,-1.4813,-1.5029,-1.5156,-1.5186,-1.51,-1.4863,-1.4111,-1.3418,-1.3003,-1.2935,-1.2925,-1.2905,-1.3242,-1.335,-1.2954,-1.3633,-1.3929,-1.3516,-1.3831,-1.4065,-1.4046,-1.4065,-1.4075,-1.4075,-1.4094,-1.436,-1.493,-1.539,-1.5944,-1.6609,-1.6978,-1.7512,-1.8147,-1.8267,-1.864,0.4194,0.4183,0.4262,0.4292,0.43,0.43,0.43,0.423,0.4172,0.4202,0.4081,0.4051,0.4234,0.0,0.0,0.5072,0.5407,0.0,0.5718,0.5687,0.0,0.5398,0.0,0.4221,0.2913,0.1784,0.0,0.0,-0.1167,-0.1477,-0.147,-0.1447,-0.1391,-0.1391,-0.1391,-0.1391,-0.1391,-0.2374,-0.3491,-0.4645,-0.5275,-0.6048,-0.7008,-0.7101,-0.7128,-0.7057,-0.7289,-0.7399,-0.7359,-0.7466,-0.7484,-0.7484,-0.7484,-0.7978,-0.8737,-0.8922,-0.9906,-1.1149,-1.1335,-1.1781,-1.2291,-1.2218,-1.2098,-1.1897,-1.145,-1.1216,-1.1029,-1.0693,-1.0593,-1.0593,-1.0593,-1.1178,-1.1756,-1.1756,-1.2803,-1.3812,-1.3812,-1.4321,-1.4775,-1.4804,-1.5029,-1.51,-1.4863,-1.4637,-1.4209,-1.3457,-1.335,-1.3232,-1.2944,-1.3242,-1.335,-1.2954,-1.3633,-1.3812,-1.3105,-1.3428,-1.3535,-1.3223,-1.3496,-1.3636,-1.3636,-1.3938,-1.4184,-1.4344,-1.4453,-1.519,-1.6609,-1.6703,-1.7458,-1.8762,-1.8801,-1.8946,0.431,0.4249,0.43,0.43,0.43,0.4287,0.4232,0.4167,0.407,0.4016,0.3941,0.0,0.4085,0.4348,0.0,0.0,0.0,0.0,0.5784,0.582,0.5774,0.0,0.5513,0.0,0.3679,0.2678,0.1542,0.0,-0.0842,-0.1475,-0.1461,-0.1399,-0.1391,-0.1391,-0.1391,-0.1391,-0.1391,-0.1954,-0.2693,-0.3659,-0.4443,-0.5307,-0.6184,-0.6637,-0.6801,-0.6738,0.0,-0.7067,-0.7099,-0.7292,-0.7369,-0.7369,-0.7484,-0.7787,-0.8246,-0.896,-0.9787,-1.0677,-1.1236,-1.1825,-1.2278,-1.2151,-1.2004,-1.1826,-1.1363,-1.1122,-1.0929,-1.0673,-1.0593,-1.0593,-1.0593,-1.1052,-1.1483,-1.1483,-1.2313,-1.313,-1.345,-1.3833,-1.4291,-1.4754,-1.5029,-1.5042,-1.4582,-1.4502,-1.4209,-1.3359,-1.3232,-1.3154,-1.2935,-1.3111,-1.3145,-1.2925,-1.3301,-1.3389,-1.2944,-1.3096,-1.3135,-1.2925,-1.3105,-1.3232,-1.3232,-1.3457,-1.3584,-1.3584,-1.3743,-1.4306,-1.5232,-1.5431,-1.6105,-1.7255,-1.7455,-1.7889,0.4403,0.43,0.43,0.43,0.43,0.4268,0.4145,0.4073,0.4027,0.3905,0.0,0.383,0.4028,0.4197,0.4412,0.4717,0.0,0.5469,0.5831,0.5737,0.5841,0.6248,0.562,0.5025,0.4658,0.3468,0.2182,0.0902,-0.0559,-0.1373,-0.1397,-0.1393,-0.1389,-0.1385,-0.1385,-0.1383,-0.1379,-0.1397,-0.1859,-0.2807,-0.3504,-0.4296,-0.5227,-0.5971,-0.6412,-0.6563,0.0,0.0,-0.6865,-0.7061,-0.7142,-0.718,-0.7369,-0.7446,-0.7633,-0.9069,-0.9707,-1.005,-1.1195,-1.1886,-1.2198,-1.1904,-1.1846,-1.1745,-1.1162,-1.0969,-1.0882,-1.0667,-1.0593,-1.0593,-1.0593,-1.0996,-1.1389,-1.1389,-1.1872,-1.2543,-1.323,-1.3532,-1.3932,-1.4823,-1.5079,-1.4917,-1.4301,-1.4143,-1.3841,-1.3076,-1.2993,-1.2964,-1.2915,-1.2905,-1.2905,-1.2905,-1.2905,-1.2905,-1.2905,-1.2905,-1.2905,-1.2905,-1.2905,-1.2905,-1.2905,-1.2905,-1.2905,-1.2905,-1.3242,-1.3482,-1.3633,-1.3972,-1.4485,-1.5122,-1.569,-1.6503,0.4425,0.43,0.43,0.43,0.43,0.4268,0.4145,0.4008,0.0,0.0,0.3723,0.3682,0.3821,0.4083,0.4384,0.4679,0.0,0.0,0.0,0.0,0.5672,0.0,0.0,0.0,0.0,0.0,0.0,0.0,0.0,0.0,-0.1472,-0.1449,-0.1379,-0.1399,-0.1398,-0.1386,-0.1321,-0.1315,-0.1819,-0.2785,-0.2845,-0.366,-0.5181,-0.5238,-0.5652,-0.6377,0.0,0.0,-0.6676,-0.6865,-0.6942,-0.698,-0.718,-0.7257,-0.7296,-0.7748,-0.8765,-0.9895,-0.9918,-1.0809,-1.1933,-1.1597,-1.1503,-1.1436,-1.1096,-1.0861,-1.066,-1.0606,-1.0593,-1.0593,-1.0593,-1.0688,-1.0744,-1.0744,-1.124,-1.1849,-1.2543,-1.3644,-1.4597,-1.4941,-1.4831,-1.4703,-1.4669,-1.4375,-1.3938,-1.3477,-1.3398,-1.3271,-1.2954,-1.2905,-1.2905,-1.2905,-1.2905,-1.2905,-1.2905,-1.2905,-1.2905,-1.2905,-1.2905,-1.2905,-1.2905,-1.2905,-1.2905,-1.2905,-1.2983,-1.3402,-1.4243,-1.4316,-1.4822,-1.5756,-1.6755,-1.7306,0.4414,0.43,0.43,0.43,0.4254,0.4172,0.4019,0.0,0.0,0.0,0.3652,0.3649,0.3761,0.4084,0.0,0.4487,0.0,0.0,0.0,0.0,0.0,0.0,0.0,0.0,0.0,0.0,0.0,0.0,0.0,0.0,-0.141,-0.1428,-0.1405,-0.1391,-0.1376,-0.1319,-0.1305,-0.129,-0.153,-0.2023,-0.2379,-0.3225,-0.4493,-0.4833,-0.5473,-0.63,0.0,0.0,-0.6451,-0.6676,-0.6753,-0.6791,-0.7065,-0.7184,-0.7257,-0.7906,-0.8618,-0.9326,-0.9744,-1.0491,-1.1233,-1.1035,-1.1076,-1.1176,-1.1035,-1.0821,-1.0593,-1.0593,-1.0593,-1.0593,-1.0593,-1.0593,-1.0593,-1.0593,-1.1059,-1.1663,-1.2358,-1.3342,-1.4231,-1.4745,-1.462,-1.4438,-1.4345,-1.4038,-1.3636,-1.3242,-1.3184,-1.3105,-1.291,-1.2905,-1.2905,-1.2905,-1.2905,-1.2905,-1.2905,-1.2905,-1.2905,-1.2905,-1.2905,-1.2905,-1.2905,-1.2905,-1.2905,-1.2905,-1.2905,-1.315,-1.3609,-1.3609,-1.3869,-1.4347,-1.5086,-1.5581,0.4358,0.4262,0.4262,0.4262,0.4189,0.4054,0.3932,0.3841,0.0,0.0,0.3613,0.3654,0.3797,0.0,0.4246,0.0,0.4675,0.0,0.0,0.0,0.0,0.0,0.0,0.0,0.0,0.0,0.0,0.0,0.0,0.0,-0.1336,-0.1403,-0.1384,-0.1371,-0.1307,-0.1294,-0.1287,-0.1305,-0.1293,-0.1292,-0.1941,-0.2704,-0.356,-0.4377,-0.5198,-0.6025,0.0,0.0,0.0,-0.649,-0.6525,-0.6563,-0.6988,-0.7142,-0.7253,-0.8131,-0.8551,-0.8793,-0.9504,-1.0102,-1.0584,-1.0399,-1.0658,-1.0982,-1.0922,-1.0774,-1.0593,-1.0593,-1.0593,-1.0593,-1.0593,-1.0593,-1.0593,-1.0593,-1.1059,-1.1639,-1.2174,-1.2948,-1.3722,-1.435,-1.4315,-1.4099,-1.3894,-1.3546,-1.3212,-1.2905,-1.2881,-1.2905,-1.2905,-1.2905,-1.2905,-1.2905,-1.2905,-1.2905,-1.2905,-1.2905,-1.2905,-1.2905,-1.2905,-1.2905,-1.2905,-1.2905,-1.2905,-1.2905,-1.2905,-1.2905,-1.2905,-1.2905,-1.2905,-1.2915,-1.3461,-1.3952,0.4194,0.4102,0.4102,0.4102,0.4094,0.4054,0.3932,0.0,0.0,0.3635,0.3613,0.3653,0.3846,0.3916,0.4043,0.0,0.0,0.0,0.0,0.0,0.0,0.0,0.0,0.0,0.0,0.0,0.0,0.0,0.0,0.0,0.0,-0.1391,-0.1365,-0.1312,-0.1308,-0.1294,-0.1305,-0.1303,-0.1301,-0.1301,-0.1376,-0.1845,-0.2666,-0.3521,-0.4338,-0.516,0.0,0.0,0.0,-0.6338,-0.6338,-0.6377,-0.6753,-0.6942,-0.698,-0.7442,-0.8055,-0.8642,-0.8325,-0.9106,-1.0163,-0.9738,-1.0225,-1.0942,-1.0713,-1.0613,-1.0593,-1.0593,-1.0593,-1.0593,-1.0593,-1.0593,-1.0593,-1.0593,-1.1059,-1.1514,-1.1577,-1.2681,-1.3692,-1.3782,-1.376,-1.3739,-1.3728,-1.3176,-1.2749,-1.271,-1.2832,-1.2905,-1.2905,-1.2905,-1.2905,-1.2905,-1.2905,-1.2905,-1.2905,-1.2905,-1.2905,-1.2905,-1.2905,-1.2905,-1.2905,-1.2905,-1.2905,-1.2905,-1.2905,-1.2905,-1.2905,-1.2905,-1.2905,-1.2915,-1.3864,-1.4343,0.4529,0.4367,0.4227,0.4227,0.4083,0.3965,0.3916,0.0,0.3668,0.3621,0.3613,0.3656,0.386,0.3903,0.4,0.0,0.4409,0.4607,0.5089,0.0,0.0,0.0,0.0,0.0,0.0,0.0,0.0,0.0,0.0,0.0,0.0,-0.1337,-0.1326,-0.1303,-0.1285,-0.13,-0.123,-0.123,-0.123,-0.123,-0.123,-0.1665,-0.2511,-0.286,-0.3756,-0.5004,0.0,0.0,0.0,-0.6159,-0.6122,-0.6149,-0.6355,-0.6426,-0.6463,-0.6873,-0.7241,-0.7528,-0.775,-0.8201,-0.8801,-0.9314,-0.9783,-1.0148,-1.0493,-1.0593,-1.0593,-1.0593,-1.0593,-1.0593,-1.0593,-1.0593,-1.0593,-1.0593,-1.0639,-1.0797,-1.1384,-1.1955,-1.2547,-1.3105,-1.3202,-1.3218,-1.3218,-1.2935,-1.27,-1.27,-1.2808,-1.2905,-1.2905,-1.2905,-1.2905,-1.2905,-1.2905,-1.2905,-1.2905,-1.2905,-1.2905,-1.2905,-1.2905,-1.2905,-1.2905,-1.2905,-1.2905,-1.2905,-1.2905,-1.2905,-1.2905,-1.2905,-1.2905,-1.2905,-1.3317,-1.3485,0.4737,0.4478,0.42,0.4238,0.4056,0.3903,0.0,0.3751,0.3613,0.3613,0.3638,0.3694,0.3868,0.3932,0.4027,0.0,0.436,0.4548,0.4961,0.5078,0.0,0.0,0.0,0.0,0.0,0.0,0.0,0.0,0.0,0.0,0.0,-0.1127,-0.1289,-0.1289,-0.1308,-0.1281,-0.1212,-0.1212,-0.1207,-0.1198,-0.1198,-0.1511,-0.2111,-0.238,-0.3106,0.0,0.0,0.0,0.0,-0.5895,-0.5925,-0.5952,-0.6067,-0.6097,-0.6133,-0.6491,-0.6599,-0.6683,-0.716,-0.7466,-0.7803,-0.8858,-0.9326,-0.9646,-1.0396,-1.0593,-1.0593,-1.0593,-1.0593,-1.0593,-1.0593,-1.0593,-1.0593,-1.0593,-1.0334,-1.0289,-1.0932,-1.1182,-1.151,-1.234,-1.2561,-1.2663,-1.2818,-1.272,-1.2627,-1.2627,-1.2783,-1.2905,-1.2905,-1.2905,-1.2905,-1.2905,-1.2905,-1.2905,-1.2905,-1.2905,-1.2905,-1.2905,-1.2905,-1.2905,-1.2905,-1.2905,-1.2905,-1.2905,-1.2905,-1.2905,-1.2905,-1.2905,-1.2905,-1.2905,-1.2905,-1.2949,0.465,0.4275,0.3935,0.4056,0.3994,0.3903,0.0,0.3751,0.3613,0.3613,0.3701,0.3819,0.3881,0.4003,0.4156,0.4281,0.4531,0.4772,0.4982,0.5219,0.0,0.0,0.0,0.0,0.0,0.0,0.0,0.0,0.0,0.0,0.0,-0.0707,-0.1297,-0.1297,-0.1296,-0.1281,-0.1212,-0.1212,-0.1197,-0.1203,-0.1203,-0.1203,-0.124,-0.204,0.0,0.0,0.0,0.0,0.0,-0.5512,-0.5803,-0.5839,-0.6022,-0.6097,-0.6133,-0.6341,-0.6412,-0.639,-0.6398,-0.6881,-0.7624,-0.8304,-0.8973,-0.9646,-1.0396,-1.0593,-1.0593,-1.0593,-1.0593,-1.0593,-1.0593,-1.0593,-1.0593,-1.0593,-1.0334,-1.0083,-1.012,-1.0418,-1.0887,-1.141,-1.1728,-1.2088,-1.2611,-1.2594,-1.2505,-1.2505,-1.2735,-1.2905,-1.2905,-1.2905,-1.2905,-1.2905,-1.2905,-1.2905,-1.2905,-1.2905,-1.2905,-1.2905,-1.2905,-1.2905,-1.2905,-1.2905,-1.2905,-1.2905,-1.2905,-1.2905,-1.2905,-1.2905,-1.2905,-1.2905,-1.2905,-1.3105,0.4582,0.4201,0.3914,0.3951,0.3901,0.3841,0.3841,0.3723,0.3635,0.3712,0.3756,0.3846,0.4023,0.4059,0.4211,0.4531,0.0,0.0,0.0,0.0,0.0,0.0,0.0,0.0,0.0,0.0,0.0,0.0,0.0,0.0,0.0,0.0,-0.11,-0.1296,-0.1237,-0.1211,-0.1218,-0.116,-0.1144,-0.1136,-0.1136,-0.1146,-0.1203,-0.1458,0.0,0.0,0.0,0.0,0.0,-0.5409,-0.5657,-0.5647,-0.5645,-0.5607,-0.5637,-0.5804,-0.5868,-0.5861,-0.6019,-0.6297,-0.6813,-0.7927,-0.8522,-0.9037,-1.0231,-1.0593,-1.0593,-1.0593,-1.0593,-1.0593,-1.0593,-1.0593,-1.0593,-1.0593,-1.0334,-1.0083,-1.0083,-1.0184,-1.0341,-1.0499,-1.0729,-1.1063,-1.1643,-1.1824,-1.2017,-1.2431,-1.2735,-1.2905,-1.2905,-1.2905,-1.2905,-1.2905,-1.2905,-1.2905,-1.2905,-1.2905,-1.2905,-1.2905,-1.2905,-1.2905,-1.2905,-1.2905,-1.2905,-1.2905,-1.2905,-1.2905,-1.2905,-1.2905,-1.2905,-1.2905,-1.2905,-1.3105,0.4436,0.4133,0.3876,0.3892,0.3844,0.3812,0.3812,0.3728,0.3695,0.3798,0.3857,0.3936,0.4088,0.4156,0.4259,0.452,0.4629,0.0,0.0,0.0,0.0,0.0,0.0,0.0,0.0,0.0,0.0,0.0,0.0,0.0,0.0,0.0,-0.0664,-0.1124,-0.1183,-0.1197,-0.1203,-0.1136,-0.1115,-0.1104,-0.1104,-0.112,-0.1149,0.0,0.0,0.0,0.0,0.0,0.0,-0.474,-0.5123,-0.5114,-0.5329,-0.5395,-0.5425,-0.5488,-0.5521,-0.5554,-0.5719,-0.5885,-0.6178,-0.7414,-0.8291,-0.9102,-1.0238,-1.0593,-1.0593,-1.0593,-1.0593,-1.0593,-1.0593,-1.0593,-1.0566,-1.0452,-1.0167,-0.992,-0.9784,-0.9687,-0.9733,-1.0128,-1.0314,-1.0652,-1.1469,-1.1744,-1.1993,-1.2372,-1.2652,-1.2832,-1.2832,-1.2856,-1.2905,-1.2905,-1.2905,-1.2905,-1.2905,-1.2905,-1.2905,-1.2905,-1.2905,-1.2905,-1.2905,-1.2905,-1.2905,-1.2905,-1.2905,-1.2905,-1.2905,-1.2905,-1.2905,-1.2905,-1.2905,-1.3018,0.0,0.4088,0.3797,0.3851,0.3825,0.3798,0.3798,0.3798,0.0,0.3791,0.3947,0.4081,0.4137,0.4235,0.4322,0.4346,0.0,0.0,0.0,0.0,0.0,0.0,0.0,0.0,0.0,0.0,0.0,0.0,0.0,0.0,0.0,0.0,0.0,-0.0795,-0.1056,-0.1192,-0.12,-0.1133,-0.1104,-0.1109,-0.1109,-0.109,-0.1117,0.0,0.0,0.0,0.0,0.0,0.0,-0.3685,-0.4287,-0.4386,-0.5126,-0.5395,-0.5395,-0.5395,-0.5395,-0.5428,-0.5554,-0.5583,-0.5778,-0.692,-0.8285,-0.9646,-1.0396,-1.0593,-1.0593,-1.0593,-1.0593,-1.0593,-1.0593,-1.0579,-1.0492,-1.018,-0.9893,-0.9599,-0.9277,-0.8998,-0.9108,-1.009,-1.0295,-1.0652,-1.1785,-1.2092,-1.22,-1.2283,-1.2529,-1.2686,-1.2686,-1.2808,-1.2881,-1.2881,-1.2881,-1.2905,-1.2905,-1.2905,-1.2905,-1.2905,-1.2905,-1.2905,-1.2905,-1.2905,-1.2905,-1.2905,-1.2905,-1.2905,-1.2905,-1.2905,-1.2905,-1.2905,-1.2905,-1.2905,0.3831,0.0,0.366,0.3659,0.3673,0.3652,0.0,0.3652,0.3704,0.3854,0.3908,0.4029,0.4336,0.4446,0.452,0.4803,0.0,0.0,0.0,0.0,0.0,0.0,0.0,0.0,0.0,0.0,0.0,0.0,0.0,0.0,0.0,0.0,0.0,0.0113,-0.0583,-0.1032,-0.1132,-0.1102,-0.1116,-0.1109,-0.1109,-0.1113,-0.1086,0.0,0.0,0.0,0.0,0.0,-0.2213,-0.3685,-0.4287,-0.4386,-0.5126,-0.5395,-0.5395,-0.5395,-0.5395,-0.5395,-0.5425,-0.5521,-0.5877,-0.7447,-0.8646,-0.9646,-1.0396,-1.0593,-1.0593,-1.0593,-1.0593,-1.0593,-1.0593,-1.0419,-1.02,-1.0134,-0.9893,-0.9599,-0.9277,-0.9158,-0.9126,-0.9155,-0.9185,-0.9517,-1.0601,-1.0906,-1.1292,-1.2166,-1.2431,-1.2554,-1.2554,-1.2652,-1.2759,-1.2759,-1.2832,-1.2905,-1.2905,-1.2905,-1.2905,-1.2905,-1.2905,-1.2905,-1.2905,-1.2905,-1.2905,-1.2905,-1.2905,-1.2905,-1.2905,-1.2905,-1.2905,-1.2905,-1.2905,-1.2905,0.3489,0.3643,0.3747,0.3917,0.3832,0.3706,0.3732,0.3702,0.3758,0.3938,0.0,0.411,0.4449,0.4503,0.0,0.0,0.0,0.0,0.0,0.0,0.0,0.0,0.0,0.0,0.0,0.0,0.0,0.0,0.0,0.0,0.0,0.0,0.0,0.0,-0.0036,-0.063,-0.1086,-0.1091,-0.1109,-0.1109,-0.1109,-0.1117,-0.1096,0.0,0.0,0.0,0.0,0.0,-0.1712,-0.2848,-0.3482,-0.3885,-0.4622,-0.5093,-0.5395,-0.5395,-0.5395,-0.5395,-0.5395,-0.5557,-0.5947,-0.719,-0.8258,-0.9166,-0.9875,-1.0333,-1.0593,-1.0593,-1.0593,-1.0559,-1.0425,-1.0241,-1.0017,-0.975,-0.9564,-0.9399,-0.9078,-0.9011,-0.9045,-0.9141,-0.9159,-0.9439,-1.0261,-1.0466,-1.0804,-1.1719,-1.1952,-1.215,-1.2455,-1.2627,-1.2725,-1.2783,-1.2856,-1.2905,-1.2905,-1.2905,-1.2905,-1.2905,-1.2905,-1.2905,-1.2905,-1.2905,-1.2905,-1.2905,-1.2905,-1.2905,-1.2905,-1.2905,-1.2905,-1.2905,-1.2905,-1.2905,0.3365,0.3683,0.4068,0.4426,0.4278,0.4016,0.4095,0.0,0.0,0.0,0.0,0.0,0.4482,0.4534,0.0,0.0,0.0,0.0,0.0,0.0,0.0,0.0,0.0,0.0,0.0,0.0,0.0,0.0,0.0,0.0,0.0,0.0,0.0,0.0,0.0523,-0.0139,-0.1045,-0.1089,-0.1109,-0.1109,-0.1109,-0.1089,-0.1113,-0.1087,0.0,0.0,0.0,0.0,-0.1176,-0.1946,-0.2648,-0.3282,-0.4151,-0.4858,-0.5395,-0.5395,-0.5395,-0.5395,-0.5395,-0.5594,-0.5987,-0.6666,-0.7544,-0.8452,-0.9262,-0.9913,-1.0393,-1.0494,-1.0526,-1.0466,-1.018,-1.0023,-0.983,-0.9331,-0.9178,-0.9078,-0.8858,-0.8804,-0.8929,-0.9387,-0.9484,-0.964,-1.0192,-1.0287,-1.0474,-1.1057,-1.1267,-1.1569,-1.2224,-1.2421,-1.2603,-1.2832,-1.2856,-1.2881,-1.2905,-1.2905,-1.2905,-1.2905,-1.2905,-1.2905,-1.2905,-1.2905,-1.2905,-1.2905,-1.2905,-1.2905,-1.2905,-1.2905,-1.2905,-1.2905,-1.2905,-1.2905,0.3806,0.434,0.478,0.5009,0.5035,0.4984,0.5009,0.4858,0.0,0.0,0.0,0.0,0.0,0.466,0.4736,0.0,0.0,0.0,0.0,0.0,0.0,0.0,0.0,0.0,0.0,0.0,0.0,0.0,0.0,0.0,0.0,0.0,0.0,0.0,0.0,0.0203,-0.0848,-0.1012,-0.1109,-0.1109,-0.1109,-0.1112,-0.1116,-0.1111,-0.1112,0.0,0.0,-0.1109,-0.121,-0.248,-0.3082,-0.3349,-0.4688,-0.5292,-0.5395,-0.5395,-0.5395,-0.5395,-0.5395,-0.5524,-0.5782,-0.6634,-0.7116,-0.7665,-0.9064,-0.9424,-0.9439,-1.0028,-1.018,-1.0174,-1.0097,-0.9717,-0.9324,-0.9231,-0.9024,-0.8864,-0.8818,-0.8804,-0.8831,-0.891,-0.8936,-0.908,-0.964,-0.971,-0.9917,-1.0474,-1.055,-1.0787,-1.1418,-1.1603,-1.1902,-1.2505,-1.2652,-1.2783,-1.2881,-1.2905,-1.2905,-1.2905,-1.2905,-1.2905,-1.2905,-1.2905,-1.2905,-1.2905,-1.2905,-1.2905,-1.2905,-1.2905,-1.2905,-1.2905,-1.2905,-1.2905,0.3837,0.467,0.5502,0.5788,0.5592,0.5342,0.5403,0.5318,0.0,0.0,0.0,0.0,0.0,0.0,0.0,0.0,0.0,0.0,0.0,0.0,0.0,0.0,0.0,0.0,0.0,0.0,0.0,0.0,0.0,0.0,0.0,0.0,0.0,0.0,0.0,0.0974,0.0067,-0.0606,-0.0976,-0.1109,-0.1109,-0.1109,-0.1109,-0.1109,-0.1109,-0.1109,0.0,-0.1109,-0.1143,-0.1812,-0.2515,-0.3282,-0.3951,-0.4688,-0.5395,-0.5395,-0.5395,-0.5395,-0.5395,-0.5491,-0.5679,-0.6075,-0.6658,-0.7344,-0.8054,-0.8505,-0.89,-0.9414,-0.973,-0.9846,-0.9657,-0.9411,-0.9171,-0.9018,-0.8878,-0.8804,-0.8804,-0.8804,-0.8804,-0.8804,-0.8804,-0.8883,-0.914,-0.9159,-0.9335,-0.9891,-0.9969,-1.02,-1.0838,-1.1259,-1.1619,-1.1993,-1.2348,-1.2627,-1.2676,-1.2749,-1.2832,-1.2905,-1.2905,-1.2905,-1.2905,-1.2905,-1.2905,-1.2905,-1.2905,-1.2905,-1.2905,-1.2905,-1.2905,-1.2905,-1.2905,-1.2905,0.3775,0.4798,0.5897,0.6203,0.5953,0.5673,0.5923,0.588,0.5867,0.0,0.0,0.0,0.0,0.0,0.0,0.0,0.0,0.0,0.0,0.0,0.0,0.0,0.0,0.0,0.0,0.0,0.0,0.0,0.0,0.0,0.0,0.0,0.0,0.0,0.0,0.0,0.0807,0.0,-0.064,-0.1043,-0.1076,-0.1109,-0.1109,-0.1109,-0.1109,-0.1109,-0.1109,-0.1109,-0.1109,-0.1276,-0.198,-0.2982,-0.3316,-0.4253,-0.5395,-0.5395,-0.5395,-0.5395,-0.5395,-0.5458,-0.555,-0.5583,-0.617,-0.6878,-0.7062,-0.7562,-0.8148,-0.8769,-0.9103,-0.9262,-0.9223,-0.9164,-0.9051,-0.8858,-0.8804,-0.8804,-0.8804,-0.8804,-0.8804,-0.8804,-0.8804,-0.8804,-0.8804,-0.8804,-0.8936,-0.9361,-0.9413,-0.964,-1.0287,-1.0889,-1.1334,-1.156,-1.2092,-1.248,-1.2505,-1.2627,-1.2735,-1.2856,-1.2881,-1.2905,-1.2905,-1.2905,-1.2905,-1.2905,-1.2905,-1.2905,-1.2905,-1.2905,-1.2905,-1.2905,-1.2905,-1.2905,0.3768,0.4702,0.5686,0.5873,0.61,0.6384,0.6943,0.6894,0.0,0.6894,0.0,0.0,0.0,0.0,0.0,0.0,0.0,0.0,0.0,0.0,0.0,0.0,0.0,0.0,0.0,0.0,0.0,0.0,0.0,0.0,0.0,0.0,0.0,0.0,0.0,0.0,0.0807,0.0739,0.0168,-0.0809,-0.1009,-0.1109,-0.1109,-0.1109,-0.1109,-0.1109,-0.1109,-0.1109,-0.1143,-0.1779,-0.2079,-0.2313,-0.3685,-0.4688,-0.5395,-0.5395,-0.5395,-0.5395,-0.5395,-0.5395,-0.5425,-0.555,-0.565,-0.5884,-0.6682,-0.6784,-0.6892,-0.8114,-0.8245,-0.8201,-0.9,-0.9011,-0.8831,-0.8811,-0.8804,-0.8804,-0.8804,-0.8804,-0.8804,-0.8804,-0.8804,-0.8804,-0.8804,-0.8804,-0.8804,-0.8857,-0.8857,-0.9061,-0.9614,-1.0141,-1.0728,-1.1418,-1.2002,-1.2357,-1.248,-1.2627,-1.27,-1.27,-1.2832,-1.2905,-1.2905,-1.2905,-1.2905,-1.2905,-1.2905,-1.2905,-1.2905,-1.2905,-1.2905,-1.2905,-1.2905,-1.2905,0.3654,0.4609,0.5628,0.5697,0.5839,0.0,0.0,0.6998,0.7292,0.7294,0.7605,0.0,0.0,0.0,0.0,0.0,0.0,0.0,0.0,0.0,0.0,0.0,0.0,0.0,0.0,0.0,0.0,0.0,0.0,0.0,0.0,0.0,0.0,0.0,0.0,0.0,0.0,0.1075,0.037,-0.0506,-0.0775,-0.0909,-0.0909,-0.1043,-0.1109,-0.1109,-0.1109,-0.1109,-0.1109,-0.1377,-0.1712,-0.2248,-0.3718,-0.4755,-0.5395,-0.5395,-0.5395,-0.5395,-0.5395,-0.5395,-0.5395,-0.5458,-0.5521,-0.565,-0.6002,-0.6095,-0.6349,-0.7417,-0.7633,-0.7742,-0.8708,-0.8865,-0.8804,-0.8804,-0.8804,-0.8804,-0.8804,-0.8804,-0.8804,-0.8804,-0.8804,-0.8804,-0.8804,-0.8804,-0.8804,-0.8804,-0.8804,-0.8883,-0.9087,-0.9562,-1.002,-1.0285,-1.1133,-1.1719,-1.1877,-1.2308,-1.2603,-1.27,-1.2832,-1.2905,-1.2905,-1.2905,-1.2905,-1.2905,-1.2905,-1.2905,-1.2905,-1.2905,-1.2905,-1.2905,-1.2905,-1.2905,0.3657,0.4602,0.5624,0.5685,0.0,0.0,0.6258,0.6858,0.7364,0.75,0.7895,0.0,0.0,0.0,0.0,0.0,0.0,0.0,0.0,0.0,0.0,0.0,0.0,0.0,0.0,0.0,0.0,0.0,0.0,0.0,0.0,0.0,0.0,0.0,0.0,0.0,0.0,0.1611,0.084,0.0135,-0.0404,-0.0708,-0.0809,-0.1009,-0.1109,-0.1109,-0.1109,-0.1109,-0.1109,-0.1109,-0.1511,-0.2213,-0.3485,-0.4386,-0.5093,-0.5329,-0.5395,-0.5395,-0.5395,-0.5395,-0.5385,-0.5337,-0.5349,-0.5438,-0.5456,-0.5547,-0.5821,-0.6715,-0.7088,-0.7445,-0.8279,-0.8666,-0.8804,-0.8804,-0.8804,-0.8804,-0.8804,-0.8804,-0.8804,-0.8804,-0.8804,-0.8804,-0.8804,-0.8804,-0.8804,-0.8804,-0.8804,-0.8804,-0.8804,-0.9263,-0.9666,-0.984,-1.0541,-1.1057,-1.1124,-1.1794,-1.2224,-1.2323,-1.2603,-1.2808,-1.2905,-1.2905,-1.2905,-1.2905,-1.2905,-1.2905,-1.2905,-1.2905,-1.2905,-1.2905,-1.2905,-1.2905,0.3809,0.468,0.5657,0.5839,0.0,0.0,0.6094,0.6463,0.6888,0.7482,0.0,0.7808,0.0,0.0,0.0,0.0,0.0,0.0,0.0,0.0,0.0,0.0,0.0,0.0,0.0,0.0,0.0,0.0,0.0,0.0,0.0,0.0,0.0,0.0,0.0,0.0,0.0,0.248,0.1779,0.1109,0.0168,-0.0472,-0.0809,-0.1009,-0.1109,-0.1109,-0.1109,-0.1109,-0.1109,-0.1109,-0.151,-0.2178,-0.2913,-0.3649,-0.4384,-0.512,-0.5392,-0.5392,-0.5392,-0.5392,-0.5365,-0.5179,-0.5096,-0.5102,-0.51,-0.5093,-0.5256,-0.5991,-0.6615,-0.7219,-0.7738,-0.8335,-0.8778,-0.8804,-0.8804,-0.8804,-0.8804,-0.8804,-0.8804,-0.8804,-0.8804,-0.8804,-0.8804,-0.8804,-0.8804,-0.8804,-0.8804,-0.8804,-0.8804,-0.9263,-0.9788,-1.0346,-1.0389,-1.0389,-1.0389,-1.1074,-1.1494,-1.1502,-1.2126,-1.2603,-1.2881,-1.2905,-1.2905,-1.2905,-1.2905,-1.2905,-1.2905,-1.2905,-1.2905,-1.2905,-1.2905,-1.2905,0.3563,0.4311,0.0,0.556,0.0,0.0,0.0,0.6571,0.0,0.0,0.0,0.0,0.0,0.0,0.0,0.0,0.0,0.0,0.0,0.0,0.0,0.0,0.0,0.0,0.0,0.0,0.0,0.0,0.0,0.0,0.0,0.0,0.0,0.0,0.0,0.0,0.0,0.0,0.2514,0.1812,0.141,0.0605,-0.0607,-0.0809,-0.0976,-0.1109,-0.1109,-0.1109,-0.1109,-0.1109,-0.151,-0.2124,-0.2329,-0.3121,-0.4102,-0.4324,-0.4672,-0.505,-0.505,-0.505,-0.5043,-0.4965,-0.4951,-0.4975,-0.5071,-0.5093,-0.5256,-0.5991,-0.6317,-0.6588,-0.7187,-0.7456,-0.7809,-0.8619,-0.8804,-0.8804,-0.8804,-0.8804,-0.8804,-0.8804,-0.8804,-0.8804,-0.8804,-0.8804,-0.8804,-0.8804,-0.8804,-0.8804,-0.8804,-0.8936,-0.9113,-0.9263,-0.9614,-0.984,-0.984,-1.0474,-1.104,-1.1469,-1.1744,-1.2092,-1.2603,-1.2627,-1.2627,-1.2627,-1.27,-1.27,-1.2627,-1.2808,-1.2856,-1.2759,-1.2856,-1.2856,0.3632,0.429,0.0,0.5741,0.5961,0.6049,0.6186,0.0,0.0,0.0,0.0,0.0,0.0,0.0,0.0,0.0,0.0,0.0,0.0,0.0,0.0,0.0,0.0,0.0,0.0,0.0,0.0,0.0,0.0,0.0,0.0,0.0,0.0,0.0,0.0,0.0,0.0,0.0,0.0,0.2547,0.2121,0.1386,0.0364,-0.0134,-0.0606,-0.0975,-0.1031,-0.1059,-0.1058,-0.1046,-0.1306,-0.1699,-0.1982,-0.2566,-0.3322,-0.3814,-0.4241,-0.4583,-0.4826,-0.4887,-0.4877,-0.485,-0.4826,-0.4829,-0.4905,-0.494,-0.5031,-0.5534,-0.5882,-0.6213,-0.6571,-0.6869,-0.7327,-0.8235,-0.8448,-0.8501,-0.8752,-0.8804,-0.8804,-0.8804,-0.8804,-0.8804,-0.8804,-0.8804,-0.8804,-0.8804,-0.8804,-0.8804,-0.8804,-0.8804,-0.8804,-0.8804,-0.9087,-0.929,-0.929,-0.984,-1.0448,-1.1023,-1.1334,-1.1744,-1.2323,-1.2431,-1.2505,-1.2505,-1.2578,-1.2578,-1.2505,-1.2652,-1.27,-1.2627,-1.27,-1.2735,0.3789,0.4418,0.5091,0.602,0.6213,0.0,0.6186,0.6282,0.64,0.0,0.0,0.0,0.0,0.0,0.0,0.0,0.0,0.0,0.0,0.0,0.0,0.0,0.0,0.0,0.0,0.0,0.0,0.0,0.0,0.0,0.0,0.0,0.0,0.0,0.0,0.0,0.0,0.0,0.0,0.0,0.2536,0.2052,0.176,0.0757,-0.01,-0.0835,-0.0944,-0.0996,-0.0992,-0.0999,-0.0985,-0.1072,-0.1717,-0.2022,-0.2201,-0.3385,-0.3873,-0.4055,-0.4602,-0.4817,-0.4853,-0.4714,-0.467,-0.4672,-0.4706,-0.4691,-0.4715,-0.4873,-0.5395,-0.5891,-0.5918,-0.6408,-0.7079,-0.7691,-0.7818,-0.7984,-0.8586,-0.8725,-0.8725,-0.8778,-0.8804,-0.8804,-0.8804,-0.8804,-0.8804,-0.8804,-0.8804,-0.8804,-0.8804,-0.8804,-0.8804,-0.8804,-0.8804,-0.8804,-0.8804,-0.9237,-0.9762,-1.0287,-1.0846,-1.1393,-1.1918,-1.2274,-1.2455,-1.2455,-1.248,-1.248,-1.2455,-1.2505,-1.2505,-1.2505,-1.2529,-1.2603,0.2899,0.3487,0.0,0.0,0.5567,0.5975,0.5975,0.5973,0.6033,0.0,0.0,0.0,0.0,0.0,0.0,0.0,0.0,0.0,0.0,0.0,0.0,0.0,0.0,0.0,0.0,0.0,0.0,0.0,0.0,0.0,0.0,0.0,0.0,0.0,0.0,0.0,0.43,0.4131,0.4018,0.0,0.3739,0.3303,0.2578,0.1062,-0.0126,-0.0945,-0.1001,-0.0984,-0.0934,-0.0982,-0.096,-0.0948,-0.1091,-0.1435,-0.1887,-0.217,-0.2882,-0.3707,-0.3849,-0.4188,-0.4583,-0.4549,-0.4539,-0.456,-0.4671,-0.4691,-0.4715,-0.4873,-0.5011,-0.5148,-0.5262,-0.5399,-0.5832,-0.6999,-0.7268,-0.7429,-0.7984,-0.809,-0.8229,-0.8699,-0.8804,-0.8804,-0.8804,-0.8804,-0.8804,-0.8804,-0.8804,-0.8804,-0.8804,-0.8804,-0.8804,-0.8804,-0.8804,-0.8804,-0.8804,-0.891,-0.9211,-0.9736,-0.9899,-1.02,-1.0754,-1.1685,-1.2175,-1.2175,-1.2283,-1.2298,-1.2175,-1.2505,-1.2603,-1.2505,-1.2725,-1.2774,0.272,0.0,0.0,0.506,0.0,0.5864,0.5774,0.5823,0.0,0.0,0.0,0.0,0.0,0.0,0.0,0.0,0.0,0.0,0.0,0.0,0.0,0.0,0.0,0.0,0.0,0.0,0.0,0.0,0.0,0.0,0.0,0.0,0.0,0.0,0.427,0.0,0.4213,0.4213,0.4151,0.3997,0.3971,0.3515,0.2648,0.1092,0.0092,-0.0493,-0.082,-0.0928,-0.0913,-0.0944,-0.0926,-0.0899,-0.0886,-0.1081,-0.14,-0.1706,-0.2209,-0.282,-0.3403,-0.3793,-0.4125,-0.4405,-0.4491,-0.4519,-0.4574,-0.4605,-0.4629,-0.468,-0.4767,-0.4822,-0.4881,-0.4959,-0.5203,-0.5968,-0.662,-0.7327,-0.815,-0.8335,-0.8421,-0.8752,-0.8804,-0.8804,-0.8804,-0.8804,-0.8804,-0.8804,-0.8804,-0.8804,-0.8804,-0.8804,-0.8804,-0.8804,-0.8804,-0.8804,-0.8804,-0.8804,-0.9035,-0.9562,-0.9588,-0.984,-1.0389,-1.0964,-1.1426,-1.1694,-1.1803,-1.1902,-1.2101,-1.2298,-1.2382,-1.2298,-1.2446,-1.2505,0.2621,0.0,0.4095,0.5348,0.5735,0.0,0.5575,0.5685,0.0,0.0,0.0,0.0,0.0,0.0,0.0,0.0,0.0,0.0,0.0,0.0,0.0,0.0,0.0,0.0,0.0,0.0,0.0,0.0,0.0,0.0,0.0,0.0,0.4181,0.4181,0.4216,0.4189,0.4054,0.4054,0.3994,0.3873,0.381,0.3385,0.2657,0.13,0.0484,0.0091,-0.0591,-0.0877,-0.0904,-0.0908,-0.0898,-0.0898,-0.0898,-0.0898,-0.0953,-0.1456,-0.1706,-0.1958,-0.307,-0.3514,-0.371,-0.4294,-0.4491,-0.4491,-0.4491,-0.4491,-0.4491,-0.4491,-0.4574,-0.466,-0.4688,-0.4794,-0.4928,-0.5179,-0.6077,-0.716,-0.8268,-0.8586,-0.8672,-0.8778,-0.8804,-0.8804,-0.8804,-0.8804,-0.8804,-0.8804,-0.8804,-0.8804,-0.8804,-0.8804,-0.8804,-0.8804,-0.8804,-0.8804,-0.8804,-0.8804,-0.8982,-0.9439,-0.9465,-0.9666,-1.0115,-1.0115,-1.0405,-1.0981,-1.1091,-1.136,-1.1819,-1.1843,-1.1834,-1.1834,-1.1968,-1.2067,0.0,0.0,0.3877,0.0,0.5031,0.5361,0.0,0.0,0.0,0.0,0.0,0.0,0.0,0.0,0.0,0.0,0.0,0.0,0.0,0.0,0.0,0.0,0.0,0.0,0.0,0.0,0.0,0.0,0.0,0.0,0.0,0.4748,0.4544,0.4544,0.4159,0.3943,0.3927,0.3927,0.3898,0.3805,0.369,0.3568,0.3416,0.2287,0.119,0.0141,-0.0452,-0.079,-0.0903,-0.0899,-0.0898,-0.0898,-0.0898,-0.0898,-0.0898,-0.0981,-0.1344,-0.1902,-0.2597,-0.3153,-0.371,-0.4294,-0.4491,-0.4491,-0.4491,-0.4491,-0.4491,-0.4491,-0.4519,-0.4546,-0.466,-0.4715,-0.4904,-0.5559,-0.5855,-0.6209,-0.7133,-0.7696,-0.8176,-0.8699,-0.8804,-0.8804,-0.8804,-0.8804,-0.8804,-0.8804,-0.8804,-0.8804,-0.8804,-0.8804,-0.8804,-0.8804,-0.8804,-0.8804,-0.8804,-0.8804,-0.8831,-0.891,-0.891,-0.8936,-0.9008,-0.9008,-0.9263,-0.9821,-1.0269,-1.0576,-1.0626,-1.0745,-1.0796,-1.0821,-1.1392,-1.1685,0.2249,0.274,0.3354,0.0,0.4684,0.4936,0.0,0.0,0.0,0.0,0.0,0.0,0.0,0.0,0.0,0.0,0.0,0.0,0.0,0.0,0.0,0.0,0.0,0.0,0.0,0.0,0.0,0.0,0.0,0.0,0.5088,0.4943,0.4753,0.4486,0.4351,0.0,0.3835,0.3833,0.3802,0.3687,0.3635,0.3613,0.3583,0.2768,0.1815,0.0782,-0.0056,-0.0589,-0.0898,-0.0898,-0.0898,-0.0898,-0.0898,-0.0898,-0.0898,-0.0898,-0.1065,-0.1372,-0.1986,-0.2597,-0.3209,-0.3793,-0.4211,-0.4491,-0.4491,-0.4491,-0.4491,-0.4491,-0.4491,-0.4519,-0.4574,-0.4574,-0.4712,-0.5171,-0.5555,-0.5937,-0.648,-0.7235,-0.799,-0.8672,-0.8804,-0.8804,-0.8804,-0.8804,-0.8804,-0.8804,-0.8804,-0.8804,-0.8804,-0.8804,-0.8804,-0.8804,-0.8804,-0.8804,-0.8804,-0.8804,-0.8804,-0.8804,-0.8804,-0.8804,-0.8804,-0.8804,-0.8903,-0.9133,-0.9692,-1.0277,-1.0897,-1.0973,-1.115,-1.1451,-1.1735,-1.1893,0.0,0.0,0.3153,0.4042,0.4491,0.4798,0.0,0.0,0.0,0.0,0.0,0.0,0.0,0.0,0.0,0.0,0.0,0.0,0.0,0.0,0.0,0.0,0.0,0.0,0.0,0.0,0.0,0.0,0.0,0.0,0.5258,0.5217,0.5058,0.4712,0.4559,0.4298,0.3909,0.3797,0.3695,0.3613,0.3613,0.3613,0.3583,0.3047,0.2319,0.1426,0.0392,-0.0308,-0.0729,-0.0842,-0.0898,-0.0898,-0.0898,-0.0898,-0.0898,-0.0898,-0.0898,-0.0981,-0.1595,-0.2097,-0.2597,-0.3347,-0.3904,-0.4294,-0.4463,-0.4491,-0.4491,-0.4491,-0.4491,-0.4491,-0.4491,-0.4491,-0.4546,-0.4763,-0.5144,-0.5637,-0.629,-0.702,-0.7702,-0.8268,-0.848,-0.856,-0.856,-0.8699,-0.8804,-0.8804,-0.8804,-0.8804,-0.8804,-0.8804,-0.8804,-0.8804,-0.8804,-0.8804,-0.8804,-0.8804,-0.8804,-0.8804,-0.8804,-0.8804,-0.8804,-0.8804,-0.8804,-0.8804,-0.9185,-0.9829,-1.0659,-1.0659,-1.0854,-1.1259,-1.141,-1.146,0.0,0.2685,0.0,0.3627,0.0,0.0,0.0,0.0,0.0,0.0,0.0,0.0,0.0,0.0,0.0,0.0,0.0,0.0,0.0,0.0,0.0,0.0,0.0,0.0,0.0,0.0,0.0,0.0,0.0,0.0,0.6119,0.5768,0.5553,0.5525,0.4671,0.4196,0.4187,0.3811,0.3619,0.3613,0.3613,0.3613,0.3583,0.3244,0.2685,0.1902,0.084,0.014,-0.028,-0.0729,-0.0898,-0.0898,-0.0898,-0.0898,-0.0898,-0.0898,-0.0898,-0.0981,-0.1595,-0.1818,-0.204,-0.3209,-0.3627,-0.3766,-0.4322,-0.4491,-0.4491,-0.4491,-0.4491,-0.4491,-0.4491,-0.4491,-0.4519,-0.4519,-0.4546,-0.5038,-0.6701,-0.7085,-0.7139,-0.7192,-0.761,-0.7951,-0.7951,-0.8421,-0.8804,-0.8804,-0.8804,-0.8804,-0.8804,-0.8804,-0.8804,-0.8804,-0.8804,-0.8804,-0.8804,-0.8804,-0.8804,-0.8804,-0.8804,-0.8804,-0.8804,-0.8804,-0.8804,-0.8804,-0.8831,-0.8857,-0.8936,-0.8936,-0.8936,-0.8989,-0.9491,-0.9744,0.0,0.0,0.0,0.3405,0.3904,0.0,0.0,0.0,0.0,0.0,0.0,0.0,0.0,0.0,0.0,0.0,0.0,0.0,0.0,0.0,0.0,0.0,0.0,0.0,0.0,0.0,0.0,0.0,0.0,0.0,0.6205,0.6064,0.581,0.5412,0.5086,0.4604,0.4023,0.3734,0.3545,0.3468,0.3468,0.3425,0.3349,0.3216,0.293,0.2463,0.1597,0.069,-0.0217,-0.0434,-0.0678,-0.0898,-0.089,-0.0898,-0.0898,-0.0898,-0.0898,-0.0926,-0.1149,-0.1484,-0.1874,-0.2291,-0.2708,-0.3125,-0.3735,-0.3932,-0.4018,-0.4377,-0.4491,-0.4491,-0.4491,-0.4491,-0.4519,-0.4605,-0.4684,-0.4928,-0.5555,-0.6127,-0.6642,-0.7031,-0.7268,-0.7402,-0.7402,-0.7857,-0.8229,-0.8229,-0.856,-0.8804,-0.8804,-0.8804,-0.8804,-0.8804,-0.8804,-0.8804,-0.8804,-0.8804,-0.8804,-0.8804,-0.8804,-0.8804,-0.8804,-0.8804,-0.8804,-0.8804,-0.8804,-0.8962,-0.9309,-0.9309,-0.9484,-0.984,-1.0012,-1.0115,0.1769,0.0,0.0,0.0,0.0,0.0,0.0,0.0,0.0,0.0,0.0,0.0,0.0,0.0,0.0,0.0,0.0,0.0,0.0,0.0,0.0,0.0,0.0,0.0,0.0,0.0,0.0,0.0,0.0,0.0,0.5998,0.5998,0.5745,0.5191,0.5161,0.4748,0.3881,0.3738,0.3552,0.3338,0.3338,0.3297,0.3193,0.3193,0.3046,0.277,0.216,0.1235,0.0105,-0.0183,-0.0527,-0.0907,-0.0902,-0.0888,-0.0898,-0.0898,-0.0898,-0.0898,-0.0898,-0.1149,-0.154,-0.1734,-0.2068,-0.2514,-0.3125,-0.343,-0.3683,-0.4073,-0.4349,-0.4491,-0.4491,-0.4491,-0.4519,-0.4605,-0.4739,-0.4846,-0.4846,-0.5367,-0.5937,-0.6349,-0.662,-0.681,-0.681,-0.7262,-0.7637,-0.7637,-0.7963,-0.8295,-0.848,-0.8507,-0.8586,-0.8778,-0.8804,-0.8804,-0.8804,-0.8804,-0.8804,-0.8804,-0.8804,-0.8804,-0.8804,-0.8804,-0.8804,-0.8804,-0.8804,-0.8982,-0.9335,-0.9335,-0.951,-0.9865,-0.9865,-0.9961,0.0,0.0,0.0,0.0,0.0,0.0,0.0,0.0,0.0,0.0,0.0,0.0,0.0,0.0,0.0,0.0,0.0,0.0,0.0,0.0,0.0,0.0,0.0,0.0,0.0,0.0,0.0,0.0,0.0,0.5609,0.5609,0.5604,0.5374,0.4923,0.4898,0.4553,0.381,0.3813,0.359,0.3188,0.3188,0.3185,0.3183,0.3183,0.3061,0.2784,0.2461,0.1745,0.0754,0.0025,-0.0514,-0.0877,-0.0904,-0.0896,-0.0895,-0.0895,-0.0896,-0.0896,-0.0896,-0.0897,-0.1009,-0.1595,-0.1762,-0.1874,-0.2486,-0.307,-0.3544,-0.3597,-0.4015,-0.4487,-0.4491,-0.4491,-0.4491,-0.4491,-0.4605,-0.4688,-0.4688,-0.4908,-0.5097,-0.5097,-0.5668,-0.6154,-0.6154,-0.6674,-0.7058,-0.7058,-0.7112,-0.7321,-0.7824,-0.7925,-0.8143,-0.8725,-0.8804,-0.8804,-0.8804,-0.8804,-0.8804,-0.8804,-0.8804,-0.8804,-0.8804,-0.8804,-0.8804,-0.8804,-0.8804,-0.8804,-0.8804,-0.8804,-0.8804,-0.8804,-0.8804,-0.9087,0.1262,0.0,0.0,0.0,0.0,0.0,0.0,0.0,0.0,0.0,0.0,0.0,0.0,0.0,0.0,0.0,0.0,0.0,0.0,0.0,0.0,0.0,0.0,0.0,0.0,0.0,0.0,0.0,0.5519,0.5609,0.5609,0.5462,0.533,0.5184,0.4869,0.4463,0.4012,0.3884,0.3544,0.3048,0.3048,0.3026,0.2989,0.2989,0.2943,0.285,0.2561,0.2039,0.1324,0.0478,-0.0073,-0.0419,-0.0709,-0.0825,-0.0832,-0.0832,-0.0846,-0.0892,-0.0892,-0.0907,-0.0926,-0.1093,-0.1149,-0.126,-0.1874,-0.2179,-0.2486,-0.3347,-0.371,-0.3959,-0.4377,-0.4491,-0.4491,-0.4491,-0.4519,-0.4546,-0.4546,-0.4688,-0.4853,-0.4928,-0.512,-0.5254,-0.5254,-0.5832,-0.63,-0.63,-0.7101,-0.7738,-0.7871,-0.8282,-0.8613,-0.8778,-0.8804,-0.8804,-0.8804,-0.8804,-0.8804,-0.8804,-0.8804,-0.8804,-0.8804,-0.8804,-0.8804,-0.8804,-0.8804,-0.8804,-0.8804,-0.8804,-0.8804,-0.8804,-0.8804,-0.8883,0.1038,0.1431,0.0,0.0,0.0,0.0,0.0,0.0,0.0,0.0,0.0,0.0,0.0,0.0,0.0,0.0,0.0,0.0,0.0,0.0,0.0,0.0,0.0,0.0,0.0,0.0,0.0,0.0,0.5278,0.5349,0.5349,0.5231,0.5182,0.5182,0.4907,0.4585,0.4222,0.3972,0.3624,0.3155,0.3017,0.2936,0.289,0.289,0.289,0.289,0.2618,0.2304,0.1906,0.1057,0.0351,-0.0215,-0.0463,-0.0646,-0.0806,-0.0806,-0.0818,-0.0859,-0.0859,-0.0871,-0.0862,-0.0902,-0.0906,-0.0963,-0.131,-0.1595,-0.1956,-0.2653,-0.3209,-0.3683,-0.4042,-0.4322,-0.4491,-0.4491,-0.4491,-0.4491,-0.4491,-0.4574,-0.466,-0.4794,-0.4873,-0.4897,-0.4897,-0.5258,-0.5532,-0.5532,-0.6172,-0.6816,-0.731,-0.7744,-0.8182,-0.8666,-0.8778,-0.8804,-0.8804,-0.8804,-0.8804,-0.8804,-0.8804,-0.8804,-0.8804,-0.8804,-0.8804,-0.8804,-0.8804,-0.8804,-0.8804,-0.8804,-0.8804,-0.8804,-0.8804,-0.8804,0.0981,0.1487,0.1881,0.0,0.0,0.0,0.2597,0.301,0.0,0.0,0.0,0.0,0.0,0.0,0.0,0.0,0.0,0.0,0.0,0.0,0.0,0.0,0.0,0.0,0.0,0.0,0.504,0.504,0.5021,0.5011,0.5011,0.5011,0.5011,0.5011,0.5011,0.481,0.4412,0.41,0.3774,0.3398,0.3087,0.2934,0.289,0.289,0.289,0.289,0.264,0.2526,0.2437,0.1701,0.0824,-0.0047,-0.0165,-0.0411,-0.0747,-0.0772,-0.0799,-0.0802,-0.0802,-0.0804,-0.0811,-0.0865,-0.09,-0.0879,-0.0879,-0.1277,-0.1726,-0.1788,-0.2625,-0.3486,-0.3486,-0.3904,-0.4294,-0.4294,-0.4349,-0.4405,-0.4405,-0.4463,-0.4546,-0.466,-0.4767,-0.4842,-0.4842,-0.4873,-0.4873,-0.4873,-0.4952,-0.5363,-0.6372,-0.6723,-0.7257,-0.8276,-0.8474,-0.8593,-0.8646,-0.8666,-0.8692,-0.8778,-0.8778,-0.8778,-0.8804,-0.8804,-0.8804,-0.8804,-0.8804,-0.8804,-0.8804,-0.8804,-0.8804,-0.8804,-0.8804,-0.8804,0.1063,0.1792,0.2467,0.2186,0.0,0.0,0.0,0.2353,0.0,0.0,0.0,0.0,0.0,0.0,0.0,0.0,0.0,0.0,0.0,0.0,0.0,0.0,0.0,0.0,0.0,0.0,0.5253,0.5253,0.5102,0.5011,0.5011,0.5011,0.5011,0.5011,0.5011,0.481,0.4412,0.4342,0.399,0.3398,0.3331,0.3154,0.289,0.289,0.289,0.289,0.2845,0.2709,0.2462,0.2107,0.1576,0.0929,0.0113,-0.0251,-0.0345,-0.0621,-0.0752,-0.0797,-0.0797,-0.0788,-0.0808,-0.0814,-0.0815,-0.0817,-0.0823,-0.0946,-0.119,-0.1666,-0.2319,-0.2875,-0.2875,-0.2959,-0.3042,-0.3042,-0.343,-0.3766,-0.3766,-0.4156,-0.4519,-0.4546,-0.4574,-0.457,-0.457,-0.4656,-0.4743,-0.4743,-0.5258,-0.5719,-0.5937,-0.6372,-0.675,-0.6961,-0.702,-0.7235,-0.7711,-0.7765,-0.8004,-0.86,-0.8633,-0.8685,-0.8804,-0.8804,-0.8804,-0.8804,-0.8804,-0.8804,-0.8804,-0.8804,-0.8804,-0.8804,-0.8804,-0.8804,0.1006,0.1649,0.2296,0.241,0.0,0.0,0.0,0.0,0.0,0.0,0.0,0.0,0.0,0.0,0.0,0.0,0.0,0.0,0.0,0.0,0.0,0.0,0.0,0.0,0.0,0.0,0.5405,0.5315,0.5216,0.5116,0.5016,0.5011,0.5011,0.5011,0.5011,0.4898,0.4696,0.4499,0.4232,0.3902,0.3726,0.3464,0.3154,0.3154,0.3068,0.289,0.289,0.2821,0.2684,0.242,0.215,0.1791,0.056,-0.0022,-0.0247,-0.0584,-0.0729,-0.0742,-0.0742,-0.0751,-0.0765,-0.0781,-0.081,-0.0789,-0.0802,-0.0854,-0.0962,-0.1277,-0.1795,-0.2263,-0.2263,-0.2486,-0.2708,-0.2708,-0.2931,-0.3236,-0.3544,-0.3849,-0.4128,-0.4436,-0.4491,-0.4491,-0.4491,-0.4546,-0.4605,-0.4605,-0.4928,-0.5254,-0.5527,-0.585,-0.6172,-0.6475,-0.6556,-0.6777,-0.7171,-0.7197,-0.7391,-0.783,-0.809,-0.8276,-0.8342,-0.8646,-0.8804,-0.8804,-0.8804,-0.8804,-0.8804,-0.8804,-0.8804,-0.8804,-0.8804,-0.8804,0.0,0.0,0.0,0.0,0.0,0.2703,0.0,0.0,0.0,0.263,0.0,0.0,0.0,0.0,0.0,0.0,0.0,0.0,0.0,0.0,0.0,0.0,0.0,0.0,0.0,0.0,0.5538,0.5363,0.5296,0.5197,0.5073,0.503,0.5011,0.5011,0.5011,0.5011,0.5011,0.4675,0.4478,0.4386,0.4122,0.3818,0.3486,0.342,0.3243,0.3001,0.2934,0.289,0.289,0.2618,0.2504,0.237,0.1073,0.0381,0.0022,-0.0427,-0.0607,-0.0607,-0.0674,-0.0697,-0.0701,-0.0771,-0.078,-0.0785,-0.079,-0.0841,-0.089,-0.0902,-0.1249,-0.1638,-0.162,-0.1986,-0.2347,-0.2347,-0.2541,-0.282,-0.332,-0.3599,-0.3904,-0.4405,-0.4491,-0.4491,-0.4491,-0.4491,-0.4491,-0.4491,-0.4491,-0.4653,-0.5089,-0.5246,-0.5492,-0.5982,-0.6122,-0.6312,-0.6583,-0.6637,-0.675,-0.6999,-0.745,-0.7711,-0.7744,-0.8209,-0.8507,-0.8613,-0.8613,-0.8672,-0.8804,-0.8804,-0.8804,-0.8804,-0.8804,-0.8804,0.0,0.0,0.0,0.0,0.304,0.0,0.0,0.0,0.2563,0.2382,0.0,0.0,0.0,0.0,0.0,0.0,0.0,0.0,0.0,0.0,0.0,0.0,0.0,0.0,0.0,0.0,0.0,0.5576,0.5231,0.5111,0.5268,0.5106,0.5011,0.5011,0.5011,0.5011,0.5011,0.4963,0.4745,0.4408,0.4368,0.417,0.3836,0.3527,0.3376,0.3331,0.3021,0.289,0.289,0.2618,0.2504,0.2415,0.1544,0.1164,0.1008,0.009,-0.0247,-0.0292,-0.0607,-0.0697,-0.0697,-0.0701,-0.0702,-0.073,-0.0784,-0.0796,-0.0834,-0.089,-0.0962,-0.0998,-0.1001,-0.1065,-0.1093,-0.1093,-0.193,-0.2708,-0.2792,-0.3655,-0.4405,-0.4491,-0.4491,-0.4491,-0.4491,-0.4491,-0.4491,-0.4491,-0.4491,-0.4515,-0.457,-0.4598,-0.4653,-0.4708,-0.4736,-0.4952,-0.5441,-0.5641,-0.5996,-0.6615,-0.688,-0.7074,-0.7192,-0.7246,-0.7509,-0.7984,-0.801,-0.8256,-0.8804,-0.8804,-0.8804,-0.8804,-0.8804,-0.8804,0.0,0.0,0.0,0.0,0.0,0.0,0.3217,0.0,0.303,0.0,0.0,0.0,0.0,0.0,0.0,0.0,0.0,0.0,0.0,0.0,0.0,0.0,0.0,0.0,0.0,0.0,0.0,0.0,0.0,0.533,0.531,0.523,0.513,0.5011,0.5011,0.5011,0.5011,0.5011,0.4919,0.474,0.474,0.4543,0.4188,0.3836,0.3593,0.3376,0.3046,0.289,0.289,0.2776,0.2732,0.2684,0.2192,0.1701,0.1231,0.056,0.009,-0.0225,-0.036,-0.0539,-0.0697,-0.0697,-0.0697,-0.0699,-0.0734,-0.0775,-0.0797,-0.084,-0.0865,-0.0913,-0.089,-0.0898,-0.0898,-0.0898,-0.1288,-0.1762,-0.2097,-0.2847,-0.3569,-0.3904,-0.4267,-0.4491,-0.4491,-0.4491,-0.4491,-0.4491,-0.4491,-0.4491,-0.4491,-0.4491,-0.4491,-0.4491,-0.4491,-0.4629,-0.4932,-0.5018,-0.5234,-0.5582,-0.6014,-0.6475,-0.6966,-0.6864,-0.6966,-0.731,-0.731,-0.761,-0.8156,-0.8235,-0.8448,-0.8804,-0.8804,-0.8804,0.1706,0.0,0.0,0.0,0.0,0.0,0.0,0.0,0.0,0.0,0.0,0.0,0.0,0.0,0.0,0.0,0.0,0.0,0.0,0.0,0.0,0.0,0.0,0.0,0.0,0.0,0.0,0.0,0.0,0.0,0.5457,0.5349,0.5244,0.5097,0.5035,0.5011,0.5011,0.5011,0.5011,0.5011,0.5011,0.4854,0.4543,0.41,0.3774,0.3508,0.3087,0.289,0.289,0.289,0.289,0.289,0.2684,0.2215,0.1566,0.1119,0.0672,0.0269,0.0045,-0.0314,-0.0652,-0.0652,-0.0674,-0.0697,-0.0697,-0.074,-0.0794,-0.0799,-0.0855,-0.0913,-0.089,-0.0898,-0.0898,-0.0898,-0.1037,-0.126,-0.1706,-0.2263,-0.282,-0.3264,-0.371,-0.407,-0.4239,-0.4377,-0.4491,-0.4491,-0.4491,-0.4491,-0.4491,-0.4491,-0.4491,-0.4491,-0.4491,-0.4546,-0.4632,-0.4688,-0.477,-0.4897,-0.5308,-0.5796,-0.6335,-0.6204,-0.6285,-0.6583,-0.661,-0.6858,-0.7396,-0.7498,-0.7797,-0.8289,-0.8646,-0.8804,0.0,0.0,0.0,0.2569,0.0,0.0,0.0,0.0,0.211,0.0,0.0,0.0,0.0,0.0,0.0,0.0,0.0,0.0,0.0,0.0,0.0,0.0,0.0,0.0,0.0,0.0,0.0,0.0,0.0,0.0,0.5868,0.5505,0.5306,0.5301,0.5111,0.5011,0.5011,0.5011,0.5011,0.5011,0.5011,0.4985,0.4963,0.4236,0.3902,0.3836,0.3176,0.289,0.289,0.289,0.289,0.289,0.289,0.2709,0.2393,0.1792,0.1569,0.1433,0.0649,0.0,-0.0517,-0.0517,-0.0584,-0.0697,-0.0697,-0.0739,-0.0791,-0.0798,-0.0855,-0.0913,-0.089,-0.0898,-0.0898,-0.0898,-0.1344,-0.1762,-0.179,-0.2263,-0.2708,-0.2736,-0.2736,-0.2931,-0.3514,-0.4125,-0.4491,-0.4491,-0.4491,-0.4491,-0.4491,-0.4491,-0.4491,-0.4491,-0.4491,-0.4491,-0.4519,-0.4632,-0.477,-0.4897,-0.4928,-0.4924,-0.4952,-0.4952,-0.5226,-0.5828,-0.5828,-0.61,-0.6642,-0.6642,-0.675,-0.6988,-0.8235,-0.8804,0.0,0.0,0.23,0.2516,0.0,0.0,0.0,0.0,0.0,0.0,0.0,0.0,0.0,0.0,0.0,0.0,0.0,0.0,0.0,0.0,0.0,0.0,0.0,0.0,0.0,0.0,0.0,0.0,0.0,0.0,0.0,0.5774,0.5571,0.5297,0.5244,0.5144,0.5011,0.5011,0.5011,0.5011,0.5011,0.5011,0.4985,0.4236,0.3902,0.3858,0.3198,0.289,0.289,0.289,0.289,0.289,0.289,0.2845,0.2709,0.2328,0.1947,0.1524,0.103,0.0537,0.009,0.009,-0.0179,-0.0497,-0.0511,-0.052,-0.0556,-0.0643,-0.0686,-0.0725,-0.0862,-0.0898,-0.0898,-0.0898,-0.1065,-0.1205,-0.1205,-0.1679,-0.2097,-0.2097,-0.243,-0.2764,-0.2959,-0.3181,-0.3569,-0.4377,-0.4491,-0.4491,-0.4491,-0.4491,-0.4491,-0.4491,-0.4491,-0.4491,-0.4491,-0.4546,-0.4574,-0.4625,-0.4625,-0.4684,-0.477,-0.4684,-0.4763,-0.5069,-0.5069,-0.5336,-0.5869,-0.6014,-0.629,-0.6718,-0.7155,-0.7664,0.2634,0.2583,0.0,0.0,0.2437,0.0,0.1787,0.0,0.0,0.0,0.0,0.0,0.0,0.0,0.0,0.0,0.0,0.0,0.0,0.0,0.0,0.0,0.0,0.0,0.0,0.0,0.4879,0.5389,0.0,0.0,0.0,0.0,0.575,0.5415,0.5325,0.5211,0.5011,0.5011,0.5011,0.5011,0.5011,0.5011,0.4985,0.4368,0.4012,0.3862,0.3309,0.3001,0.289,0.289,0.289,0.289,0.289,0.289,0.289,0.2709,0.2281,0.1744,0.152,0.114,0.0693,0.0492,0.0179,-0.0158,-0.0354,-0.041,-0.0419,-0.0498,-0.0591,-0.0652,-0.0769,-0.0834,-0.0895,-0.0912,-0.089,-0.0898,-0.0898,-0.1205,-0.1484,-0.1484,-0.179,-0.2124,-0.2347,-0.2374,-0.2792,-0.3987,-0.4184,-0.4267,-0.446,-0.4491,-0.4491,-0.4491,-0.4491,-0.4491,-0.4491,-0.4491,-0.4467,-0.4389,-0.446,-0.4494,-0.4528,-0.444,-0.4467,-0.4629,-0.4552,-0.4736,-0.5136,-0.5281,-0.5527,-0.5941,-0.6122,-0.6506]}]]